[[{"header":{"parameterUnit":"m.s-1","parameterCategory":1,"la1":31.0,"la2":29.5877,"lo1":-88.7671,"lo2":-86.6584,"dx":0.0162,"dy":0.0185,"nx":115,"ny":88,"refTime":"2022-12-13T18:00:00:Z","depth":0,"parameterNumber":2,"parameterNumberName":"U-component_of_WINDS"},"data":[0.0,0.0,0.0,0.0,0.0,0.0,0.0,0.0,0.0,0.0,0.0,0.0,0.0,0.0,0.0,0.0,0.0,0.0,0.0,0.0,0.0,0.0,0.0,0.0,0.0,0.0,0.0,0.0,0.0,0.0,0.0,0.0,0.0,0.0,0.0,0.0,0.0,0.0,0.0,0.0,0.0,0.0,0.0,0.0,0.0,0.0,0.0,0.0,0.0,0.0,0.0,0.0,0.0,0.0,0.0,0.0,0.0,0.0,0.0,0.0,0.0,0.0,0.0,0.0,0.0,0.0,0.0,0.0,0.0,0.0,0.0,0.0,0.0,0.0,0.0,0.0,0.0,0.0,0.0,0.0,0.0,0.0,0.0,0.0,0.0,0.0,0.0,0.0,0.0,0.0,0.0,0.0,0.0,0.0,0.0,0.0,0.0,0.0,0.0,0.0,0.0,0.0,0.0,0.0,0.0,0.0,0.0,0.0,0.0,0.0,0.0,0.0,0.0,0.0,0.0,0.0,0.0,0.0,0.0,0.0,0.0,0.0,0.0,0.0,0.0,0.0,0.0,0.0,0.0,0.0,0.0,0.0,0.0,0.0,0.0,0.0,0.0,0.0,0.0,0.0,0.0,0.0,0.0,0.0,0.0,0.0,0.0,0.0,0.0,0.0,0.0,0.0,0.0,0.0,0.0,0.0,0.0,0.0,0.0,0.0,0.0,0.0,0.0,0.0,0.0,0.0,0.0,0.0,0.0,0.0,0.0,0.0,0.0,0.0,0.0,0.0,0.0,0.0,0.0,0.0,0.0,0.0,0.0,0.0,0.0,0.0,0.0,0.0,0.0,0.0,0.0,0.0,0.0,0.0,0.0,0.0,0.0,0.0,0.0,0.0,0.0,0.0,0.0,0.0,0.0,0.0,0.0,0.0,0.0,0.0,0.0,0.0,0.0,0.0,0.0,0.0,0.0,0.0,0.0,0.0,0.0,0.0,0.0,0.0,0.0,0.0,0.0,0.0,0.0,0.0,0.0,0.0,0.0,0.0,0.0,0.0,0.0,0.0,0.0,0.0,0.0,0.0,0.0,0.0,0.0,0.0,0.0,0.0,0.0,0.0,0.0,0.0,0.0,0.0,0.0,0.0,0.0,0.0,0.0,0.0,0.0,0.0,0.0,0.0,0.0,0.0,0.0,0.0,0.0,0.0,0.0,0.0,0.0,0.0,0.0,0.0,0.0,0.0,0.0,0.0,0.0,0.0,0.0,0.0,0.0,0.0,0.0,0.0,0.0,0.0,0.0,0.0,0.0,0.0,0.0,0.0,0.0,0.0,0.0,0.0,0.0,0.0,0.0,0.0,0.0,0.0,0.0,0.0,0.0,0.0,0.0,0.0,0.0,0.0,0.0,0.0,0.0,0.0,0.0,0.0,0.0,0.0,0.0,0.0,0.0,0.0,0.0,0.0,0.0,0.0,0.0,0.0,0.0,0.0,0.0,0.0,0.0,0.0,0.0,0.0,0.0,0.0,0.0,0.0,0.0,0.0,0.0,0.0,0.0,0.0,0.0,0.0,0.0,0.0,0.0,0.0,0.0,0.0,0.0,0.0,0.0,0.0,0.0,0.0,0.0,0.0,0.0,0.0,0.0,0.0,0.0,0.0,0.0,0.0,0.0,0.0,0.0,0.0,0.0,0.0,0.0,0.0,0.0,0.0,0.0,0.0,0.0,0.0,0.0,0.0,0.0,0.0,0.0,0.0,0.0,0.0,0.0,0.0,0.0,0.0,0.0,0.0,0.0,0.0,0.0,0.0,0.0,0.0,0.0,0.0,0.0,0.0,0.0,0.0,0.0,0.0,0.0,0.0,0.0,0.0,0.0,0.0,0.0,0.0,0.0,0.0,0.0,0.0,0.0,0.0,0.0,0.0,0.0,0.0,0.0,0.0,0.0,0.0,0.0,0.0,0.0,0.0,0.0,0.0,0.0,0.0,0.0,0.0,0.0,0.0,0.0,0.0,0.0,0.0,0.0,0.0,0.0,0.0,0.0,0.0,0.0,0.0,0.0,0.0,0.0,0.0,0.0,0.0,0.0,0.0,0.0,0.0,0.0,0.0,0.0,0.0,0.0,0.0,0.0,0.0,0.0,0.0,0.0,0.0,0.0,0.0,0.0,0.0,0.0,0.0,0.0,0.0,0.0,0.0,0.0,0.0,0.0,0.0,0.0,0.0,0.0,0.0,0.0,0.0,0.0,0.0,0.0,0.0,0.0,0.0,0.0,0.0,0.0,0.0,0.0,0.0,0.0,0.0,0.0,0.0,0.0,0.0,0.0,0.0,0.0,0.0,0.0,0.0,0.0,0.0,0.0,0.0,0.0,0.0,0.0,0.0,0.0,0.0,0.0,0.0,0.0,0.0,0.0,0.0,0.0,0.0,0.0,0.0,0.0,0.0,0.0,0.0,0.0,0.0,0.0,0.0,0.0,0.0,0.0,0.0,0.0,0.0,0.0,0.0,0.0,0.0,0.0,0.0,0.0,0.0,0.0,0.0,0.0,0.0,0.0,0.0,0.0,0.0,0.0,0.0,0.0,0.0,0.0,0.0,0.0,0.0,0.0,0.0,0.0,0.0,0.0,0.0,0.0,0.0,0.0,0.0,0.0,0.0,0.0,0.0,0.0,0.0,0.0,0.0,0.0,0.0,0.0,0.0,0.0,0.0,0.0,0.0,0.0,0.0,0.0,0.0,0.0,0.0,0.0,0.0,0.0,0.0,0.0,0.0,0.0,0.0,0.0,0.0,0.0,0.0,0.0,0.0,0.0,0.0,0.0,0.0,0.0,0.0,0.0,0.0,0.0,0.0,0.0,0.0,0.0,0.0,0.0,0.0,0.0,0.0,0.0,0.0,0.0,0.0,0.0,0.0,0.0,0.0,0.0,0.0,0.0,0.0,0.0,0.0,0.0,0.0,0.0,0.0,0.0,0.0,0.0,0.0,0.0,0.0,0.0,0.0,0.0,0.0,0.0,0.0,0.0,0.0,0.0,0.0,0.0,0.0,0.0,0.0,0.0,0.0,0.0,0.0,0.0,0.0,0.0,0.0,0.0,0.0,0.0,0.0,0.0,0.0,0.0,0.0,0.0,0.0,0.0,0.0,0.0,0.0,0.0,0.0,0.0,0.0,0.0,0.0,0.0,0.0,0.0,0.0,0.0,0.0,0.0,0.0,0.0,0.0,0.0,0.0,0.0,0.0,0.0,0.0,0.0,0.0,0.0,0.0,0.0,0.0,0.0,0.0,0.0,0.0,0.0,0.0,0.0,0.0,0.0,0.0,0.0,0.0,0.0,0.0,0.0,0.0,0.0,0.0,0.0,0.0,0.0,0.0,0.0,0.0,0.0,0.0,0.0,0.0,0.0,0.0,0.0,0.0,0.0,0.0,0.0,0.0,0.0,0.0,0.0,0.0,0.0,0.0,0.0,0.0,0.0,0.0,0.0,0.0,0.0,0.0,0.0,0.0,0.0,0.0,0.0,0.0,0.0,0.0,0.0,0.0,0.0,0.0,0.0,0.0,0.0,0.0,0.0,0.0,0.0,0.0,0.0,0.0,0.0,0.0,0.0,0.0,0.0,0.0,0.0,0.0,0.0,0.0,0.0,0.0,0.0,0.0,0.0,0.0,0.0,0.0,0.0,0.0,0.0,0.0,0.0,0.0,0.0,0.0,0.0,0.0,0.0,0.0,0.0,0.0,0.0,0.0,0.0,0.0,0.0,0.0,0.0,0.0,0.0,0.0,0.0,0.0,0.0,0.0,0.0,0.0,0.0,0.0,0.0,0.0,0.0,0.0,0.0,0.0,0.0,0.0,0.0,0.0,0.0,0.0,0.0,0.0,0.0,0.0,0.0,0.0,0.0,0.0,0.0,0.0,0.0,0.0,0.0,0.0,0.0,0.0,0.0,0.0,0.0,0.0,0.0,0.0,0.0,0.0,0.0,0.0,0.0,0.0,0.0,0.0,0.0,0.0,0.0,0.0,0.0,0.0,0.0,0.0,0.0,0.0,0.0,0.0,0.0,0.0,0.0,0.0,0.0,0.0,0.0,0.0,0.0,0.0,0.0,0.0,0.0,0.0,0.0,0.0,0.0,0.0,0.0,0.0,0.0,0.0,0.0,0.0,0.0,0.0,0.0,0.0,0.0,0.0,0.0,0.0,0.0,0.0,0.0,0.0,0.0,0.0,0.0,0.0,0.0,0.0,0.0,0.0,0.0,0.0,0.0,0.0,1.2599,0.0,0.0,0.0,1.2013,0.0,0.0,0.0,0.0,0.0,0.0,0.0,0.0,0.0,0.0,0.0,0.0,0.0,0.0,0.0,0.0,0.0,0.0,0.0,0.0,0.0,0.0,0.0,0.0,0.0,0.0,0.0,0.0,0.0,0.0,0.0,0.0,0.0,0.0,0.0,0.0,0.0,0.0,0.0,0.0,0.0,0.0,0.0,0.0,0.0,0.0,0.0,0.0,0.0,0.0,0.0,0.0,0.0,0.0,0.0,0.0,0.0,0.0,0.0,0.0,0.0,0.0,0.0,0.0,0.0,0.0,0.0,0.0,0.0,0.0,0.0,0.0,0.0,0.0,0.0,0.0,0.0,0.0,0.0,0.0,0.0,0.0,0.0,0.0,0.0,0.0,0.0,0.0,0.0,0.0,0.0,0.0,0.0,0.0,0.0,0.0,0.0,0.0,0.0,0.0,0.0,0.0,0.0,0.0,0.0,0.0,0.0,0.0,0.0,0.0,1.3282,1.2612,1.3558,1.342,1.2064,0.0,0.0,0.0,0.0,0.0,0.0,0.0,0.0,0.0,0.0,0.0,0.0,0.0,0.0,0.0,0.0,0.0,0.0,0.0,0.0,0.0,0.0,0.0,0.0,0.0,0.0,0.0,0.0,0.0,0.0,0.0,0.0,0.0,0.0,0.0,0.0,0.0,0.0,0.0,0.0,0.0,0.0,0.0,0.0,0.0,0.0,0.0,0.0,0.0,0.0,0.0,0.0,0.0,0.0,0.0,0.0,0.0,0.0,0.0,0.0,0.0,0.0,0.0,0.0,0.0,0.0,0.0,0.0,0.0,0.0,0.0,0.0,0.0,0.0,0.0,0.0,0.0,0.0,0.0,0.0,0.0,0.0,0.0,0.0,0.0,0.0,0.0,0.0,0.0,0.0,0.0,0.0,0.0,0.0,0.0,0.0,0.0,0.0,0.0,0.0,0.0,0.0,0.0,0.0,0.0,0.0,0.0,0.0,0.0,0.0,0.0,0.0,1.411,1.394,1.2351,0.0,0.0,0.0,0.0,0.0,0.0,0.0,0.0,0.0,0.0,0.0,0.0,0.0,0.0,0.0,0.0,0.0,0.0,0.0,0.0,0.0,0.0,0.0,0.0,0.0,0.0,0.0,0.0,0.0,0.0,0.0,0.0,0.0,0.0,0.0,0.0,0.0,0.0,0.0,0.0,0.0,0.0,0.0,0.0,0.0,0.0,0.0,0.0,0.0,0.0,0.0,0.0,0.0,0.0,0.0,0.0,0.0,0.0,0.0,0.0,0.0,0.0,0.0,0.0,0.0,0.0,0.0,0.0,0.0,0.0,0.0,0.0,0.0,0.0,0.0,0.0,0.0,0.0,0.0,0.0,0.0,0.0,0.0,0.0,0.0,0.0,0.0,0.0,0.0,0.0,0.0,0.0,0.0,0.0,0.0,0.0,0.0,0.0,0.0,0.0,0.0,0.0,0.0,0.0,0.0,0.0,0.0,0.0,0.0,0.0,1.2937,1.3515,1.3621,0.0,1.3121,0.0,0.0,0.0,0.0,0.0,0.0,0.0,0.0,0.0,0.0,0.0,0.0,0.0,0.0,0.0,0.0,0.0,0.0,0.0,0.0,0.0,0.0,0.0,0.0,0.0,0.0,0.0,0.0,0.0,0.0,0.0,0.0,0.0,0.0,0.0,0.0,0.0,0.0,0.0,0.0,0.0,0.0,0.0,0.0,0.0,0.0,0.0,0.0,0.0,0.0,0.0,0.0,0.0,0.0,0.0,0.0,0.0,0.0,0.0,0.0,0.0,0.0,0.0,0.0,0.0,0.0,0.0,0.0,0.0,0.0,0.0,0.0,0.0,0.0,0.0,0.0,0.0,0.0,0.0,0.0,0.0,0.0,0.0,0.0,0.0,0.0,0.0,0.0,0.0,0.0,0.0,0.0,0.0,0.0,0.0,0.0,0.0,0.0,0.0,0.0,0.0,0.0,0.0,0.0,0.0,0.0,0.0,0.0,0.0,0.0,1.4734,1.5024,1.4183,1.3684,0.0,0.0,0.0,0.0,0.0,0.0,0.0,0.0,0.0,0.0,0.0,0.0,0.0,0.0,0.0,0.0,0.0,0.0,0.0,0.0,0.0,0.0,0.0,0.0,0.0,0.0,0.0,0.0,0.0,0.0,0.0,0.0,0.0,0.0,0.0,0.0,0.0,0.0,0.0,0.0,0.0,0.0,0.0,0.0,0.0,0.0,0.0,0.0,0.0,0.0,0.0,0.0,0.0,0.0,0.0,0.0,0.0,0.0,0.0,0.0,0.0,0.0,0.0,0.0,0.0,0.0,0.0,0.0,0.0,0.0,0.0,0.0,0.0,0.0,0.0,0.0,0.0,0.0,0.0,0.0,0.0,0.0,0.0,0.0,0.0,0.0,0.0,0.0,0.0,0.0,0.0,0.0,0.0,0.0,0.0,0.0,0.0,0.0,0.0,0.0,0.0,0.0,0.0,0.0,0.0,0.0,0.0,0.0,0.0,0.0,1.5835,1.6219,1.6305,1.5332,1.4583,1.4173,0.0,0.0,0.0,0.0,0.0,0.0,0.0,0.0,0.0,0.0,0.0,0.0,0.0,0.0,0.0,0.0,0.0,0.0,0.0,0.0,0.0,0.0,0.0,0.0,0.0,0.0,0.0,0.0,0.0,0.0,0.0,0.0,0.0,0.0,0.0,0.0,0.0,0.0,0.0,0.0,0.0,0.0,0.0,0.0,0.0,0.0,0.0,0.0,0.0,0.0,0.0,0.0,0.0,0.0,0.0,0.0,0.0,0.0,0.0,0.0,0.0,0.0,0.0,0.0,0.0,0.0,0.0,0.0,0.0,0.0,0.0,0.0,0.0,0.0,0.0,0.0,0.0,0.0,0.0,0.0,0.0,0.0,0.0,0.0,0.0,0.0,0.0,0.0,0.0,0.0,0.0,0.0,0.0,0.0,0.0,0.0,0.0,0.0,0.0,0.0,0.0,0.0,0.0,0.0,0.0,0.0,0.0,0.0,1.6276,1.6398,1.6731,1.7356,1.7098,1.6296,0.0,0.0,0.0,0.0,0.0,0.0,0.0,0.0,0.0,0.0,0.0,0.0,0.0,0.0,0.0,0.0,0.0,0.0,0.0,0.0,0.0,0.0,0.0,0.0,0.0,0.0,0.0,0.0,0.0,0.0,0.0,0.0,0.0,0.0,0.0,0.0,0.0,0.0,0.0,0.0,0.0,0.0,0.0,0.0,0.0,0.0,0.0,0.0,0.0,0.0,0.0,0.0,0.0,0.0,0.0,0.0,0.0,0.0,0.0,0.0,0.0,0.0,0.0,0.0,0.0,0.0,0.0,0.0,0.0,0.0,0.0,0.0,0.0,0.0,0.0,0.0,0.0,0.0,0.0,0.0,0.0,0.0,0.0,0.0,0.0,0.0,0.0,0.0,0.0,0.0,0.0,0.0,0.0,0.0,0.0,0.0,0.0,0.0,0.0,0.0,0.0,0.0,0.0,0.0,0.0,0.0,0.0,0.0,0.0,1.7332,1.8219,1.9147,1.999,1.8458,1.7155,0.0,0.0,0.0,0.0,0.0,0.0,0.0,0.0,0.0,0.0,0.0,0.0,0.0,0.0,0.0,0.0,0.0,0.0,0.0,0.0,0.0,0.0,0.0,0.0,0.0,0.0,0.0,0.0,0.0,0.0,0.0,0.0,0.0,0.0,0.0,0.0,0.0,0.0,0.0,0.0,0.0,0.0,0.0,0.0,0.0,0.0,0.0,0.0,0.0,0.0,0.0,0.0,0.0,0.0,0.0,0.0,0.0,0.0,0.0,0.0,0.0,0.0,0.0,0.0,0.0,0.0,0.0,0.0,0.0,0.0,0.0,0.0,0.0,0.0,0.0,0.0,0.0,0.0,0.0,0.0,0.0,0.0,0.0,0.0,0.0,0.0,0.0,0.0,0.0,0.0,0.0,0.0,0.0,0.0,0.0,0.0,0.0,0.0,0.0,0.0,0.0,0.0,0.0,0.0,0.0,0.0,0.0,0.0,0.0,1.906,2.0411,2.1231,2.154,1.975,1.8194,0.0,0.0,0.0,0.0,0.0,0.0,0.0,0.0,0.0,0.0,0.0,0.0,0.0,0.0,0.0,0.0,0.0,0.0,0.0,0.0,0.0,0.0,0.0,0.0,0.0,0.0,0.0,0.0,0.0,0.0,0.0,0.0,0.0,0.0,0.0,0.0,0.0,0.0,0.0,0.0,0.0,0.0,0.0,0.0,0.0,0.0,0.0,0.0,0.0,0.0,0.0,0.0,0.0,0.0,0.0,0.0,0.0,0.0,0.0,0.0,0.0,0.0,0.0,0.0,0.0,0.0,0.0,0.0,0.0,0.0,0.0,0.0,0.0,0.0,0.0,0.0,0.0,0.0,0.0,0.0,0.0,0.0,0.0,0.0,0.0,0.0,0.0,0.0,0.0,0.0,0.0,0.0,0.0,0.0,0.0,0.0,0.0,0.0,0.0,0.0,0.0,0.0,0.0,0.0,0.0,0.0,0.0,0.0,1.8525,2.1562,2.2648,2.2723,2.1732,2.0994,1.946,0.0,0.0,0.0,0.0,0.0,0.0,0.0,0.0,0.0,0.0,0.0,0.0,0.0,0.0,0.0,0.0,0.0,0.0,0.0,0.0,0.0,0.0,0.0,0.0,0.0,0.0,0.0,0.0,0.0,0.0,0.0,0.0,0.0,0.0,0.0,0.0,0.0,0.0,0.0,0.0,0.0,0.0,0.0,0.0,0.0,0.0,0.0,0.0,0.0,0.0,0.0,0.0,0.0,0.0,0.0,0.0,0.0,0.0,0.0,0.0,0.0,0.0,0.0,0.0,0.0,0.0,0.0,0.0,0.0,0.0,0.0,0.0,0.0,0.0,0.0,0.0,0.0,0.0,0.0,0.0,0.0,0.0,0.0,0.0,0.0,0.0,0.0,0.0,0.0,0.0,0.0,0.0,0.0,0.0,0.0,0.0,0.0,0.0,0.0,0.0,0.0,0.0,0.0,0.0,0.0,0.0,0.0,0.0,0.0,2.2331,2.3969,2.4195,2.2869,2.2424,2.1231,0.0,0.0,0.0,0.0,0.0,0.0,0.0,0.0,0.0,0.0,0.0,0.0,0.0,0.0,0.0,0.0,0.0,0.0,0.0,0.0,0.0,0.0,0.0,0.0,0.0,0.0,0.0,0.0,0.0,0.0,0.0,0.0,0.0,0.0,0.0,0.0,0.0,0.0,0.0,0.0,0.0,0.0,0.0,0.0,0.0,0.0,0.0,0.0,0.0,0.0,0.0,0.0,0.0,0.0,0.0,0.0,0.0,0.0,0.0,0.0,0.0,0.0,0.0,0.0,0.0,0.0,0.0,0.0,0.0,0.0,0.0,0.0,0.0,0.0,0.0,0.0,0.0,0.0,0.0,0.0,0.0,0.0,0.0,0.0,0.0,0.0,0.0,0.0,0.0,0.0,0.0,0.0,0.0,0.0,0.0,0.0,0.0,0.0,0.0,0.0,0.0,0.0,0.0,0.0,0.0,0.0,0.0,0.0,0.0,2.3873,2.5203,2.5443,2.4392,2.3679,2.2349,2.0327,0.0,0.0,0.0,0.0,0.0,0.0,0.0,0.0,0.0,0.0,0.0,0.0,0.0,0.0,0.0,0.0,0.0,0.0,0.0,0.0,0.0,0.0,0.0,0.0,0.0,0.0,0.0,0.0,0.0,0.0,0.0,0.0,0.0,0.0,0.0,0.0,0.0,0.0,0.0,0.0,0.0,0.0,0.0,0.0,0.0,0.0,0.0,0.0,0.0,0.0,0.0,0.0,0.0,0.0,0.0,0.0,0.0,0.0,0.0,0.0,0.0,0.0,0.0,0.0,0.0,0.0,0.0,0.0,0.0,0.0,0.0,0.0,0.0,0.0,0.0,0.0,0.0,0.0,0.0,0.0,0.0,0.0,0.0,0.0,0.0,0.0,0.0,0.0,0.0,0.0,0.0,0.0,0.0,0.0,0.0,0.0,0.0,0.0,0.0,0.0,0.0,0.0,0.0,0.0,0.0,0.0,0.0,0.0,2.6126,2.6476,2.6453,2.6054,2.4715,2.3013,0.0,0.0,0.0,0.0,0.0,0.0,0.0,0.0,0.0,0.0,0.0,0.0,0.0,0.0,0.0,0.0,0.0,0.0,0.0,0.0,0.0,0.0,0.0,0.0,0.0,0.0,0.0,0.0,0.0,0.0,0.0,0.0,0.0,0.0,0.0,0.0,0.0,0.0,0.0,0.0,0.0,0.0,0.0,0.0,0.0,0.0,0.0,0.0,0.0,0.0,0.0,0.0,0.0,0.0,0.0,0.0,0.0,0.0,0.0,0.0,0.0,0.0,0.0,0.0,0.0,0.0,0.0,0.0,0.0,0.0,0.0,0.0,0.0,0.0,0.0,0.0,0.0,0.0,0.0,0.0,0.0,0.0,0.0,0.0,0.0,0.0,0.0,0.0,0.0,0.0,0.0,0.0,0.0,0.0,0.0,0.0,0.0,0.0,0.0,0.0,0.0,0.0,0.0,0.0,0.0,0.0,0.0,0.0,0.0,2.8672,2.8453,2.7596,2.6249,2.5778,2.4787,0.0,0.0,0.0,0.0,0.0,0.0,0.0,0.0,0.0,0.0,0.0,0.0,0.0,0.0,0.0,0.0,0.0,0.0,0.0,0.0,0.0,0.0,0.0,0.0,0.0,0.0,0.0,0.0,0.0,0.0,0.0,0.0,0.0,0.0,0.0,0.0,0.0,0.0,0.0,0.0,0.0,0.0,0.0,0.0,0.0,0.0,0.0,0.0,0.0,0.0,0.0,0.0,0.0,0.0,0.0,0.0,0.0,0.0,0.0,0.0,0.0,0.0,0.0,0.0,0.0,0.0,0.0,0.0,0.0,0.0,0.0,0.0,0.0,0.0,0.0,0.0,0.0,0.0,0.0,0.0,0.0,0.0,0.0,0.0,0.0,0.0,0.0,0.0,0.0,0.0,0.0,0.0,0.0,0.0,0.0,0.0,0.0,0.0,0.0,0.0,0.0,0.0,0.0,0.0,0.0,0.0,0.0,0.0,2.7863,2.9968,3.0023,2.9318,2.7958,2.7242,2.6126,0.0,0.0,0.0,0.0,0.0,0.0,0.0,0.0,0.0,0.0,0.0,0.0,0.0,0.0,0.0,0.0,0.0,0.0,0.0,0.0,0.0,0.0,0.0,0.0,0.0,0.0,0.0,0.0,0.0,0.0,0.0,0.0,0.0,0.0,0.0,0.0,0.0,0.0,0.0,0.0,0.0,0.0,0.0,0.0,0.0,0.0,0.0,0.0,0.0,0.0,0.0,0.0,0.0,0.0,0.0,0.0,0.0,0.0,0.0,0.0,0.0,0.0,0.0,0.0,0.0,0.0,0.0,0.0,0.0,0.0,0.0,0.0,0.0,0.0,0.0,0.0,0.0,0.0,0.0,0.0,0.0,0.0,0.0,0.0,0.0,0.0,0.0,0.0,0.0,0.0,0.0,0.0,0.0,0.0,0.0,0.0,0.0,0.0,0.0,0.0,0.0,0.0,0.0,0.0,0.0,0.0,0.0,0.0,2.9062,3.0435,3.1136,3.1186,3.0546,2.8876,2.7105,0.0,0.0,0.0,0.0,0.0,0.0,0.0,0.0,0.0,0.0,0.0,0.0,0.0,0.0,0.0,0.0,0.0,0.0,0.0,0.0,0.0,0.0,0.0,0.0,0.0,0.0,0.0,0.0,0.0,0.0,0.0,0.0,0.0,0.0,0.0,0.0,0.0,0.0,0.0,0.0,0.0,0.0,0.0,0.0,0.0,0.0,0.0,0.0,0.0,0.0,0.0,0.0,0.0,0.0,0.0,0.0,0.0,0.0,0.0,0.0,0.0,0.0,0.0,0.0,0.0,0.0,0.0,0.0,0.0,0.0,0.0,0.0,0.0,0.0,0.0,0.0,0.0,0.0,0.0,0.0,0.0,0.0,0.0,0.0,0.0,0.0,0.0,0.0,0.0,0.0,0.0,0.0,0.0,0.0,0.0,0.0,0.0,0.0,0.0,0.0,0.0,0.0,0.0,0.0,0.0,0.0,0.0,0.0,3.0111,3.1283,3.142,3.1776,3.2316,3.0124,2.8101,0.0,0.0,0.0,0.0,0.0,0.0,0.0,0.0,0.0,0.0,0.0,0.0,0.0,0.0,0.0,0.0,0.0,0.0,0.0,0.0,0.0,0.0,0.0,0.0,0.0,0.0,0.0,0.0,0.0,0.0,0.0,0.0,0.0,0.0,0.0,0.0,0.0,0.0,0.0,0.0,0.0,0.0,0.0,0.0,0.0,0.0,0.0,0.0,1.717,0.0,0.0,0.0,0.0,0.0,0.0,0.0,0.0,0.0,0.0,0.0,0.0,0.0,0.0,0.0,0.0,0.0,0.0,0.0,0.0,0.0,0.0,0.0,0.0,0.0,0.0,0.0,0.0,0.0,0.0,0.0,0.0,0.0,0.0,0.0,0.0,0.0,0.0,0.0,0.0,0.0,0.0,0.0,0.0,0.0,0.0,0.0,0.0,0.0,0.0,0.0,0.0,0.0,0.0,0.0,0.0,0.0,0.0,0.0,3.1027,3.2047,3.2502,3.2785,3.2834,3.1302,2.9428,0.0,0.0,0.0,0.0,0.0,0.0,0.0,0.0,0.0,0.0,0.0,0.0,0.0,0.0,0.0,0.0,0.0,0.0,0.0,0.0,0.0,0.0,0.0,0.0,0.0,0.0,0.0,0.0,0.0,0.0,0.0,0.0,0.0,0.0,0.0,0.0,0.0,0.0,0.0,0.0,0.0,0.0,0.0,0.0,0.0,0.0,0.0,0.0,0.0,0.0,0.0,0.0,0.0,0.0,0.0,0.0,0.0,0.0,0.0,0.0,0.0,0.0,0.0,0.0,0.0,0.0,0.0,0.0,0.0,0.0,0.0,0.0,0.0,0.0,0.0,0.0,0.0,0.0,0.0,0.0,0.0,0.0,0.0,0.0,0.0,0.0,0.0,0.0,0.0,0.0,0.0,0.0,0.0,0.0,0.0,0.0,0.0,0.0,0.0,0.0,0.0,0.0,0.0,0.0,0.0,0.0,0.0,2.9886,3.1774,3.2884,3.3722,3.3858,3.3302,3.2335,3.0702,2.8297,0.0,0.0,0.0,0.0,0.0,0.0,0.0,0.0,0.0,0.0,0.0,0.0,0.0,0.0,0.0,0.0,0.0,0.0,0.0,0.0,0.0,0.0,0.0,0.0,0.0,0.0,0.0,0.0,0.0,0.0,0.0,0.0,0.0,0.0,0.0,0.0,0.0,0.0,1.6401,1.902,0.0,0.0,0.0,0.0,0.0,0.0,0.0,0.0,2.0991,0.0,0.0,0.0,0.0,0.0,0.0,0.0,0.0,0.0,0.0,0.0,0.0,0.0,0.0,0.0,0.0,0.0,0.0,0.0,0.0,0.0,0.0,0.0,0.0,0.0,0.0,0.0,0.0,0.0,0.0,0.0,0.0,0.0,0.0,0.0,0.0,0.0,0.0,0.0,0.0,0.0,0.0,0.0,0.0,0.0,0.0,0.0,0.0,0.0,0.0,0.0,0.0,0.0,0.0,0.0,0.0,2.8323,3.0217,3.2093,3.3808,3.4093,3.4476,3.5082,3.3022,3.1027,2.9063,0.0,0.0,0.0,0.0,0.0,0.0,0.0,0.0,0.0,0.0,0.0,0.0,0.0,0.0,0.0,0.0,0.0,0.0,0.0,0.0,0.0,0.0,0.0,0.0,0.0,0.0,0.0,0.0,0.0,0.0,0.0,0.0,0.0,0.0,0.0,0.0,0.0,0.0,0.0,2.2497,2.3982,0.0,0.0,0.0,0.0,0.0,0.0,0.0,0.0,2.0886,0.0,0.0,0.0,0.0,0.0,0.0,0.0,0.0,0.0,0.0,0.0,0.0,0.0,0.0,0.0,0.0,0.0,0.0,0.0,0.0,0.0,0.0,0.0,0.0,0.0,0.0,0.0,0.0,0.0,0.0,0.0,0.0,0.0,0.0,0.0,0.0,0.0,0.0,0.0,0.0,0.0,0.0,0.0,0.0,0.0,0.0,0.0,0.0,0.0,0.0,0.0,0.0,0.0,0.0,0.0,2.9025,3.1362,3.3324,3.4735,3.5256,3.5578,3.5627,3.4037,3.198,0.0,0.0,0.0,0.0,0.0,0.0,0.0,0.0,0.0,0.0,0.0,0.0,0.0,0.0,0.0,0.0,0.0,0.0,0.0,0.0,0.0,0.0,0.0,0.0,0.0,0.0,0.0,0.0,0.0,0.0,0.0,0.0,0.0,0.0,0.0,0.0,0.0,0.0,0.0,0.0,2.4013,2.5298,2.6061,0.0,0.0,0.0,0.0,0.0,0.0,2.3588,2.2769,0.0,0.0,0.0,0.0,0.0,0.0,0.0,0.0,0.0,0.0,0.0,0.0,0.0,0.0,0.0,0.0,0.0,0.0,0.0,0.0,0.0,0.0,0.0,0.0,0.0,0.0,0.0,0.0,0.0,0.0,0.0,0.0,0.0,0.0,0.0,0.0,0.0,0.0,0.0,0.0,0.0,0.0,0.0,0.0,0.0,0.0,0.0,0.0,0.0,0.0,0.0,0.0,0.0,0.0,0.0,2.9653,3.2411,3.4507,3.5887,3.6509,3.6646,3.6255,3.5086,3.3038,0.0,0.0,0.0,0.0,0.0,0.0,0.0,0.0,0.0,0.0,0.0,0.0,0.0,0.0,0.0,0.0,0.0,0.0,0.0,0.0,0.0,0.0,0.0,0.0,0.0,0.0,0.0,0.0,0.0,0.0,0.0,0.0,0.0,0.0,0.0,0.0,0.0,0.0,0.0,0.0,0.0,2.6656,2.7437,2.8683,0.0,0.0,0.0,0.0,2.5957,2.5405,0.0,0.0,0.0,0.0,0.0,0.0,0.0,0.0,0.0,0.0,0.0,0.0,0.0,0.0,0.0,0.0,0.0,0.0,0.0,0.0,0.0,0.0,0.0,0.0,0.0,0.0,0.0,0.0,0.0,0.0,0.0,0.0,0.0,0.0,0.0,0.0,0.0,0.0,0.0,0.0,0.0,0.0,0.0,0.0,0.0,0.0,0.0,0.0,0.0,0.0,0.0,0.0,0.0,0.0,0.0,0.0,3.052,3.2584,3.4934,3.7515,3.728,3.7399,3.8033,3.592,3.3785,0.0,0.0,0.0,0.0,0.0,0.0,0.0,0.0,0.0,0.0,0.0,0.0,0.0,0.0,0.0,0.0,0.0,0.0,0.0,0.0,0.0,0.0,0.0,0.0,0.0,0.0,0.0,0.0,0.0,0.0,0.0,0.0,0.0,0.0,0.0,0.0,0.0,0.0,0.0,0.0,0.0,2.9212,2.8977,2.9841,3.0445,0.0,0.0,2.8655,2.7937,2.7093,0.0,0.0,0.0,0.0,0.0,0.0,0.0,0.0,0.0,0.0,0.0,0.0,0.0,0.0,0.0,0.0,0.0,0.0,0.0,0.0,0.0,0.0,0.0,0.0,0.0,0.0,0.0,0.0,0.0,0.0,0.0,0.0,0.0,0.0,0.0,0.0,0.0,0.0,0.0,0.0,0.0,0.0,0.0,0.0,0.0,0.0,0.0,0.0,0.0,0.0,0.0,0.0,0.0,0.0,0.0,2.89,3.1574,3.3954,3.637,3.8674,3.859,3.8737,3.9188,3.7272,3.5169,0.0,0.0,0.0,0.0,0.0,0.0,0.0,0.0,0.0,0.0,0.0,0.0,0.0,0.0,0.0,0.0,0.0,0.0,0.0,0.0,0.0,0.0,0.0,0.0,0.0,0.0,0.0,0.0,0.0,0.0,0.0,0.0,0.0,0.0,0.0,0.0,0.0,0.0,0.0,0.0,0.0,0.0,2.9997,3.1166,0.0,0.0,0.0,3.0962,2.983,0.0,0.0,0.0,0.0,0.0,0.0,0.0,0.0,0.0,0.0,0.0,0.0,0.0,0.0,0.0,0.0,0.0,0.0,0.0,0.0,0.0,0.0,0.0,0.0,0.0,0.0,0.0,0.0,0.0,0.0,0.0,0.0,0.0,0.0,0.0,0.0,0.0,0.0,0.0,0.0,0.0,0.0,0.0,0.0,0.0,0.0,0.0,0.0,0.0,0.0,0.0,0.0,0.0,0.0,0.0,0.0,0.0,3.2657,3.5413,3.7809,3.9727,4.0115,4.0263,4.0192,3.8854,0.0,0.0,0.0,0.0,0.0,0.0,0.0,0.0,0.0,0.0,0.0,0.0,0.0,0.0,0.0,0.0,0.0,0.0,0.0,0.0,0.0,0.0,0.0,0.0,0.0,0.0,0.0,1.1746,0.0,0.0,0.0,0.0,0.0,0.0,0.0,0.0,0.0,0.0,0.0,0.0,0.0,0.0,2.9379,3.0903,3.2451,3.3269,0.0,0.0,3.3044,3.1974,3.1853,3.1309,0.0,0.0,0.0,0.0,0.0,0.0,0.0,0.0,0.0,0.0,0.0,0.0,0.0,0.0,0.0,0.0,0.0,0.0,0.0,0.0,0.0,0.0,0.0,0.0,0.0,0.0,0.0,0.0,0.0,0.0,0.0,0.0,0.0,0.0,0.0,0.0,0.0,0.0,0.0,0.0,0.0,0.0,0.0,0.0,0.0,0.0,0.0,0.0,0.0,0.0,0.0,0.0,0.0,0.0,3.043,3.3666,3.6508,3.8902,4.0825,4.1765,4.192,4.1335,4.0461,3.8667,0.0,0.0,0.0,0.0,0.0,0.0,0.0,0.0,0.0,0.0,0.0,0.0,0.0,0.0,0.0,0.0,0.0,0.0,0.0,0.0,0.0,0.0,0.0,0.0,0.0,0.0,0.0,0.0,0.0,0.0,0.0,0.0,0.0,0.0,0.0,0.0,0.0,0.0,0.0,0.0,0.0,3.0914,3.1881,3.3466,3.462,0.0,3.464,3.4562,3.4546,3.3101,3.212,3.2497,0.0,0.0,0.0,0.0,0.0,0.0,0.0,0.0,0.0,0.0,0.0,0.0,0.0,0.0,0.0,0.0,0.0,0.0,0.0,0.0,0.0,0.0,0.0,0.0,0.0,0.0,0.0,0.0,0.0,0.0,0.0,0.0,0.0,0.0,0.0,0.0,0.0,0.0,0.0,0.0,0.0,0.0,0.0,0.0,0.0,0.0,0.0,0.0,0.0,0.0,0.0,0.0,0.0,3.2255,3.5602,3.7891,4.0177,4.2484,4.2593,4.2693,4.3,4.1265,3.9757,0.0,0.0,0.0,0.0,0.0,0.0,0.0,0.0,0.0,0.0,0.0,0.0,0.0,0.0,0.0,0.0,0.0,0.0,0.0,0.0,0.0,0.0,0.0,0.0,0.0,0.0,0.0,0.0,1.6078,1.6628,1.7105,0.0,0.0,0.0,0.0,0.0,0.0,0.0,0.0,0.0,0.0,3.2222,3.3581,3.5183,0.0,0.0,3.634,3.6239,3.6463,3.6061,3.5501,3.4741,3.392,0.0,0.0,0.0,0.0,0.0,0.0,0.0,0.0,0.0,0.0,0.0,0.0,0.0,0.0,0.0,0.0,0.0,0.0,0.0,0.0,0.0,0.0,0.0,0.0,0.0,0.0,0.0,0.0,0.0,0.0,0.0,0.0,0.0,0.0,0.0,0.0,0.0,0.0,0.0,0.0,0.0,0.0,0.0,0.0,0.0,0.0,0.0,0.0,0.0,0.0,0.0,0.0,3.3701,3.6844,3.8987,4.1364,4.4014,4.3938,4.4015,4.4363,4.2795,4.1399,0.0,0.0,0.0,0.0,0.0,0.0,0.0,0.0,0.0,0.0,0.0,0.0,0.0,0.0,0.0,0.0,0.0,0.0,0.0,0.0,0.0,0.0,0.0,0.0,0.0,0.0,0.0,0.0,1.806,1.8669,1.9491,0.0,0.0,0.0,0.0,0.0,0.0,0.0,0.0,0.0,0.0,3.3789,3.5476,3.7028,3.8099,3.8491,3.8313,3.8273,3.8666,3.8423,3.7929,3.7193,0.0,0.0,0.0,0.0,0.0,0.0,0.0,0.0,0.0,0.0,0.0,0.0,0.0,0.0,0.0,0.0,0.0,0.0,0.0,0.0,0.0,0.0,0.0,0.0,0.0,0.0,0.0,2.0626,0.0,0.0,2.1729,0.0,0.0,0.0,0.0,0.0,0.0,0.0,0.0,0.0,0.0,0.0,0.0,0.0,0.0,0.0,0.0,0.0,0.0,0.0,0.0,0.0,0.0,3.4561,3.7107,3.9876,4.2481,4.5077,4.5993,4.61,4.5515,4.5417,4.3731,4.0253,0.0,0.0,0.0,0.0,0.0,0.0,0.0,0.0,0.0,0.0,0.0,0.0,0.0,0.0,0.0,0.0,0.0,0.0,0.0,0.0,0.0,0.0,0.0,0.0,0.0,0.0,1.9234,2.0739,2.1951,0.0,0.0,0.0,0.0,0.0,0.0,0.0,0.0,0.0,3.3468,3.4428,3.5587,3.7584,3.8995,4.0084,4.0791,4.0691,4.075,4.1334,3.9738,3.8739,0.0,0.0,0.0,0.0,0.0,0.0,0.0,0.0,0.0,0.0,0.0,0.0,0.0,0.0,0.0,0.0,0.0,0.0,0.0,0.0,0.0,0.0,0.0,0.0,0.0,0.0,0.0,2.3184,2.3406,0.0,0.0,0.0,0.0,0.0,0.0,0.0,0.0,0.0,0.0,0.0,3.2095,3.3576,0.0,0.0,0.0,0.0,0.0,0.0,0.0,0.0,0.0,0.0,0.0,0.0,3.7069,3.9623,4.2435,4.4576,4.602,4.7035,4.7444,4.7223,4.6685,4.4921,4.1952,0.0,0.0,0.0,0.0,0.0,0.0,0.0,0.0,0.0,0.0,0.0,0.0,0.0,0.0,0.0,0.0,0.0,0.0,0.0,0.0,0.0,0.0,0.0,0.0,0.0,2.1103,0.0,0.0,0.0,0.0,0.0,0.0,0.0,0.0,0.0,0.0,0.0,3.2703,3.5872,3.7139,3.841,4.0202,4.1207,4.1894,0.0,0.0,0.0,0.0,0.0,0.0,0.0,0.0,0.0,0.0,0.0,0.0,0.0,0.0,3.6243,3.4168,3.3481,3.3323,3.3602,0.0,0.0,0.0,0.0,0.0,0.0,0.0,0.0,0.0,0.0,0.0,0.0,0.0,0.0,2.7184,0.0,2.7349,0.0,0.0,0.0,0.0,0.0,0.0,0.0,0.0,3.3429,3.4901,3.608,3.7332,3.7529,0.0,3.6856,3.5436,0.0,0.0,0.0,0.0,0.0,0.0,0.0,0.0,3.9618,4.1935,4.4151,4.6003,4.7468,4.8199,4.8567,4.8548,4.7452,4.5841,4.3752,4.1494,3.9388,0.0,0.0,0.0,0.0,0.0,0.0,0.0,0.0,0.0,0.0,0.0,0.0,0.0,0.0,0.0,0.0,0.0,0.0,0.0,0.0,0.0,0.0,0.0,2.482,0.0,0.0,0.0,0.0,0.0,0.0,0.0,0.0,0.0,3.2135,3.3355,3.5353,3.8191,3.944,4.079,4.2787,0.0,0.0,0.0,0.0,0.0,0.0,0.0,4.47,4.3931,4.3767,4.3479,4.281,4.2265,4.1914,4.1777,0.0,0.0,3.8023,3.7106,3.6927,3.7209,3.6793,3.6721,3.7612,3.7907,3.8652,0.0,0.0,0.0,0.0,0.0,0.0,0.0,0.0,3.1416,3.1851,0.0,3.2477,0.0,0.0,0.0,0.0,3.3163,3.2472,0.0,0.0,3.7661,3.8703,4.0466,4.0646,4.0677,4.0677,4.0708,4.0612,4.0202,3.6843,0.0,0.0,0.0,0.0,0.0,0.0,4.2018,4.3881,4.5031,4.6799,4.924,4.9413,4.947,4.95,4.7889,4.6586,4.5647,4.3995,4.1813,3.922,3.7441,0.0,0.0,0.0,0.0,0.0,0.0,0.0,0.0,0.0,0.0,0.0,0.0,0.0,0.0,0.0,0.0,0.0,0.0,0.0,0.0,2.8611,0.0,0.0,0.0,0.0,0.0,0.0,0.0,0.0,0.0,3.6882,3.5186,3.6616,3.8567,4.0427,0.0,0.0,0.0,0.0,4.481,4.722,4.6619,4.5859,4.5859,4.6139,4.6311,4.6089,0.0,0.0,4.613,4.5896,4.5495,4.5218,4.5381,4.4624,4.1393,3.9942,3.9357,4.0042,4.0253,4.0539,4.1264,4.1703,4.2398,3.8772,0.0,0.0,0.0,0.0,3.4302,3.4751,3.5174,3.5729,3.6112,3.6288,3.5592,0.0,0.0,0.0,0.0,0.0,0.0,3.6852,4.0245,4.0387,4.1757,4.408,4.4168,4.4222,4.4222,4.4245,4.4206,4.4106,4.3056,4.1724,4.0144,0.0,0.0,0.0,0.0,4.3708,4.4898,4.7107,4.8644,4.945,5.0079,5.04,5.0433,4.9363,4.8617,4.833,4.6155,4.4273,4.2876,3.9917,0.0,0.0,0.0,0.0,0.0,0.0,0.0,0.0,0.0,0.0,0.0,0.0,0.0,0.0,0.0,0.0,0.0,0.0,0.0,3.0471,3.2241,3.324,0.0,0.0,0.0,0.0,0.0,0.0,0.0,0.0,0.0,4.0324,4.0922,4.2064,0.0,0.0,4.5858,4.7146,4.7069,4.7107,4.7813,4.7639,0.0,4.7379,4.777,4.7961,4.7563,4.7394,4.7376,4.7507,4.7394,4.7319,4.7279,4.7338,4.7049,4.6145,4.4612,4.3656,4.3809,4.3886,4.4173,4.4958,4.5285,4.5666,4.353,4.0965,3.8838,3.7649,3.724,3.8003,3.8697,3.9339,4.013,4.046,4.0436,3.9802,3.938,3.8984,3.7964,0.0,0.0,0.0,4.0435,4.3479,4.3599,4.4725,4.6552,4.6684,4.6738,4.6722,4.6738,4.6722,4.6728,4.6667,4.6198,4.5189,0.0,0.0,4.4801,4.5321,4.6014,4.6954,4.8913,5.0141,5.0542,5.1399,5.1873,5.1834,5.1344,5.0713,5.0002,4.8519,4.7014,4.5494,4.2739,4.0268,0.0,0.0,0.0,0.0,0.0,0.0,0.0,0.0,0.0,0.0,0.0,2.2148,2.3472,0.0,0.0,0.0,3.1222,3.26,3.4169,3.559,0.0,0.0,0.0,0.0,0.0,0.0,0.0,3.9509,4.1839,4.3675,4.425,4.5266,4.6013,4.5975,4.7069,4.8183,4.8971,0.0,4.9337,4.9969,4.9779,4.9606,4.9547,5.0074,5.0396,5.0143,5.0066,5.0105,5.0124,5.0084,5.0084,5.0105,5.0124,5.0124,5.0125,4.9202,4.7952,4.6762,4.6474,4.6647,4.7165,4.7281,4.7549,4.7669,4.7196,4.2277,4.0167,4.0084,4.0887,4.2097,4.3582,4.4353,4.4696,4.4671,4.4594,4.4054,4.3239,4.2274,0.0,4.4204,4.3458,4.4572,4.7107,4.7185,4.7738,4.8601,4.8701,4.8723,4.8707,4.8709,4.8709,4.8723,4.8739,4.9042,4.9637,4.7895,4.6915,4.6978,4.7643,4.8491,4.95,5.0443,5.1348,5.2194,5.3056,5.3459,5.3382,5.3409,5.2601,5.1022,5.0829,4.9671,4.7317,4.5619,4.3573,4.1117,0.0,0.0,0.0,0.0,0.0,0.0,0.0,0.0,0.0,0.0,0.0,0.0,0.0,0.0,3.2674,3.5837,0.0,3.7927,3.8652,0.0,0.0,0.0,3.9409,4.0501,4.1991,4.3063,4.3496,0.0,0.0,4.7317,4.9317,4.9933,4.7607,4.8683,5.001,5.0779,5.0894,5.1471,5.2779,5.251,5.201,5.1836,5.241,5.2811,5.2794,5.3102,5.2931,5.299,5.301,5.3126,5.2972,5.3164,5.3087,5.3164,5.2895,5.2221,4.9106,4.8548,4.8548,4.8683,4.8702,4.8971,4.9103,4.8391,4.7072,4.5706,4.4538,4.5311,4.5866,4.625,4.7024,4.7383,4.7353,4.6642,4.589,4.5076,4.4739,4.5512,4.7108,4.6954,4.826,5.0663,5.0889,5.136,5.2128,5.2205,5.2244,5.2282,5.2276,5.2276,5.226,5.226,5.2028,5.1563,5.1073,5.0168,4.8903,4.907,4.9324,4.955,5.1018,5.2249,5.3127,5.3398,5.3481,5.3464,5.3481,5.2978,5.1918,5.1222,5.0317,4.901,4.7388,4.5611,4.368,4.1923,0.0,0.0,0.0,0.0,0.0,0.0,0.0,0.0,0.0,2.9813,3.1317,0.0,3.4857,0.0,3.9065,4.0672,4.0764,4.1471,0.0,0.0,4.2389,4.2905,4.5012,4.5089,4.5704,4.7738,4.8451,4.9279,5.0548,5.1241,5.1664,5.1644,5.2049,5.2336,5.2508,5.2567,5.2741,5.3164,5.3164,5.2895,5.2972,5.3028,5.3259,5.3182,5.322,5.3182,5.3203,5.3203,5.3203,5.3203,5.3203,5.3203,5.328,5.3203,5.301,5.2182,5.199,5.199,5.199,5.1933,5.201,5.1538,5.1137,5.1057,5.0416,4.944,4.912,4.911,4.949,5.0271,5.0593,5.0563,5.0082,4.9581,4.9136,4.9101,4.9563,5.045,5.047,5.1279,5.2627,5.2679,5.2978,5.3442,5.3481,5.3481,5.3498,5.3514,5.3491,5.3475,5.3498,5.3249,5.2785,5.2763,5.226,5.1315,5.0913,5.0758,5.0758,5.2034,5.3326,5.4559,5.4636,5.4796,5.5165,5.4796,5.4387,5.3884,5.2724,5.2012,5.1846,5.0262,4.8717,4.7388,4.5742,4.4029,0.0,0.0,0.0,0.0,0.0,0.0,0.0,0.0,0.0,0.0,0.0,3.9029,4.12,4.2936,4.382,4.3508,4.4256,4.4983,4.5461,4.5461,4.6133,4.7885,4.833,4.9062,5.0506,5.0951,5.153,5.2435,5.3205,5.38,5.428,5.5011,5.5203,5.4507,5.4912,5.5472,5.5472,5.5472,5.5472,5.5472,5.5472,5.5472,5.5472,5.5472,5.5472,5.5472,5.5472,5.5472,5.5434,5.5164,5.4895,5.4857,5.4549,5.4318,5.4318,5.4318,5.401,5.3356,5.3203,5.3203,5.4005,5.3986,5.3922,5.3923,5.3866,5.2308,5.1968,5.2539,5.3236,5.3481,5.3395,5.3395,5.3433,5.3433,5.3415,5.3454,5.3588,5.3567,5.3626,5.3742,5.3739,5.3756,5.3834,5.3795,5.3812,5.3807,5.3807,5.3807,5.3807,5.3812,5.3756,5.3679,5.3674,5.3652,5.3652,5.2917,5.2492,5.2376,5.3227,5.4426,5.5973,5.6012,5.6343,5.7077,5.6381,5.5973,5.5818,5.4349,5.3829,5.4452,5.285,5.1691,5.109,4.9478,4.7549,0.0,4.4307,0.0,0.0,0.0,0.0,0.0,0.0,0.0,0.0,4.1538,4.3597,4.602,4.6838,4.6992,4.6429,4.7063,4.7565,4.7681,4.8337,4.9109,4.9958,5.1348,5.2391,5.2584,5.3261,5.3744,5.4073,5.5267,5.6074,5.6148,5.728,5.7703,5.6626,5.728,5.805,5.828,5.828,5.7896,5.7973,5.8127,5.8127,5.8204,5.805,5.828,5.8088,5.8127,5.8204,5.8127,5.7511,5.7088,5.7165,5.6511,5.6049,5.6049,5.5934,5.5318,5.4049,5.3664,5.351,5.4005,5.3986,5.3922,5.4326,5.4882,5.45,5.3996,5.3443,5.3522,5.3558,5.3469,5.3464,5.3481,5.3481,5.3481,5.3868,5.4525,5.4525,5.4873,5.5513,5.5492,5.5531,5.5531,5.5531,5.5531,5.5548,5.5509,5.5548,5.5509,5.5531,5.5183,5.4585,5.4564,5.4581,5.4564,0.0,0.0,0.0,5.4078,5.5006,5.5973,5.6012,5.6089,5.6244,5.6089,0.0,5.5045,5.4039,5.3575,5.3674,5.205,0.0,0.0,0.0,0.0,0.0,0.0,0.0,0.0,0.0,0.0,0.0,4.6174,4.5699,4.384,4.5142,4.6907,4.874,4.9088,4.9397,4.9861,5.0055,5.0442,5.1138,5.137,5.1796,5.264,5.3088,5.3713,5.5088,5.5418,5.6,5.7139,5.7677,5.779,5.7829,5.8649,5.9127,5.8858,5.855,5.8319,5.8319,5.8511,5.8396,5.828,5.8434,5.8627,5.828,5.828,5.8396,5.8473,5.8396,5.8357,5.8396,5.8165,5.805,5.805,5.7896,5.7703,5.778,5.7242,5.6434,5.5434,5.5241,5.5241,5.5254,5.5274,5.521,5.5457,0.0,5.5774,5.5441,5.4983,5.4904,5.4839,5.4796,5.4791,5.4752,5.4735,5.4735,5.4967,5.5393,5.5393,5.5586,5.6012,5.6012,5.6012,5.6012,5.6012,5.6012,5.6012,5.6012,5.6205,5.6631,5.667,5.667,5.667,5.6687,5.667,5.6691,5.667,5.6244,5.5354,5.5818,5.6437,5.7228,5.6863,5.6863,5.7228,5.6437,0.0,0.0,0.0,0.0,0.0,0.0,0.0,0.0,0.0,0.0,5.1719,5.0586,5.0052,5.0431,5.0431,5.048,5.0539,5.0938,5.0197,4.7998,4.8994,5.0261,5.1541,5.1696,5.1851,5.2239,5.2278,5.2471,5.2937,5.3712,5.441,5.4823,5.5637,5.642,5.7124,5.734,5.7654,5.8394,5.8819,5.8991,5.9044,6.0041,6.0766,6.0704,6.005,5.9665,6.0089,6.055,6.0781,6.0781,6.0781,6.0742,6.0781,6.0781,6.0781,6.0781,6.0435,6.0204,6.0127,5.9511,5.8896,5.8858,5.8588,5.828,5.828,5.7934,5.755,5.7011,5.6319,5.5818,5.6627,5.6602,5.6503,5.6485,5.6503,5.6416,5.6358,5.629,5.6253,0.0,0.0,5.6101,5.6062,5.6029,5.6012,5.6012,5.6012,5.6012,5.6012,5.6012,5.6012,5.6012,5.6012,5.6012,5.6012,5.6012,5.6167,5.6592,5.7267,5.7425,5.7907,5.8544,5.8583,5.8583,5.8604,5.8758,5.8488,5.7791,5.7598,5.7886,5.8562,5.7925,5.7886,5.8562,5.7228,5.6824,5.7499,5.6062,5.5946,5.7439,5.6614,5.6248,5.6548,5.576,5.4991,5.444,5.3719,5.3588,5.4234,5.4273,5.4359,5.457,5.457,5.3758,5.1763,5.2258,5.3114,5.4074,5.4152,5.4307,5.458,5.4618,5.4657,5.4657,5.5928,5.6732,5.6783,5.791,5.8711,5.894,5.8925,5.9087,5.9392,5.9937,6.0307,6.0496,6.1511,6.2313,6.2228,6.1666,6.1435,6.205,6.2512,6.3128,6.3243,6.3128,6.332,6.3012,6.3128,6.332,6.3205,6.2743,6.2358,6.2166,6.0973,6.0165,5.9935,5.9396,5.8781,5.8742,5.8588,5.8511,5.8357,5.728,5.6472,5.6595,5.6567,5.6523,5.6475,5.6497,5.6449,5.6407,5.6382,5.6265,5.6174,5.6174,5.6126,5.6117,5.6101,5.6029,5.6012,5.6012,5.6012,5.6012,5.6012,5.6012,5.6012,5.6012,5.6012,5.6012,5.6051,5.6764,5.719,5.7383,5.8083,5.849,5.8606,5.8604,5.8604,5.8663,5.9339,5.9648,5.9532,5.8797,5.8449,5.8583,5.8488,5.8449,5.8583,5.8372,5.8312,5.8463,5.755,5.7521,5.8474,5.7053,5.6874,5.8343,5.704,5.6485,5.712,5.6425,5.6003,5.6095,5.6134,5.6446,5.7154,5.7232,5.6198,5.3766,5.3602,5.4342,5.5823,5.6017,5.6641,5.8013,5.8101,5.8013,5.813,5.8382,5.8515,5.8476,5.8748,5.923,5.9905,5.9904,6.0536,6.164,6.1944,6.2201,6.2858,6.3042,6.3199,6.3229,6.3051,6.3012,6.3128,6.3243,6.332,6.3474,6.3358,6.3474,6.332,6.3435,6.3512,6.3512,6.332,6.3166,6.3128,6.2281,6.1743,6.1627,6.1012,6.0473,6.0319,5.9858,5.9358,5.9319,5.855,5.7973,5.6597,5.6606,5.6528,5.6484,5.6475,5.6464,5.6728,5.7097,5.7064,5.6718,5.6253,5.6185,5.6126,5.6078,5.6062,5.6029,5.6012,5.6012,5.6012,5.6012,5.6012,5.6012,5.6012,5.6012,5.6244,5.6725,5.7112,5.7787,5.8678,5.9127,5.9534,5.9939,5.9957,5.9957,5.9996,6.0344,6.0538,6.0538,6.0151,5.9957,5.9957,5.9532,5.93,5.9282,5.8892,5.8695,5.8673,5.8366,5.8372,5.8764,5.8129,5.812,5.8861,5.8273,5.807,5.8481,5.8119,5.7899,5.7899,5.7903,5.8059,5.8488,5.8527,5.8016,5.6831,5.6725,5.7049,5.779,5.7875,5.8187,5.8967,5.9069,5.9061,5.9061,5.9404,5.9668,5.9728,6.0137,6.0672,6.1417,6.1537,6.2005,6.3153,6.3247,6.3279,6.369,6.3874,6.4224,6.4638,6.4691,6.4512,6.4166,6.4397,6.4705,6.4705,6.4705,6.4705,6.4705,6.4705,6.4705,6.4666,6.4397,6.4012,6.3974,6.332,6.282,6.2743,6.2089,6.1627,6.1435,6.0781,6.0281,6.0127,5.9896,5.9511,5.6598,5.6618,5.6766,5.6918,5.707,5.7076,5.7439,5.8009,5.8013,5.7575,5.6924,5.6628,5.6442,5.6366,5.6195,5.6046,5.6012,5.6012,5.6128,5.6283,5.6283,5.6399,5.6592,5.6592,5.694,5.7577,5.777,5.86,5.9761,6.0074,6.048,6.1041,6.1118,6.1118,6.1118,6.1118,6.1118,6.1118,6.1311,6.1389,6.1389,6.0963,6.077,6.075,6.0205,5.9852,5.9869,5.9939,5.9879,5.9711,5.9804,5.9785,5.9646,5.9684,5.9703,5.9675,5.9699,5.9676,5.9682,5.9682,5.9682,5.9682,5.968,5.9678,5.9678,5.9655,5.9592,5.9435,5.9363,5.9441,5.9709,5.9736,5.9697,5.9736,6.0471,6.0964,6.0988,6.1673,6.2396,6.3,6.3125,6.3352,6.4001,6.4192,6.4255,6.4406,6.4728,6.5296,6.5866,6.5933,6.5615,6.5268,6.5499,6.5743,6.5897,6.582,6.5782,6.5897,6.582,6.5743,6.5667,6.5243,6.4974,6.482,6.4205,6.3705,6.3512,6.2935,6.2358,6.205,6.1473,6.105,6.0742,6.0704,6.0589,5.664,5.6717,5.7441,5.8207,5.8753,5.8831,5.885,5.8981,5.8897,5.887,5.8686,5.778,5.7377,5.7188,5.6482,5.6178,5.6089,5.6012,5.6437,5.7112,5.719,5.7577,5.8217,5.8294,5.8389,5.8562,5.922,5.9666,5.9996,6.0654,6.1002,6.1118,6.1118,6.1118,6.1118,6.1118,6.1118,6.1118,6.1892,6.2278,6.2336,6.2994,6.3418,6.3451,6.3339,6.3356,6.3208,6.3449,6.3093,6.2519,6.2406,6.2102,6.1563,6.1452,6.1465,6.1481,6.1447,6.1467,6.1445,6.1445,6.1484,6.1484,6.1442,6.1477,6.1477,6.1475,6.1121,6.0574,6.034,6.0646,6.133,6.1481,6.1442,6.1476,6.2122,6.2687,6.2687,6.3428,6.4014,6.4045,6.4012,6.4286,6.5044,6.5155,6.5319,6.5664,6.5799,6.5891,6.5997,6.6005,6.5958,6.5842,6.5909,6.5859,6.5897,6.5897,6.5897,6.5897,6.5897,6.5897,6.582,6.582,6.5782,6.5436,6.5051,6.4512,6.432,6.3782,6.2974,6.2551,6.2127,6.1704,6.105,6.0781,6.0704,5.7656,5.8164,5.8512,5.8819,5.9084,5.9109,5.9412,5.9831,5.9859,6.0098,6.0399,5.9571,5.8803,5.8192,5.7838,5.766,5.7611,5.7594,5.7749,5.8058,5.808,5.8255,5.8586,5.8606,5.8836,5.9374,5.9761,6.0131,6.0576,6.0963,6.1118,6.1118,6.1118,6.1118,6.1118,6.1118,6.1118,6.1118,6.2006,6.2722,6.3225,6.3573,6.3785,6.3783,6.3856,6.3851,6.3915,6.3962,6.3881,6.3614,6.3631,6.3506,6.3215,6.3227,6.3238,6.3243,6.3227,6.3238,6.3242,6.3242,6.3242,6.3242,6.3241,6.3241,6.3241,6.3241,6.3045,6.2733,6.2226,6.2302,6.3047,6.323,6.3259,6.3286,6.3545,6.3734,6.3734,6.3995,6.4379,6.4847,6.4942,6.523,6.5952,6.6061,6.615,6.6334,6.632,6.6284,6.6183,6.6097,6.6013,6.599,6.5982,6.5933,6.5923,6.5897,6.5897,6.5897,6.5897,6.5897,6.5897,6.5897,6.5897,6.5897,6.5551,6.532,6.5359,6.4705,6.3897,6.3358,6.2474,6.182,6.0973,6.0819,6.0781,5.8633,5.918,5.9414,5.9648,5.9799,5.979,6.0171,6.0705,6.0744,6.1108,6.1526,6.0954,6.0243,5.9542,5.905,5.8769,5.8706,5.869,5.8789,5.891,5.897,5.9068,5.9263,5.9263,5.963,6.0131,6.0247,6.0517,6.1041,6.1118,6.1118,6.1118,6.1118,6.1118,6.1079,6.1137,6.1137,6.1214,6.2043,6.2913,6.3705,6.4072,6.4265,6.4477,6.4566,6.4614,6.4658,6.4765,6.4715,6.4462,6.4521,6.4431,6.4253,6.4258,6.4306,6.4317,6.4294,6.4297,6.4297,6.4297,6.4297,6.4297,6.4297,6.4297,6.4297,6.4297,6.4414,6.457,6.4062,6.3945,6.418,6.4295,6.4289,6.4317,6.4466,6.4648,6.4648,6.4794,6.5256,6.5764,6.5875,6.6049,6.6516,6.6652,6.662,6.6864,6.6827,6.6838,6.6941,6.6979,6.69,6.6797,6.6791,6.653,6.6088,6.5947,6.5923,6.5923,6.5923,6.5897,6.5897,6.5897,6.5897,6.5897,6.5897,6.5859,6.5705,6.5205,6.4743,6.432,6.3358,6.205,6.1396,6.105,6.0819,5.918,5.9336,6.0039,6.0781,6.1562,6.1523,6.1555,6.1529,6.1603,6.1676,6.1705,6.1573,6.149,6.1237,5.9658,5.8828,5.8754,5.8816,5.9249,5.98,5.9878,6.0247,6.0963,6.1002,6.0963,6.0963,6.0925,6.1002,6.1118,6.1118,6.1118,6.1118,6.1118,6.1118,6.1137,6.1173,6.1191,6.1307,6.2,6.2887,6.3757,6.4637,6.5367,6.5988,6.6314,6.629,6.6386,6.6501,6.6176,6.5385,6.5418,6.5106,6.4438,6.4388,6.4434,6.4413,6.4375,6.4375,6.4414,6.4453,6.4453,6.4414,6.4531,6.4375,6.457,6.457,6.4844,6.5469,6.5469,6.5156,6.4609,6.4648,6.4531,6.457,6.5102,6.5477,6.5551,6.6136,6.6678,6.6756,6.6756,6.685,6.6798,6.6722,6.7197,6.7645,6.7761,6.7899,6.8441,6.8661,6.8529,6.8472,6.8313,6.7972,6.6476,6.6367,6.6266,6.6343,6.6511,6.6115,6.5936,6.5897,6.5974,6.5999,6.6076,6.6115,6.5961,6.5667,6.5307,6.4653,6.3537,6.2459,6.2113,6.132,6.1089,6.0312,6.082,6.1094,6.1445,6.168,6.1719,6.1718,6.1713,6.169,6.172,6.1715,6.1687,6.1619,6.1586,6.0916,6.0526,6.042,6.0444,6.0554,6.0799,6.0768,6.0961,6.1169,6.1194,6.1157,6.1157,6.1118,6.1118,6.1118,6.1118,6.1118,6.1175,6.1134,6.1169,6.1208,6.1264,6.1281,6.132,6.1656,6.223,6.3138,6.3973,6.4883,6.5713,6.6283,6.6607,6.6657,6.6673,6.6555,6.6276,6.6382,6.6249,6.6028,6.5966,6.5974,6.5976,6.5937,6.5976,6.5976,6.5976,6.5976,6.5976,6.5976,6.5898,6.5937,6.5976,6.6094,6.6328,6.6445,6.625,6.6094,6.5976,6.5937,6.6015,6.625,6.6437,6.6468,6.6699,6.6895,6.6973,6.7277,6.7805,6.8183,6.8405,6.8539,6.871,6.8795,6.8903,6.8992,6.9065,6.9095,6.8989,6.8897,6.8665,6.8103,6.7741,6.7687,6.7687,6.7702,6.7663,6.7547,6.7432,6.7509,6.7316,6.7099,6.6714,6.6675,6.6097,6.5712,6.4956,6.38,6.3315,6.3045,6.2367,6.1997,6.1172,6.164,6.1719,6.1719,6.1719,6.1719,6.1719,6.1719,6.1709,6.1694,6.172,6.171,6.1693,6.1627,6.1603,6.1549,6.146,6.1434,6.1381,6.1345,6.132,6.132,6.1291,6.1281,6.1229,6.1232,6.1195,6.1175,6.1173,6.1152,6.1173,6.1253,6.1225,6.1252,6.1291,6.1306,6.1345,6.1345,6.1419,6.1966,6.3068,6.3702,6.4605,6.5717,6.6379,6.6691,6.6722,6.6711,6.6736,6.6805,6.6862,6.6883,6.6898,6.6911,6.6914,6.6914,6.6875,6.6914,6.6914,6.6914,6.6875,6.6914,6.6875,6.6914,6.6914,6.6914,6.6914,6.6914,6.7226,6.7344,6.7383,6.7539,6.75,6.7109,6.7148,6.7305,6.734,6.7572,6.7767,6.7885,6.8232,6.8769,6.923,6.9338,6.9471,6.9709,6.9731,6.9733,6.9952,7.0006,6.9967,6.9935,6.9982,6.9989,6.9783,6.9673,6.8854,6.8678,6.8574,6.8729,6.8845,6.8806,6.8745,6.859,6.8243,6.7779,6.7216,6.6537,6.592,6.5302,6.4717,6.4155,6.3823,6.3531,6.3107,6.1758,6.1875,6.1758,6.1914,6.1953,6.1875,6.1758,6.1836,6.1719,6.1711,6.169,6.172,6.1676,6.1671,6.1648,6.1619,6.1586,6.1528,6.1447,6.1419,6.1405,6.1366,6.1342,6.1274,6.1306,6.1286,6.131,6.1289,6.1297,6.1283,6.1291,6.1289,6.1297,6.1298,6.1342,6.1381,6.1419,6.1433,6.1525,6.2352,6.3865,6.413,6.4939,6.636,6.6689,6.6767,6.6711,6.6744,6.6798,6.6805,6.6862,6.6895,6.6914,6.6914,6.6914,6.6914,6.6914,6.6914,6.6914,6.6914,6.6914,6.6914,6.6914,6.6953,6.707,6.7031,6.707,6.7305,6.7773,6.8203,6.832,6.875,6.8633,6.7383,6.7773,6.8164,6.832,6.8906,6.9453,6.9336,6.9375,6.9414,6.9484,6.9706,7.0006,7.0543,7.0681,7.0809,7.1321,7.1419,7.1711,7.1665,7.1317,7.1043,7.1364,7.1513,7.0365,6.9517,6.9285,6.9283,6.9458,6.9497,6.9574,6.9458,6.9167,6.8643,6.748,6.6861,6.6432,6.5853,6.5324,6.4977,6.4762,6.447,6.3946,6.3476,6.3515,6.3476,6.3476,6.3398,6.2851,6.2617,6.2539,6.1992,6.1719,6.1715,6.1707,6.1694,6.1681,6.1671,6.1666,6.166,6.158,6.151,6.146,6.1486,6.1447,6.1434,6.1394,6.1337,6.1297,6.1303,6.1297,6.1337,6.1327,6.1322,6.1336,6.1352,6.1383,6.1447,6.1447,6.146,6.1534,6.2074,6.2728,6.3379,6.445,6.5371,6.5854,6.6486,6.6805,6.6811,6.6805,6.6811,6.6862,6.6873,6.6895,6.6914,6.6914,6.6914,6.6914,6.6914,6.6914,6.6914,6.6914,6.6914,6.6914,6.6914,6.7226,6.7695,6.7812,6.8047,6.8476,6.8906,6.9101,6.9101,6.9219,6.918,6.875,6.8906,6.9062,6.914,6.9336,6.9687,7.0195,7.0273,7.0547,7.1015,7.1133,7.1163,7.1386,7.1529,7.1702,7.1845,7.1909,7.1893,7.1876,7.1848,7.1806,7.1782,7.1758,7.1173,7.0557,7.0338,7.0132,7.0231,7.0308,7.0347,7.0213,6.998,6.9284,6.8123,6.7271,6.6826,6.6477,6.5993,6.5819,6.5758,6.5389,6.4848,6.4297,6.4297,6.4297,6.4297,6.4258,6.3672,6.3476,6.3398,6.289,6.2656,6.2656,6.2302,6.218,6.2094,6.1854,6.1725,6.1715,6.166,6.1627,6.1568,6.1534,6.1523,6.1507,6.1447,6.1419,6.1399,6.1384,6.1391,6.1369,6.1369,6.1419,6.1415,6.1434,6.1468,6.1539,6.185,6.2016,6.2143,6.2873,6.3514,6.4006,6.4911,6.5666,6.6037,6.6556,6.6834,6.6912,6.6862,6.6862,6.6917,6.6891,6.6906,6.6914,6.6914,6.6914,6.6914,6.6914,6.6914,6.6914,6.7226,6.7383,6.7422,6.7656,6.8047,6.8555,6.8672,6.8945,6.9297,6.9726,6.9922,6.9922,7.0234,7.0351,7.043,7.0078,7.0078,7.0234,7.0351,7.0586,7.1055,7.1172,7.1484,7.1836,7.1992,7.1992,7.1988,7.1981,7.201,7.2002,7.1953,7.1943,7.193,7.1909,7.1885,7.1867,7.1819,7.1848,7.165,7.1485,7.129,7.1262,7.1223,7.1262,7.1,7.0712,7.016,6.9079,6.8014,6.7376,6.701,6.6644,6.6338,6.6108,6.6109,6.5761,6.4453,6.4453,6.4453,6.457,6.457,6.4414,6.4375,6.4375,6.4219,6.4101,6.3984,6.3359,6.3086,6.289,6.2416,6.2055,6.1803,6.1881,6.1793,6.1699,6.1612,6.1578,6.1529,6.1479,6.1499,6.1472,6.1497,6.1473,6.1456,6.1468,6.1499,6.1525,6.1495,6.1578,6.1814,6.2477,6.2851,6.3054,6.3811,6.4645,6.5322,6.5601,6.5998,6.6756,6.6852,6.6891,6.6917,6.6878,6.6883,6.6887,6.6914,6.6914,6.6914,6.6914,6.6914,6.6914,6.6914,6.707,6.7187,6.7812,6.8242,6.832,6.8789,6.9453,6.9531,6.957,6.9648,6.9844,7.039,7.0781,7.0937,7.1328,7.1758,7.1836,7.1172,7.1133,7.1797,7.1836,7.1758,7.1836,7.1953,7.1992,7.1992,7.1992,7.1992,7.1992,7.1992,7.1989,7.1986,7.1978,7.1975,7.1967,7.1953,7.1943,7.1924,7.1901,7.1901,7.1893,7.1858,7.1838,7.1806,7.1806,7.1794,7.1536,7.1329,7.0745,7.0095,6.9031,6.8122,6.7602,6.7199,6.6703,6.6439,6.6406,6.6334,6.6211,6.6211,6.6211,6.6211,6.6094,6.5547,6.5234,6.5156,6.457,6.4414,6.4258,6.4062,6.3945,6.3945,6.3711,6.328,6.277,6.2644,6.224,6.1759,6.1666,6.1641,6.158,6.1547,6.1539,6.1511,6.1511,6.1518,6.1478,6.1517,6.152,6.1576,6.1627,6.1931,6.2479,6.2804,6.3265,6.3904,6.4684,6.5244,6.5619,6.6219,6.6614,6.6834,6.6883,6.6883,6.6878,6.6904,6.6911,6.6911,6.6914,6.6914,6.6914,6.6914,6.6914,6.7031,6.75,6.7851,6.8008,6.8672,6.9101,6.9101,6.9375,6.9687,7.0312,7.039,7.0664,7.1133,7.1562,7.1601,7.168,7.1836,7.1992,7.1992,7.1719,7.168,7.1914,7.1992,7.1992,7.1992,7.1992,7.1992,7.1992,7.1992,7.1992,7.1992,7.1992,7.1992,7.1992,7.1992,7.1992,7.1992,7.1984,7.1978,7.1967,7.1987,7.1982,7.1976,7.1963,7.1909,7.1885,7.1867,7.1858,7.1799,7.1672,7.126,7.0742,6.9991,6.92,6.8292,6.7774,6.7282,6.6736,6.6514,6.6485,6.7732,6.742,6.7422,6.7226,6.6875,6.6367,6.6133,6.6055,6.5625,6.539,6.5312,6.5,6.4844,6.4805,6.4453,6.4023,6.3594,6.3545,6.306,6.231,6.1871,6.171,6.1654,6.1595,6.1564,6.1559,6.1559,6.1556,6.1517,6.153,6.1541,6.1694,6.1985,6.246,6.2925,6.3773,6.4236,6.4882,6.5624,6.6092,6.6214,6.6614,6.682,6.6898,6.6901,6.6901,6.6904,6.6912,6.6914,6.6914,6.6914,6.6914,6.6914,6.6914,6.707,6.7383,6.793,6.832,6.8828,6.9531,6.9961,7.0039,7.0195,7.0703,7.1133,7.125,7.1562,7.1836,7.1992,7.1992,7.1992,7.1992,7.1992,7.1992,7.1992,7.1992,7.1992,7.1992,7.1992,7.1992,7.1992,7.1992,7.1992,7.1992,7.1992,7.1992,7.1992,7.1992,7.1992,7.1992,7.1992,7.1992,7.1992,7.1992,7.1992,7.1975,7.2002,7.2002,7.1997,7.1987,7.1937,7.1916,7.1909,7.194,7.1932,7.1768,7.1282,7.0688,6.986,6.9031,6.8447,6.7725,6.7081,6.6618,6.6594,6.8971,6.8232,6.8278,6.7851,6.7265,6.707,6.7031,6.7031,6.6797,6.6758,6.6601,6.6015,6.5742,6.5703,6.5156,6.457,6.4453,6.4443,6.3884,6.3178,6.2514,6.2162,6.1963,6.1715,6.1654,6.1595,6.1602,6.1602,6.1621,6.1593,6.1705,6.196,6.2623,6.311,6.3681,6.477,6.552,6.5801,6.6354,6.6703,6.6735,6.6856,6.6904,6.6914,6.6914,6.6914,6.6914,6.6914,6.6914,6.6914,6.6914,6.6914,6.6914,6.6914,6.7383,6.8086,6.8476,6.8984,6.957,7.0351,7.082,7.0937,7.1484,7.1992,7.1875,7.1836,7.1875,7.1992,7.1992,7.1992,7.1992,7.1992,7.1992,7.1992,7.1992,7.1992,7.1992,7.1992,7.1992,7.1992,7.1992,7.1992,7.1992,7.1992,7.1992,7.1992,7.1992,7.1992,7.1992,7.1992,7.1992,7.1992,7.1992,7.1992,7.1992,7.1989,7.1984,7.1978,7.1975,7.1971,7.2002,7.1953,7.1993,7.1987,7.1943,7.193,7.1792,7.1129,7.0419,6.9717,6.9085,6.8102,6.7196,6.6867,6.6683,6.9299,6.9103,6.9113,6.9046,6.8783,6.8203,6.793,6.7851,6.7226,6.6992,6.6875,6.668,6.6601,6.6562,6.625,6.6015,6.5351,6.5234,6.4842,6.4061,6.3905,6.332,6.2734,6.2136,6.1733,6.1676,6.1671,6.1671,6.1715,6.1837,6.2027,6.2691,6.3095,6.3699,6.4918,6.5333,6.598,6.6497,6.683,6.6875,6.6914,6.6914,6.6914,6.6914,6.6914,6.6914,6.6914,6.6914,6.6914,6.6914,6.6914,6.6914,6.6992,6.75,6.7969,6.8437,6.9492,7.0195,7.0547,7.1172,7.168,7.168,7.1797,7.1992,7.1992,7.1992,7.1992,7.1992,7.1992,7.1992,7.1992,7.1992,7.1992,7.1992,7.1992,7.1992,7.1992,7.1992,7.1992,7.1992,7.1992,7.1992,7.1992,7.1992,7.1992,7.1992,7.1992,7.1992,7.207,7.2109,7.2305,7.2461,7.2539,7.2617,7.2578,7.25,7.2341,7.2181,7.2103,7.1984,7.1978,7.1975,7.1975,7.1975,7.1975,7.1967,7.1953,7.1864,7.1195,7.0453,6.9634,6.8736,6.791,6.7351,6.6791,7.033,7.0024,6.9991,6.9767,6.9351,6.8932,6.8785,6.8594,6.789,6.75,6.7422,6.7109,6.6914,6.6914,6.6875,6.6562,6.6172,6.5742,6.5351,6.4844,6.4531,6.4023,6.3711,6.3084,6.2612,6.1941,6.169,6.1881,6.2201,6.2368,6.2794,6.3599,6.3974,6.4646,6.5586,6.5972,6.6437,6.675,6.6914,6.6914,6.6914,6.6914,6.6914,6.6914,6.6914,6.6914,6.6914,6.6914,6.6914,6.6914,6.6914,6.6914,6.7031,6.7734,6.832,6.8945,6.9883,7.0898,7.1328,7.1719,7.1953,7.1992,7.1992,7.1992,7.1992,7.1992,7.1992,7.1992,7.1992,7.1992,7.1992,7.1992,7.1992,7.1992,7.1992,7.1992,7.1992,7.1992,7.1992,7.1992,7.1992,7.1992,7.1992,7.1992,7.2031,7.207,7.207,7.2109,7.2734,7.2851,7.3125,7.3281,7.3359,7.3359,7.3281,7.3125,7.2812,7.2577,7.2303,7.2147,7.1989,7.1989,7.1989,7.1992,7.1992,7.1992,7.1984,7.1936,7.1733,7.0874,7.0015,6.9273,6.857,6.7898,6.7264,7.1503,7.0863,7.0876,7.0459,6.9835,6.9684,6.9589,6.9489,6.8748,6.8359,6.8242,6.7461,6.7226,6.7109,6.6953,6.6914,6.668,6.625,6.582,6.5742,6.5234,6.4805,6.4531,6.4296,6.367,6.2226,6.2297,6.2641,6.3041,6.328,6.367,6.448,6.5154,6.5546,6.5937,6.6445,6.6836,6.6875,6.6914,6.6914,6.6914,6.6914,6.6914,6.6914,6.6914,6.6914,6.6914,6.6914,6.6914,6.6914,6.6914,6.6992,6.7305,6.789,6.8633,6.9414,7.039,7.1211,7.1719,7.1953,7.1992,7.1992,7.1992,7.1992,7.1992,7.1992,7.1992,7.1992,7.1992,7.1992,7.1992,7.1992,7.1992,7.1992,7.1992,7.1992,7.1992,7.1992,7.1992,7.1992,7.1992,7.1992,7.1992,7.1992,7.207,7.2187,7.2226,7.2461,7.3125,7.3555,7.3828,7.3945,7.3945,7.3945,7.3906,7.3867,7.3555,7.332,7.293,7.2617,7.2383,7.2422,7.2461,7.207,7.1992,7.1992,7.1992,7.1988,7.1632,7.0968,7.0499,6.9914,6.9211,6.839,6.7835,7.1828,7.172,7.1698,7.1597,7.1384,7.0771,7.047,7.0358,6.9581,6.9208,6.9101,6.8359,6.7969,6.7851,6.7187,6.6953,6.6992,6.668,6.6562,6.6562,6.6289,6.6015,6.5469,6.5341,6.4821,6.4122,6.3866,6.3984,6.4023,6.4131,6.4565,6.5234,6.5583,6.5927,6.6468,6.6862,6.6906,6.6906,6.6906,6.6906,6.6908,6.6914,6.6914,6.6914,6.6914,6.6914,6.6914,6.6914,6.6914,6.6914,6.6914,6.7305,6.793,6.8672,6.9258,6.9765,7.089,7.178,7.1971,7.1978,7.1984,7.1984,7.1984,7.1984,7.1984,7.1984,7.1988,7.1992,7.1992,7.1992,7.1992,7.1992,7.1992,7.1992,7.1992,7.1992,7.1992,7.1992,7.207,7.2187,7.2109,7.2109,7.2226,7.2383,7.2617,7.289,7.3086,7.3476,7.418,7.4414,7.4531,7.4531,7.4492,7.4453,7.4453,7.4492,7.4375,7.4336,7.3984,7.3594,7.3359,7.3164,7.2969,7.2539,7.2148,7.1992,7.1992,7.1992,7.1875,7.1484,7.1055,7.0625,6.9922,6.9219,6.8555,7.1821,7.1856,7.1848,7.1867,7.1854,7.1526,7.1306,7.1206,7.0465,7.0089,6.9827,6.9244,6.8815,6.87,6.8433,6.8005,6.7536,6.7031,6.6914,6.6914,6.6875,6.6716,6.632,6.6297,6.6058,6.5707,6.5648,6.5348,6.4999,6.4981,6.5407,6.6075,6.627,6.6492,6.68,6.6887,6.6891,6.6891,6.6891,6.6891,6.6891,6.6901,6.6904,6.6906,6.6914,6.6914,6.6914,6.6908,6.6914,6.6992,6.7305,6.773,6.8394,6.9293,7.0072,7.0341,7.1268,7.1997,7.1987,7.1993,7.1982,7.1982,7.1987,7.1953,7.2002,7.2006,7.1975,7.1988,7.1992,7.1992,7.1992,7.1992,7.1992,7.1992,7.1992,7.1992,7.1992,7.1992,7.2226,7.2461,7.2344,7.2422,7.2734,7.293,7.3203,7.3515,7.3906,7.4492,7.5156,7.5273,7.5312,7.5586,7.5586,7.5586,7.5508,7.5312,7.5273,7.5234,7.5,7.4609,7.4297,7.4062,7.3515,7.2969,7.2617,7.2344,7.1992,7.1992,7.1992,7.1992,7.1601,7.1172,7.0664,7.0039,6.9375,7.1675,7.1732,7.177,7.1806,7.1838,7.1858,7.1862,7.178,7.1234,7.0922,7.0816,7.0074,6.9645,6.9611,6.939,6.8968,6.8307,6.7691,6.7578,6.7578,6.7578,6.7451,6.7429,6.742,6.742,6.7381,6.7073,6.6699,6.5969,6.5837,6.6253,6.6566,6.6839,6.6873,6.6878,6.6878,6.6873,6.6873,6.6873,6.6873,6.6873,6.6873,6.6873,6.6873,6.6904,6.6914,6.6914,6.7138,6.7238,6.7434,6.7906,6.8457,6.8804,6.9937,7.0753,7.1006,7.1651,7.1919,7.1976,7.1955,7.1987,7.1987,7.1932,7.1955,7.1969,7.1987,7.1997,7.1975,7.1992,7.1992,7.1992,7.1992,7.1992,7.1992,7.1992,7.2031,7.207,7.2265,7.2656,7.2734,7.2578,7.293,7.3476,7.3633,7.3945,7.4492,7.4883,7.5351,7.5937,7.6133,7.6289,7.6719,7.6875,7.6875,7.668,7.6289,7.6211,7.6133,7.5898,7.5547,7.5195,7.4883,7.4297,7.375,7.3359,7.3047,7.2539,7.2031,7.1992,7.1992,7.1992,7.1758,7.1289,7.0742,7.0117,7.1525,7.1542,7.1661,7.1743,7.1732,7.177,7.1838,7.1893,7.1729,7.1753,7.163,7.0933,7.0537,7.0387,6.9723,6.9416,6.9225,6.8956,6.8804,6.8765,6.8804,6.8839,6.8981,6.9098,6.8825,6.8669,6.82,6.7503,6.6887,6.6722,6.6639,6.6795,6.6834,6.6795,6.6834,6.6834,6.6795,6.6795,6.6795,6.6795,6.6795,6.6834,6.6834,6.6917,6.6961,6.7086,6.7253,6.7672,6.7976,6.8078,6.8786,6.9595,7.0278,7.0512,7.1129,7.155,7.1901,7.1948,7.1932,7.1924,7.1915,7.1915,7.1876,7.1893,7.1901,7.1969,7.1982,7.1987,7.1997,7.1975,7.199,7.1992,7.1992,7.1992,7.1992,7.1992,7.207,7.2617,7.3047,7.3633,7.3633,7.4062,7.457,7.4609,7.4726,7.5312,7.5859,7.6289,7.6601,7.6719,7.6797,7.707,7.7226,7.7226,7.7187,7.6914,7.6836,7.6836,7.6601,7.6328,7.6055,7.5664,7.5234,7.4726,7.4297,7.3672,7.2969,7.25,7.2148,7.1992,7.1992,7.1992,7.1914,7.1367,7.082,7.1317,7.1455,7.1547,7.1598,7.1614,7.169,7.1745,7.1806,7.1827,7.1858,7.1846,7.1558,7.1377,7.115,7.0492,7.0141,7.0035,6.9684,6.9411,6.9489,6.9489,6.945,6.9372,6.9411,6.9411,6.9411,6.9059,6.8786,6.8083,6.7264,6.6795,6.6873,6.6834,6.6795,6.699,6.6834,6.6795,6.6795,6.6795,6.6795,6.6795,6.6834,6.7068,6.7498,6.7565,6.7805,6.8234,6.858,6.8841,6.8983,6.9653,7.0192,7.0676,7.1057,7.1594,7.1749,7.1866,7.1887,7.1897,7.1877,7.1877,7.1827,7.1817,7.1778,7.1848,7.1924,7.1955,7.1937,7.1982,7.2002,7.1978,7.1986,7.1988,7.1988,7.1988,7.2066,7.2265,7.289,7.3437,7.4101,7.4765,7.5195,7.5508,7.5508,7.5625,7.6133,7.6484,7.6719,7.6953,7.7031,7.707,7.7148,7.7226,7.7226,7.7226,7.7109,7.707,7.7031,7.7031,7.6836,7.6797,7.6445,7.6015,7.5664,7.5312,7.4531,7.3594,7.3047,7.2773,7.2383,7.1992,7.2031,7.207,7.1914,7.1367,7.1154,7.1291,7.1397,7.1436,7.1474,7.162,7.1645,7.1651,7.1745,7.177,7.1833,7.1848,7.1885,7.1792,7.1292,7.0987,7.0961,7.0303,7.0074,7.0035,7.0035,7.0113,7.023,7.0152,7.0152,7.0035,6.9879,6.9684,6.9215,6.8435,6.7654,6.7459,6.7693,6.7615,6.7498,6.7615,6.7693,6.7693,6.7654,6.7615,6.761,6.7571,6.7877,6.8222,6.8483,6.871,6.9249,6.9662,6.9683,6.983,7.0463,7.0922,7.1048,7.17,7.2106,7.229,7.2432,7.2627,7.2458,7.2225,7.1862,7.1732,7.1732,7.1745,7.177,7.1856,7.1897,7.1854,7.1924,7.1976,7.1993,7.2006,7.201,7.1975,7.2014,7.2131,7.2422,7.3203,7.4101,7.4922,7.5586,7.625,7.6445,7.6367,7.6562,7.7031,7.7226,7.7226,7.7226,7.7226,7.7226,7.7226,7.7226,7.7226,7.7226,7.7226,7.7226,7.7226,7.7226,7.7187,7.707,7.6992,7.6719,7.6445,7.6172,7.5625,7.4805,7.4101,7.3398,7.2969,7.2539,7.2265,7.2148,7.207,7.1914,7.1005,7.1056,7.1247,7.1313,7.1334,7.1455,7.1529,7.152,7.1575,7.1669,7.1738,7.1835,7.1866,7.1858,7.1759,7.1698,7.1784,7.1741,7.1513,7.1513,7.1714,7.1468,7.139,7.139,7.1513,7.1441,7.0972,7.0621,7.0426,6.9757,6.9294,6.9182,6.8864,6.9059,6.902,6.8747,6.8825,6.8825,6.882,6.8892,6.8925,6.8951,6.9061,6.9155,6.9233,6.9272,6.9362,7.0094,7.0502,7.0481,7.126,7.1665,7.1771,7.2457,7.2857,7.2912,7.3251,7.3484,7.3385,7.2656,7.1879,7.1708,7.184,7.2049,7.2157,7.1887,7.1817,7.1916,7.1993,7.1948,7.1969,7.1987,7.1987,7.1987,7.2065,7.2378,7.2846,7.3789,7.4687,7.5625,7.6319,7.6788,7.6944,7.679,7.6757,7.7148,7.7226,7.7226,7.7226,7.7226,7.7226,7.7226,7.7226,7.7226,7.7226,7.7226,7.7226,7.7226,7.7226,7.7226,7.7187,7.7148,7.7109,7.7031,7.6719,7.6367,7.6055,7.5351,7.457,7.3672,7.3125,7.293,7.2461,7.2148,7.207,7.0952,7.0952,7.1081,7.1154,7.1178,7.1313,7.1376,7.1397,7.1493,7.1586,7.1636,7.1753,7.1784,7.1833,7.1856,7.1838,7.1858,7.1854,7.187,7.1909,7.1893,7.1924,7.1915,7.1893,7.1862,7.1858,7.1558,7.1441,7.1363,7.0909,7.1,7.0732,6.9991,6.945,6.9372,6.9561,6.9522,6.9477,6.9432,6.9426,6.9341,6.9366,6.9584,7.0084,7.0045,7.0385,7.0793,7.1069,7.12,7.1446,7.2054,7.2322,7.2508,7.3229,7.3583,7.3607,7.3976,7.4111,7.4072,7.3471,7.3121,7.3121,7.3121,7.3079,7.2957,7.2764,7.2549,7.2432,7.2156,7.2121,7.1963,7.1979,7.194,7.1948,7.2151,7.2541,7.3243,7.4187,7.5046,7.593,7.6488,7.7,7.7083,7.7083,7.7103,7.7187,7.7187,7.7226,7.7226,7.7226,7.7226,7.7226,7.7226,7.7226,7.7226,7.7226,7.7226,7.7226,7.7226,7.7226,7.7226,7.7187,7.7187,7.7187,7.7226,7.6875,7.6601,7.6406,7.5703,7.4531,7.3984,7.375,7.3164,7.25,7.2305,7.1668,7.1668,7.1722,7.1467,7.112,7.1201,7.1247,7.1269,7.1376,7.1475,7.1568,7.1642,7.1669,7.1704,7.1732,7.1745,7.1782,7.1788,7.1858,7.1858,7.1848,7.1844,7.1883,7.1866,7.1876,7.1884,7.1891,7.1852,7.1831,7.1885,7.1776,7.1363,7.0837,7.0369,7.0252,7.0135,7.0135,7.0121,7.0114,7.0107,7.013,7.016,7.0289,7.0898,7.0874,7.1044,7.1523,7.1777,7.2002,7.2241,7.2634,7.3045,7.3394,7.38,7.4224,7.4337,7.4447,7.4541,7.4525,7.4104,7.3992,7.378,7.38,7.3879,7.3917,7.3583,7.334,7.3299,7.286,7.251,7.2518,7.2578,7.2433,7.2452,7.2452,7.2842,7.367,7.4528,7.5347,7.6184,7.663,7.7036,7.7089,7.7101,7.7133,7.7184,7.7187,7.7226,7.7226,7.7226,7.7226,7.7226,7.7226,7.7226,7.7226,7.7226,7.7226,7.7226,7.7226,7.7226,7.7226,7.7226,7.7226,7.7226,7.7226,7.7226,7.707,7.6797,7.6133,7.5273,7.4765,7.4297,7.4062,7.3437,7.2969,7.336,7.3437,7.336,7.2492,7.1236,7.112,7.113,7.1139,7.1269,7.139,7.1451,7.1494,7.149,7.1525,7.1598,7.163,7.1675,7.1718,7.1719,7.1716,7.1755,7.177,7.1797,7.1809,7.1827,7.1876,7.1893,7.1876,7.1877,7.1866,7.1866,7.1877,7.1525,7.1464,7.1776,7.1815,7.1815,7.1776,7.1659,7.1555,7.1448,7.1349,7.1432,7.142,7.1418,7.1505,7.187,7.2284,7.2502,7.2773,7.345,7.3773,7.386,7.4572,7.4949,7.4938,7.5607,7.5954,7.5993,7.4702,7.4247,7.427,7.4447,7.4397,7.4147,7.4014,7.4109,7.4101,7.3884,7.3907,7.3794,7.351,7.3172,7.3041,7.3041,7.3391,7.4209,7.4755,7.5573,7.6247,7.6671,7.7014,7.7034,7.7067,7.7122,7.7181,7.7187,7.7226,7.7187,7.7226,7.7226,7.7226,7.7226,7.7226,7.7226,7.7226,7.7226,7.7226,7.7226,7.7226,7.7226,7.7226,7.7226,7.7226,7.7226,7.7226,7.7226,7.7187,7.6523,7.5937,7.5156,7.4687,7.457,7.4336,7.3789,7.3514,7.3514,7.3514,7.3168,7.2608,7.2122,7.1596,7.112,7.113,7.1255,7.1279,7.1334,7.1396,7.1436,7.1474,7.155,7.1568,7.1575,7.1559,7.1598,7.1651,7.1714,7.1738,7.1729,7.1745,7.1749,7.176,7.176,7.1749,7.177,7.1743,7.1778,7.1794,7.1788,7.1837,7.1893,7.1885,7.1867,7.1819,7.1788,7.1782,7.1745,7.1704,7.1645,7.1675,7.1857,7.225,7.2734,7.2999,7.3396,7.4123,7.4499,7.4604,7.526,7.5658,7.5709,7.6133,7.6118,7.6106,7.5568,7.5478,7.5388,7.5321,7.533,7.5531,7.5017,7.4984,7.479,7.4499,7.4399,7.3967,7.3945,7.3767,7.376,7.3838,7.4266,7.4849,7.5137,7.5681,7.6319,7.6816,7.6885,7.6933,7.6965,7.7028,7.7068,7.7087,7.7142,7.7148,7.7187,7.7226,7.7226,7.7226,7.7226,7.7226,7.7187,7.7226,7.7226,7.7226,7.7226,7.7226,7.7226,7.7226,7.7226,7.7226,7.7226,7.7226,7.7187,7.7109,7.6601,7.5898,7.5469,7.543,7.5039,7.4414,7.4361,7.4361,7.4361,7.4168,7.3822,7.307,7.2365,7.1929,7.1673,7.1557,7.1582,7.141,7.1247,7.1291,7.1313,7.1355,7.1376,7.1417,7.1469,7.1452,7.1589,7.1607,7.1624,7.1642,7.1606,7.1615,7.1653,7.1653,7.1654,7.1675,7.1651,7.1693,7.1651,7.1718,7.1782,7.1806,7.1827,7.1806,7.1743,7.1758,7.1718,7.1699,7.1808,7.1935,7.2075,7.2269,7.2844,7.328,7.3558,7.4179,7.4706,7.5258,7.549,7.5694,7.6118,7.609,7.609,7.6101,7.6024,7.6052,7.5925,7.5964,7.6198,7.6276,7.6287,7.5794,7.5647,7.5459,7.4978,7.4883,7.4808,7.479,7.4441,7.4441,7.4577,7.4965,7.5139,7.5449,7.5895,7.6496,7.6704,7.6747,7.6805,7.6846,7.6905,7.6956,7.6989,7.7023,7.7083,7.7137,7.7184,7.7187,7.7187,7.7148,7.7187,7.7187,7.7187,7.7226,7.7187,7.7187,7.7226,7.7226,7.7226,7.7226,7.7226,7.7226,7.7226,7.7187,7.7109,7.7031,7.668,7.6406,7.6367,7.5898,7.5273,7.5976,7.5976,7.5976,7.5438,7.4707,7.3976,7.3581,7.3482,7.27,7.2365,7.2377,7.1634,7.1439,7.1221,7.1221,7.1231,7.1224,7.1269,7.1317,7.1378,7.1474,7.1474,7.1494,7.1494,7.1529,7.152,7.1568,7.1606,7.1598,7.1568,7.1603,7.1614,7.1586,7.1642,7.1653,7.1675,7.1704,7.1718,7.1665,7.1753,7.1863,7.1814,7.2189,7.2463,7.277,7.3093,7.3659,7.4204,7.4591,7.5077,7.5551,7.5841,7.5967,7.5976,7.5976,7.5976,7.6015,7.6015,7.6044,7.6044,7.6044,7.6034,7.6118,7.6172,7.616,7.6096,7.603,7.6055,7.5847,7.6026,7.6127,7.5624,7.5121,7.5144,7.5188,7.5343,7.5443,7.5774,7.6221,7.6534,7.6575,7.6632,7.6687,7.6754,7.6777,7.6819,7.6882,7.6946,7.6989,7.7101,7.7122,7.7109,7.7109,7.7109,7.71,7.7144,7.7148,7.7187,7.7187,7.7187,7.7187,7.7226,7.7226,7.7226,7.7226,7.7226,7.7226,7.7226,7.7187,7.707,7.6992,7.6953,7.6758,7.6836,7.6445,7.5976,7.5976,7.5976,7.5861,7.563,7.5361,7.463,7.3581,7.3234,7.3196,7.3157,7.3008,7.2418,7.1994,7.2007,7.1684,7.1362,7.1154,7.1147,7.1231,7.1291,7.1286,7.1347,7.1369,7.1396,7.1436,7.1472,7.1511,7.1455,7.1472,7.1474,7.1513,7.1474,7.1513,7.1494,7.1571,7.1642,7.1675,7.1675,7.2008,7.2305,7.2424,7.285,7.327,7.3435,7.3867,7.4462,7.4719,7.5061,7.5649,7.5851,7.5976,7.5976,7.5976,7.5976,7.5976,7.5976,7.5976,7.5976,7.5976,7.5976,7.5976,7.6034,7.6101,7.6118,7.6145,7.6198,7.6198,7.6198,7.625,7.625,7.5903,7.5633,7.5658,7.5683,7.5746,7.5823,7.5963,7.6374,7.6397,7.6405,7.6471,7.6573,7.6594,7.663,7.6682,7.6731,7.6819,7.6944,7.7004,7.7075,7.7068,7.7078,7.7078,7.7078,7.7122,7.7133,7.7109,7.7142,7.7145,7.7187,7.7187,7.7187,7.7226,7.7226,7.7226,7.7226,7.7226,7.7226,7.7226,7.7148,7.7187,7.7226,7.7187,7.7187,7.5976,7.5976,7.5976,7.5976,7.5976,7.5976,7.5361,7.4514,7.413,7.3976,7.3937,7.3647,7.3262,7.2839,7.2777,7.2392,7.1647,7.1609,7.1505,7.1067,7.1163,7.1169,7.1183,7.1246,7.1286,7.1296,7.1299,7.1299,7.1291,7.1291,7.1296,7.1337,7.133,7.1363,7.144,7.1678,7.1936,7.1959,7.2076,7.2483,7.287,7.3158,7.3596,7.4084,7.4204,7.4591,7.5127,7.5253,7.5543,7.5938,7.5976,7.5976,7.5976,7.5976,7.5976,7.5976,7.5976,7.5976,7.5976,7.5976,7.5976,7.5976,7.5976,7.6044,7.6072,7.6062,7.609,7.609,7.6118,7.6118,7.6118,7.6118,7.6118,7.6079,7.6106,7.6106,7.6133,7.616,7.6198,7.6225,7.6276,7.6326,7.6397,7.645,7.6514,7.6555,7.6614,7.6682,7.6805,7.6944,7.7024,7.7059,7.7082,7.7095,7.7089,7.7095,7.7112,7.7122,7.7122,7.713,7.7181,7.7187,7.7148,7.7187,7.7226,7.7226,7.7187,7.7226,7.7226,7.7226,7.7184,7.7187,7.7187,7.7187,7.7187,7.6245,7.6245,7.6207,7.6245,7.613,7.6169,7.6053,7.5899,7.513,7.4793,7.4678,7.4091,7.3783,7.363,7.3581,7.3119,7.2569,7.2365,7.198,7.1156,7.1364,7.1339,7.1106,7.1079,7.112,7.1124,7.1153,7.117,7.1131,7.1147,7.1124,7.1115,7.1332,7.1414,7.1582,7.2249,7.2669,7.2925,7.3054,7.333,7.369,7.3953,7.42,7.4848,7.5027,7.5243,7.5793,7.5995,7.5976,7.5976,7.5976,7.5976,7.5976,7.5976,7.5976,7.5976,7.5976,7.5976,7.5976,7.5976,7.5976,7.5976,7.5976,7.6015,7.6044,7.6005,7.6034,7.6034,7.6034,7.6034,7.6034,7.6034,7.6034,7.6034,7.6062,7.609,7.609,7.609,7.6118,7.6145,7.6172,7.6225,7.625,7.6311,7.6359,7.6382,7.6471,7.6575,7.6687,7.683,7.696,7.6994,7.7034,7.7059,7.7075,7.7082,7.7095,7.7101,7.7101,7.7107,7.7126,7.7133,7.7109,7.7148,7.7187,7.7187,7.7187,7.7187,7.7184,7.7176,7.7169,7.7161,7.7169,7.7181,7.7187,7.79,7.79,7.79,7.7553,7.7015,7.6976,7.663,7.6015,7.5822,7.5707,7.563,7.5438,7.4976,7.4476,7.4437,7.3976,7.3322,7.3157,7.2657,7.2157,7.1941,7.171,7.1129,7.1206,7.1106,7.1043,7.1081,7.1067,7.1056,7.103,7.1094,7.1207,7.1557,7.1929,7.2146,7.2957,7.3549,7.3896,7.4179,7.4292,7.4552,7.4719,7.4964,7.5528,7.5782,7.5754,7.6034,7.6005,7.5976,7.5976,7.5976,7.5976,7.5976,7.5976,7.5976,7.5976,7.5976,7.5976,7.5976,7.5976,7.5976,7.5976,7.5976,7.5976,7.5976,7.5976,7.5976,7.5976,7.5976,7.5976,7.5976,7.5976,7.5976,7.6015,7.6044,7.6005,7.6005,7.6034,7.6034,7.6062,7.609,7.6118,7.6118,7.6172,7.6225,7.6301,7.6374,7.645,7.6493,7.6632,7.6801,7.691,7.6999,7.7043,7.7034,7.7059,7.7075,7.7089,7.7089,7.7095,7.7101,7.7112,7.7126,7.7126,7.7148,7.7137,7.7139,7.7142,7.7133,7.7117,7.7146,7.714,7.7101,7.7117,7.713,7.8477,7.8477,7.8477,7.8246,7.79,7.7823,7.7545,7.716,7.7092,7.6899,7.6506,7.6169,7.5707,7.5284,7.5284,7.4822,7.4168,7.4053,7.3476,7.3004,7.2734,7.2542,7.2157,7.1668,7.1618,7.153,7.1133,7.1017,7.1052,7.1041,7.1094,7.1544,7.2172,7.258,7.2909,7.3724,7.4357,7.4742,7.5154,7.5308,7.5347,7.5424,7.554,7.6024,7.6034,7.6044,7.6005,7.5976,7.5976,7.5976,7.5976,7.5976,7.5976,7.5976,7.5976,7.5976,7.5976,7.5976,7.5976,7.5976,7.5976,7.5976,7.5976,7.5976,7.5976,7.5976,7.5976,7.5976,7.5976,7.5976,7.5976,7.5976,7.5976,7.5976,7.5976,7.5976,7.6005,7.6005,7.6005,7.6005,7.6034,7.6072,7.6072,7.6101,7.6118,7.6172,7.6276,7.635,7.6421,7.6427,7.6614,7.6754,7.6855,7.6975,7.7033,7.7024,7.7043,7.7059,7.7075,7.7089,7.7095,7.7101,7.7107,7.7107,7.7107,7.7101,7.7107,7.7073,7.7107,7.7114,7.7106,7.7106,7.7075,7.7082,7.7056,7.8861,7.8823,7.8861,7.8746,7.8669,7.8669,7.8584,7.8459,7.8468,7.8054,7.7468,7.6707,7.6284,7.6015,7.5976,7.5438,7.5091,7.4899,7.4361,7.3822,7.3658,7.3322,7.3014,7.2706,7.2503,7.208,7.1618,7.1349,7.1245,7.1283,7.1591,7.2118,7.2552,7.2909,7.3649,7.437,7.5005,7.5197,7.5505,7.589,7.5967,7.6034,7.5995,7.6005,7.5976,7.5976,7.5976,7.5976,7.5976,7.5976,7.5976,7.5976,7.5976,7.5976,7.5976,7.5976,7.5976,7.5976,7.5976,7.5976,7.5976,7.5976,7.5976,7.5976,7.5976,7.5976,7.5976,7.5976,7.5976,7.5976,7.5976,7.5976,7.5976,7.5976,7.5976,7.5976,7.5976,7.5976,7.5976,7.5976,7.6015,7.6015,7.6015,7.6015,7.6044,7.6062,7.6145,7.6225,7.6301,7.635,7.645,7.6575,7.6651,7.677,7.6923,7.6983,7.7004,7.7034,7.7051,7.7075,7.7089,7.7043,7.7043,7.7089,7.7082,7.7075,7.7059,7.7059,7.7082,7.7063,7.7024,7.7024,7.6985,7.6995,7.7004,8.0592,8.0592,8.0592,8.0208,7.9631,7.9554,7.9169,7.8584,7.8554,7.84,7.8254,7.8054,7.74,7.6015,7.5976,7.5745,7.563,7.5592,7.5139,7.4562,7.4514,7.4063,7.3716,7.3486,7.3322,7.2888,7.2349,7.2041,7.1937,7.1948,7.2052,7.2349,7.3783,7.4216,7.4486,7.5139,7.563,7.5707,7.5707,7.5976,7.5976,7.6005,7.6005,7.5976,7.5976,7.5976,7.5976,7.5976,7.5976,7.5976,7.5976,7.5976,7.5976,7.5976,7.5976,7.5976,7.5976,7.5976,7.5976,7.5976,7.5976,7.5976,7.5976,7.5976,7.5976,7.5976,7.5976,7.5976,7.5976,7.5976,7.5976,7.5976,7.5976,7.5976,7.5976,7.5976,7.5976,7.5976,7.5976,7.5976,7.5976,7.6015,7.6015,7.6015,7.6015,7.6034,7.6062,7.6145,7.6198,7.625,7.6262,7.6382,7.6471,7.6614,7.6793,7.691,7.696,7.6983,7.7014,7.7043,7.7059,7.7012,7.702,7.7012,7.7012,7.7043,7.7024,7.6994,7.6983,7.6972,7.6933,7.6933,7.6933,7.6933,7.6921]},{"header":{"parameterUnit":"m.s-1","parameterCategory":1,"la1":31.0,"la2":29.5877,"lo1":-88.7671,"lo2":-86.6584,"dx":0.0162,"dy":0.0185,"nx":115,"ny":88,"refTime":"2022-12-13T18:00:00:Z","depth":0,"parameterNumber":3,"parameterNumberName":"V-component_of_WINDS"},"data":[0.0,0.0,0.0,0.0,0.0,0.0,0.0,0.0,0.0,0.0,0.0,0.0,0.0,0.0,0.0,0.0,0.0,0.0,0.0,0.0,0.0,0.0,0.0,0.0,0.0,0.0,0.0,0.0,0.0,0.0,0.0,0.0,0.0,0.0,0.0,0.0,0.0,0.0,0.0,0.0,0.0,0.0,0.0,0.0,0.0,0.0,0.0,0.0,0.0,0.0,0.0,0.0,0.0,0.0,0.0,0.0,0.0,0.0,0.0,0.0,0.0,0.0,0.0,0.0,0.0,0.0,0.0,0.0,0.0,0.0,0.0,0.0,0.0,0.0,0.0,0.0,0.0,0.0,0.0,0.0,0.0,0.0,0.0,0.0,0.0,0.0,0.0,0.0,0.0,0.0,0.0,0.0,0.0,0.0,0.0,0.0,0.0,0.0,0.0,0.0,0.0,0.0,0.0,0.0,0.0,0.0,0.0,0.0,0.0,0.0,0.0,0.0,0.0,0.0,0.0,0.0,0.0,0.0,0.0,0.0,0.0,0.0,0.0,0.0,0.0,0.0,0.0,0.0,0.0,0.0,0.0,0.0,0.0,0.0,0.0,0.0,0.0,0.0,0.0,0.0,0.0,0.0,0.0,0.0,0.0,0.0,0.0,0.0,0.0,0.0,0.0,0.0,0.0,0.0,0.0,0.0,0.0,0.0,0.0,0.0,0.0,0.0,0.0,0.0,0.0,0.0,0.0,0.0,0.0,0.0,0.0,0.0,0.0,0.0,0.0,0.0,0.0,0.0,0.0,0.0,0.0,0.0,0.0,0.0,0.0,0.0,0.0,0.0,0.0,0.0,0.0,0.0,0.0,0.0,0.0,0.0,0.0,0.0,0.0,0.0,0.0,0.0,0.0,0.0,0.0,0.0,0.0,0.0,0.0,0.0,0.0,0.0,0.0,0.0,0.0,0.0,0.0,0.0,0.0,0.0,0.0,0.0,0.0,0.0,0.0,0.0,0.0,0.0,0.0,0.0,0.0,0.0,0.0,0.0,0.0,0.0,0.0,0.0,0.0,0.0,0.0,0.0,0.0,0.0,0.0,0.0,0.0,0.0,0.0,0.0,0.0,0.0,0.0,0.0,0.0,0.0,0.0,0.0,0.0,0.0,0.0,0.0,0.0,0.0,0.0,0.0,0.0,0.0,0.0,0.0,0.0,0.0,0.0,0.0,0.0,0.0,0.0,0.0,0.0,0.0,0.0,0.0,0.0,0.0,0.0,0.0,0.0,0.0,0.0,0.0,0.0,0.0,0.0,0.0,0.0,0.0,0.0,0.0,0.0,0.0,0.0,0.0,0.0,0.0,0.0,0.0,0.0,0.0,0.0,0.0,0.0,0.0,0.0,0.0,0.0,0.0,0.0,0.0,0.0,0.0,0.0,0.0,0.0,0.0,0.0,0.0,0.0,0.0,0.0,0.0,0.0,0.0,0.0,0.0,0.0,0.0,0.0,0.0,0.0,0.0,0.0,0.0,0.0,0.0,0.0,0.0,0.0,0.0,0.0,0.0,0.0,0.0,0.0,0.0,0.0,0.0,0.0,0.0,0.0,0.0,0.0,0.0,0.0,0.0,0.0,0.0,0.0,0.0,0.0,0.0,0.0,0.0,0.0,0.0,0.0,0.0,0.0,0.0,0.0,0.0,0.0,0.0,0.0,0.0,0.0,0.0,0.0,0.0,0.0,0.0,0.0,0.0,0.0,0.0,0.0,0.0,0.0,0.0,0.0,0.0,0.0,0.0,0.0,0.0,0.0,0.0,0.0,0.0,0.0,0.0,0.0,0.0,0.0,0.0,0.0,0.0,0.0,0.0,0.0,0.0,0.0,0.0,0.0,0.0,0.0,0.0,0.0,0.0,0.0,0.0,0.0,0.0,0.0,0.0,0.0,0.0,0.0,0.0,0.0,0.0,0.0,0.0,0.0,0.0,0.0,0.0,0.0,0.0,0.0,0.0,0.0,0.0,0.0,0.0,0.0,0.0,0.0,0.0,0.0,0.0,0.0,0.0,0.0,0.0,0.0,0.0,0.0,0.0,0.0,0.0,0.0,0.0,0.0,0.0,0.0,0.0,0.0,0.0,0.0,0.0,0.0,0.0,0.0,0.0,0.0,0.0,0.0,0.0,0.0,0.0,0.0,0.0,0.0,0.0,0.0,0.0,0.0,0.0,0.0,0.0,0.0,0.0,0.0,0.0,0.0,0.0,0.0,0.0,0.0,0.0,0.0,0.0,0.0,0.0,0.0,0.0,0.0,0.0,0.0,0.0,0.0,0.0,0.0,0.0,0.0,0.0,0.0,0.0,0.0,0.0,0.0,0.0,0.0,0.0,0.0,0.0,0.0,0.0,0.0,0.0,0.0,0.0,0.0,0.0,0.0,0.0,0.0,0.0,0.0,0.0,0.0,0.0,0.0,0.0,0.0,0.0,0.0,0.0,0.0,0.0,0.0,0.0,0.0,0.0,0.0,0.0,0.0,0.0,0.0,0.0,0.0,0.0,0.0,0.0,0.0,0.0,0.0,0.0,0.0,0.0,0.0,0.0,0.0,0.0,0.0,0.0,0.0,0.0,0.0,0.0,0.0,0.0,0.0,0.0,0.0,0.0,0.0,0.0,0.0,0.0,0.0,0.0,0.0,0.0,0.0,0.0,0.0,0.0,0.0,0.0,0.0,0.0,0.0,0.0,0.0,0.0,0.0,0.0,0.0,0.0,0.0,0.0,0.0,0.0,0.0,0.0,0.0,0.0,0.0,0.0,0.0,0.0,0.0,0.0,0.0,0.0,0.0,0.0,0.0,0.0,0.0,0.0,0.0,0.0,0.0,0.0,0.0,0.0,0.0,0.0,0.0,0.0,0.0,0.0,0.0,0.0,0.0,0.0,0.0,0.0,0.0,0.0,0.0,0.0,0.0,0.0,0.0,0.0,0.0,0.0,0.0,0.0,0.0,0.0,0.0,0.0,0.0,0.0,0.0,0.0,0.0,0.0,0.0,0.0,0.0,0.0,0.0,0.0,0.0,0.0,0.0,0.0,0.0,0.0,0.0,0.0,0.0,0.0,0.0,0.0,0.0,0.0,0.0,0.0,0.0,0.0,0.0,0.0,0.0,0.0,0.0,0.0,0.0,0.0,0.0,0.0,0.0,0.0,0.0,0.0,0.0,0.0,0.0,0.0,0.0,0.0,0.0,0.0,0.0,0.0,0.0,0.0,0.0,0.0,0.0,0.0,0.0,0.0,0.0,0.0,0.0,0.0,0.0,0.0,0.0,0.0,0.0,0.0,0.0,0.0,0.0,0.0,0.0,0.0,0.0,0.0,0.0,0.0,0.0,0.0,0.0,0.0,0.0,0.0,0.0,0.0,0.0,0.0,0.0,0.0,0.0,0.0,0.0,0.0,0.0,0.0,0.0,0.0,0.0,0.0,0.0,0.0,0.0,0.0,0.0,0.0,0.0,0.0,0.0,0.0,0.0,0.0,0.0,0.0,0.0,0.0,0.0,0.0,0.0,0.0,0.0,0.0,0.0,0.0,0.0,0.0,0.0,0.0,0.0,0.0,0.0,0.0,0.0,0.0,0.0,0.0,0.0,0.0,0.0,0.0,0.0,0.0,0.0,0.0,0.0,0.0,0.0,0.0,0.0,0.0,0.0,0.0,0.0,0.0,0.0,0.0,0.0,0.0,0.0,0.0,0.0,0.0,0.0,0.0,0.0,0.0,0.0,0.0,0.0,0.0,0.0,0.0,0.0,0.0,0.0,0.0,0.0,0.0,0.0,0.0,0.0,0.0,0.0,0.0,0.0,0.0,0.0,0.0,0.0,0.0,0.0,0.0,0.0,0.0,0.0,0.0,0.0,0.0,0.0,0.0,0.0,0.0,0.0,0.0,0.0,0.0,0.0,0.0,0.0,0.0,0.0,0.0,0.0,0.0,0.0,0.0,0.0,0.0,0.0,0.0,0.0,0.0,0.0,0.0,0.0,0.0,0.0,0.0,0.0,0.0,0.0,0.0,0.0,0.0,0.0,0.0,0.0,0.0,0.0,0.0,0.0,0.0,0.0,0.0,0.0,0.0,0.0,0.0,0.0,0.0,0.0,0.0,0.0,0.0,0.0,0.0,0.0,0.0,0.0,0.0,0.0,0.0,0.0,0.0,0.0,0.0,0.0,0.0,0.0,0.0,0.0,0.0,0.0,0.0,0.0,0.0,0.0,0.0,0.0,0.0,0.0,0.0,-0.9888,0.0,0.0,0.0,-0.9991,0.0,0.0,0.0,0.0,0.0,0.0,0.0,0.0,0.0,0.0,0.0,0.0,0.0,0.0,0.0,0.0,0.0,0.0,0.0,0.0,0.0,0.0,0.0,0.0,0.0,0.0,0.0,0.0,0.0,0.0,0.0,0.0,0.0,0.0,0.0,0.0,0.0,0.0,0.0,0.0,0.0,0.0,0.0,0.0,0.0,0.0,0.0,0.0,0.0,0.0,0.0,0.0,0.0,0.0,0.0,0.0,0.0,0.0,0.0,0.0,0.0,0.0,0.0,0.0,0.0,0.0,0.0,0.0,0.0,0.0,0.0,0.0,0.0,0.0,0.0,0.0,0.0,0.0,0.0,0.0,0.0,0.0,0.0,0.0,0.0,0.0,0.0,0.0,0.0,0.0,0.0,0.0,0.0,0.0,0.0,0.0,0.0,0.0,0.0,0.0,0.0,0.0,0.0,0.0,0.0,0.0,0.0,0.0,0.0,0.0,-0.9828,-1.0122,-0.9716,-0.9573,-0.9682,0.0,0.0,0.0,0.0,0.0,0.0,0.0,0.0,0.0,0.0,0.0,0.0,0.0,0.0,0.0,0.0,0.0,0.0,0.0,0.0,0.0,0.0,0.0,0.0,0.0,0.0,0.0,0.0,0.0,0.0,0.0,0.0,0.0,0.0,0.0,0.0,0.0,0.0,0.0,0.0,0.0,0.0,0.0,0.0,0.0,0.0,0.0,0.0,0.0,0.0,0.0,0.0,0.0,0.0,0.0,0.0,0.0,0.0,0.0,0.0,0.0,0.0,0.0,0.0,0.0,0.0,0.0,0.0,0.0,0.0,0.0,0.0,0.0,0.0,0.0,0.0,0.0,0.0,0.0,0.0,0.0,0.0,0.0,0.0,0.0,0.0,0.0,0.0,0.0,0.0,0.0,0.0,0.0,0.0,0.0,0.0,0.0,0.0,0.0,0.0,0.0,0.0,0.0,0.0,0.0,0.0,0.0,0.0,0.0,0.0,0.0,0.0,-1.0018,-0.9852,-0.9824,0.0,0.0,0.0,0.0,0.0,0.0,0.0,0.0,0.0,0.0,0.0,0.0,0.0,0.0,0.0,0.0,0.0,0.0,0.0,0.0,0.0,0.0,0.0,0.0,0.0,0.0,0.0,0.0,0.0,0.0,0.0,0.0,0.0,0.0,0.0,0.0,0.0,0.0,0.0,0.0,0.0,0.0,0.0,0.0,0.0,0.0,0.0,0.0,0.0,0.0,0.0,0.0,0.0,0.0,0.0,0.0,0.0,0.0,0.0,0.0,0.0,0.0,0.0,0.0,0.0,0.0,0.0,0.0,0.0,0.0,0.0,0.0,0.0,0.0,0.0,0.0,0.0,0.0,0.0,0.0,0.0,0.0,0.0,0.0,0.0,0.0,0.0,0.0,0.0,0.0,0.0,0.0,0.0,0.0,0.0,0.0,0.0,0.0,0.0,0.0,0.0,0.0,0.0,0.0,0.0,0.0,0.0,0.0,0.0,0.0,-0.9573,-0.9775,-1.0546,0.0,-1.0298,0.0,0.0,0.0,0.0,0.0,0.0,0.0,0.0,0.0,0.0,0.0,0.0,0.0,0.0,0.0,0.0,0.0,0.0,0.0,0.0,0.0,0.0,0.0,0.0,0.0,0.0,0.0,0.0,0.0,0.0,0.0,0.0,0.0,0.0,0.0,0.0,0.0,0.0,0.0,0.0,0.0,0.0,0.0,0.0,0.0,0.0,0.0,0.0,0.0,0.0,0.0,0.0,0.0,0.0,0.0,0.0,0.0,0.0,0.0,0.0,0.0,0.0,0.0,0.0,0.0,0.0,0.0,0.0,0.0,0.0,0.0,0.0,0.0,0.0,0.0,0.0,0.0,0.0,0.0,0.0,0.0,0.0,0.0,0.0,0.0,0.0,0.0,0.0,0.0,0.0,0.0,0.0,0.0,0.0,0.0,0.0,0.0,0.0,0.0,0.0,0.0,0.0,0.0,0.0,0.0,0.0,0.0,0.0,0.0,0.0,-1.0079,-1.0278,-1.0117,-0.9942,0.0,0.0,0.0,0.0,0.0,0.0,0.0,0.0,0.0,0.0,0.0,0.0,0.0,0.0,0.0,0.0,0.0,0.0,0.0,0.0,0.0,0.0,0.0,0.0,0.0,0.0,0.0,0.0,0.0,0.0,0.0,0.0,0.0,0.0,0.0,0.0,0.0,0.0,0.0,0.0,0.0,0.0,0.0,0.0,0.0,0.0,0.0,0.0,0.0,0.0,0.0,0.0,0.0,0.0,0.0,0.0,0.0,0.0,0.0,0.0,0.0,0.0,0.0,0.0,0.0,0.0,0.0,0.0,0.0,0.0,0.0,0.0,0.0,0.0,0.0,0.0,0.0,0.0,0.0,0.0,0.0,0.0,0.0,0.0,0.0,0.0,0.0,0.0,0.0,0.0,0.0,0.0,0.0,0.0,0.0,0.0,0.0,0.0,0.0,0.0,0.0,0.0,0.0,0.0,0.0,0.0,0.0,0.0,0.0,0.0,-1.0186,-1.0383,-1.0538,-1.01,-0.9744,-0.9515,0.0,0.0,0.0,0.0,0.0,0.0,0.0,0.0,0.0,0.0,0.0,0.0,0.0,0.0,0.0,0.0,0.0,0.0,0.0,0.0,0.0,0.0,0.0,0.0,0.0,0.0,0.0,0.0,0.0,0.0,0.0,0.0,0.0,0.0,0.0,0.0,0.0,0.0,0.0,0.0,0.0,0.0,0.0,0.0,0.0,0.0,0.0,0.0,0.0,0.0,0.0,0.0,0.0,0.0,0.0,0.0,0.0,0.0,0.0,0.0,0.0,0.0,0.0,0.0,0.0,0.0,0.0,0.0,0.0,0.0,0.0,0.0,0.0,0.0,0.0,0.0,0.0,0.0,0.0,0.0,0.0,0.0,0.0,0.0,0.0,0.0,0.0,0.0,0.0,0.0,0.0,0.0,0.0,0.0,0.0,0.0,0.0,0.0,0.0,0.0,0.0,0.0,0.0,0.0,0.0,0.0,0.0,0.0,-1.0072,-1.0246,-1.0303,-1.0326,-1.0893,-1.0837,0.0,0.0,0.0,0.0,0.0,0.0,0.0,0.0,0.0,0.0,0.0,0.0,0.0,0.0,0.0,0.0,0.0,0.0,0.0,0.0,0.0,0.0,0.0,0.0,0.0,0.0,0.0,0.0,0.0,0.0,0.0,0.0,0.0,0.0,0.0,0.0,0.0,0.0,0.0,0.0,0.0,0.0,0.0,0.0,0.0,0.0,0.0,0.0,0.0,0.0,0.0,0.0,0.0,0.0,0.0,0.0,0.0,0.0,0.0,0.0,0.0,0.0,0.0,0.0,0.0,0.0,0.0,0.0,0.0,0.0,0.0,0.0,0.0,0.0,0.0,0.0,0.0,0.0,0.0,0.0,0.0,0.0,0.0,0.0,0.0,0.0,0.0,0.0,0.0,0.0,0.0,0.0,0.0,0.0,0.0,0.0,0.0,0.0,0.0,0.0,0.0,0.0,0.0,0.0,0.0,0.0,0.0,0.0,0.0,-1.0057,-1.0785,-1.1055,-1.091,-1.0764,-1.0206,0.0,0.0,0.0,0.0,0.0,0.0,0.0,0.0,0.0,0.0,0.0,0.0,0.0,0.0,0.0,0.0,0.0,0.0,0.0,0.0,0.0,0.0,0.0,0.0,0.0,0.0,0.0,0.0,0.0,0.0,0.0,0.0,0.0,0.0,0.0,0.0,0.0,0.0,0.0,0.0,0.0,0.0,0.0,0.0,0.0,0.0,0.0,0.0,0.0,0.0,0.0,0.0,0.0,0.0,0.0,0.0,0.0,0.0,0.0,0.0,0.0,0.0,0.0,0.0,0.0,0.0,0.0,0.0,0.0,0.0,0.0,0.0,0.0,0.0,0.0,0.0,0.0,0.0,0.0,0.0,0.0,0.0,0.0,0.0,0.0,0.0,0.0,0.0,0.0,0.0,0.0,0.0,0.0,0.0,0.0,0.0,0.0,0.0,0.0,0.0,0.0,0.0,0.0,0.0,0.0,0.0,0.0,0.0,0.0,-1.0893,-1.1198,-1.1408,-1.1574,-1.0779,-0.9879,0.0,0.0,0.0,0.0,0.0,0.0,0.0,0.0,0.0,0.0,0.0,0.0,0.0,0.0,0.0,0.0,0.0,0.0,0.0,0.0,0.0,0.0,0.0,0.0,0.0,0.0,0.0,0.0,0.0,0.0,0.0,0.0,0.0,0.0,0.0,0.0,0.0,0.0,0.0,0.0,0.0,0.0,0.0,0.0,0.0,0.0,0.0,0.0,0.0,0.0,0.0,0.0,0.0,0.0,0.0,0.0,0.0,0.0,0.0,0.0,0.0,0.0,0.0,0.0,0.0,0.0,0.0,0.0,0.0,0.0,0.0,0.0,0.0,0.0,0.0,0.0,0.0,0.0,0.0,0.0,0.0,0.0,0.0,0.0,0.0,0.0,0.0,0.0,0.0,0.0,0.0,0.0,0.0,0.0,0.0,0.0,0.0,0.0,0.0,0.0,0.0,0.0,0.0,0.0,0.0,0.0,0.0,0.0,-1.0006,-1.2575,-1.1478,-1.1329,-1.2358,-1.1104,-1.0076,0.0,0.0,0.0,0.0,0.0,0.0,0.0,0.0,0.0,0.0,0.0,0.0,0.0,0.0,0.0,0.0,0.0,0.0,0.0,0.0,0.0,0.0,0.0,0.0,0.0,0.0,0.0,0.0,0.0,0.0,0.0,0.0,0.0,0.0,0.0,0.0,0.0,0.0,0.0,0.0,0.0,0.0,0.0,0.0,0.0,0.0,0.0,0.0,0.0,0.0,0.0,0.0,0.0,0.0,0.0,0.0,0.0,0.0,0.0,0.0,0.0,0.0,0.0,0.0,0.0,0.0,0.0,0.0,0.0,0.0,0.0,0.0,0.0,0.0,0.0,0.0,0.0,0.0,0.0,0.0,0.0,0.0,0.0,0.0,0.0,0.0,0.0,0.0,0.0,0.0,0.0,0.0,0.0,0.0,0.0,0.0,0.0,0.0,0.0,0.0,0.0,0.0,0.0,0.0,0.0,0.0,0.0,0.0,0.0,-1.0059,-1.0987,-1.0963,-1.0003,-1.0695,-1.047,0.0,0.0,0.0,0.0,0.0,0.0,0.0,0.0,0.0,0.0,0.0,0.0,0.0,0.0,0.0,0.0,0.0,0.0,0.0,0.0,0.0,0.0,0.0,0.0,0.0,0.0,0.0,0.0,0.0,0.0,0.0,0.0,0.0,0.0,0.0,0.0,0.0,0.0,0.0,0.0,0.0,0.0,0.0,0.0,0.0,0.0,0.0,0.0,0.0,0.0,0.0,0.0,0.0,0.0,0.0,0.0,0.0,0.0,0.0,0.0,0.0,0.0,0.0,0.0,0.0,0.0,0.0,0.0,0.0,0.0,0.0,0.0,0.0,0.0,0.0,0.0,0.0,0.0,0.0,0.0,0.0,0.0,0.0,0.0,0.0,0.0,0.0,0.0,0.0,0.0,0.0,0.0,0.0,0.0,0.0,0.0,0.0,0.0,0.0,0.0,0.0,0.0,0.0,0.0,0.0,0.0,0.0,0.0,0.0,-0.9524,-1.0504,-1.0539,-0.9486,-1.0296,-1.0303,-0.9371,0.0,0.0,0.0,0.0,0.0,0.0,0.0,0.0,0.0,0.0,0.0,0.0,0.0,0.0,0.0,0.0,0.0,0.0,0.0,0.0,0.0,0.0,0.0,0.0,0.0,0.0,0.0,0.0,0.0,0.0,0.0,0.0,0.0,0.0,0.0,0.0,0.0,0.0,0.0,0.0,0.0,0.0,0.0,0.0,0.0,0.0,0.0,0.0,0.0,0.0,0.0,0.0,0.0,0.0,0.0,0.0,0.0,0.0,0.0,0.0,0.0,0.0,0.0,0.0,0.0,0.0,0.0,0.0,0.0,0.0,0.0,0.0,0.0,0.0,0.0,0.0,0.0,0.0,0.0,0.0,0.0,0.0,0.0,0.0,0.0,0.0,0.0,0.0,0.0,0.0,0.0,0.0,0.0,0.0,0.0,0.0,0.0,0.0,0.0,0.0,0.0,0.0,0.0,0.0,0.0,0.0,0.0,0.0,-1.0622,-1.0163,-1.0221,-1.0593,-1.0048,-0.9768,0.0,0.0,0.0,0.0,0.0,0.0,0.0,0.0,0.0,0.0,0.0,0.0,0.0,0.0,0.0,0.0,0.0,0.0,0.0,0.0,0.0,0.0,0.0,0.0,0.0,0.0,0.0,0.0,0.0,0.0,0.0,0.0,0.0,0.0,0.0,0.0,0.0,0.0,0.0,0.0,0.0,0.0,0.0,0.0,0.0,0.0,0.0,0.0,0.0,0.0,0.0,0.0,0.0,0.0,0.0,0.0,0.0,0.0,0.0,0.0,0.0,0.0,0.0,0.0,0.0,0.0,0.0,0.0,0.0,0.0,0.0,0.0,0.0,0.0,0.0,0.0,0.0,0.0,0.0,0.0,0.0,0.0,0.0,0.0,0.0,0.0,0.0,0.0,0.0,0.0,0.0,0.0,0.0,0.0,0.0,0.0,0.0,0.0,0.0,0.0,0.0,0.0,0.0,0.0,0.0,0.0,0.0,0.0,0.0,-1.0649,-1.0567,-1.0732,-1.094,-1.0546,-1.0078,0.0,0.0,0.0,0.0,0.0,0.0,0.0,0.0,0.0,0.0,0.0,0.0,0.0,0.0,0.0,0.0,0.0,0.0,0.0,0.0,0.0,0.0,0.0,0.0,0.0,0.0,0.0,0.0,0.0,0.0,0.0,0.0,0.0,0.0,0.0,0.0,0.0,0.0,0.0,0.0,0.0,0.0,0.0,0.0,0.0,0.0,0.0,0.0,0.0,0.0,0.0,0.0,0.0,0.0,0.0,0.0,0.0,0.0,0.0,0.0,0.0,0.0,0.0,0.0,0.0,0.0,0.0,0.0,0.0,0.0,0.0,0.0,0.0,0.0,0.0,0.0,0.0,0.0,0.0,0.0,0.0,0.0,0.0,0.0,0.0,0.0,0.0,0.0,0.0,0.0,0.0,0.0,0.0,0.0,0.0,0.0,0.0,0.0,0.0,0.0,0.0,0.0,0.0,0.0,0.0,0.0,0.0,0.0,-1.1328,-1.0392,-1.0706,-1.0816,-1.0662,-1.0457,-1.0094,0.0,0.0,0.0,0.0,0.0,0.0,0.0,0.0,0.0,0.0,0.0,0.0,0.0,0.0,0.0,0.0,0.0,0.0,0.0,0.0,0.0,0.0,0.0,0.0,0.0,0.0,0.0,0.0,0.0,0.0,0.0,0.0,0.0,0.0,0.0,0.0,0.0,0.0,0.0,0.0,0.0,0.0,0.0,0.0,0.0,0.0,0.0,0.0,0.0,0.0,0.0,0.0,0.0,0.0,0.0,0.0,0.0,0.0,0.0,0.0,0.0,0.0,0.0,0.0,0.0,0.0,0.0,0.0,0.0,0.0,0.0,0.0,0.0,0.0,0.0,0.0,0.0,0.0,0.0,0.0,0.0,0.0,0.0,0.0,0.0,0.0,0.0,0.0,0.0,0.0,0.0,0.0,0.0,0.0,0.0,0.0,0.0,0.0,0.0,0.0,0.0,0.0,0.0,0.0,0.0,0.0,0.0,0.0,-1.1594,-1.011,-1.0721,-1.0814,-1.0147,-1.0084,-0.9932,0.0,0.0,0.0,0.0,0.0,0.0,0.0,0.0,0.0,0.0,0.0,0.0,0.0,0.0,0.0,0.0,0.0,0.0,0.0,0.0,0.0,0.0,0.0,0.0,0.0,0.0,0.0,0.0,0.0,0.0,0.0,0.0,0.0,0.0,0.0,0.0,0.0,0.0,0.0,0.0,0.0,0.0,0.0,0.0,0.0,0.0,0.0,0.0,0.0,0.0,0.0,0.0,0.0,0.0,0.0,0.0,0.0,0.0,0.0,0.0,0.0,0.0,0.0,0.0,0.0,0.0,0.0,0.0,0.0,0.0,0.0,0.0,0.0,0.0,0.0,0.0,0.0,0.0,0.0,0.0,0.0,0.0,0.0,0.0,0.0,0.0,0.0,0.0,0.0,0.0,0.0,0.0,0.0,0.0,0.0,0.0,0.0,0.0,0.0,0.0,0.0,0.0,0.0,0.0,0.0,0.0,0.0,0.0,-1.1483,-1.0772,-1.0972,-1.1019,-1.0891,-1.0299,-0.9813,0.0,0.0,0.0,0.0,0.0,0.0,0.0,0.0,0.0,0.0,0.0,0.0,0.0,0.0,0.0,0.0,0.0,0.0,0.0,0.0,0.0,0.0,0.0,0.0,0.0,0.0,0.0,0.0,0.0,0.0,0.0,0.0,0.0,0.0,0.0,0.0,0.0,0.0,0.0,0.0,0.0,0.0,0.0,0.0,0.0,0.0,0.0,0.0,-0.9226,0.0,0.0,0.0,0.0,0.0,0.0,0.0,0.0,0.0,0.0,0.0,0.0,0.0,0.0,0.0,0.0,0.0,0.0,0.0,0.0,0.0,0.0,0.0,0.0,0.0,0.0,0.0,0.0,0.0,0.0,0.0,0.0,0.0,0.0,0.0,0.0,0.0,0.0,0.0,0.0,0.0,0.0,0.0,0.0,0.0,0.0,0.0,0.0,0.0,0.0,0.0,0.0,0.0,0.0,0.0,0.0,0.0,0.0,0.0,-1.1601,-1.1191,-1.1191,-1.1209,-1.1066,-1.0474,-0.9918,0.0,0.0,0.0,0.0,0.0,0.0,0.0,0.0,0.0,0.0,0.0,0.0,0.0,0.0,0.0,0.0,0.0,0.0,0.0,0.0,0.0,0.0,0.0,0.0,0.0,0.0,0.0,0.0,0.0,0.0,0.0,0.0,0.0,0.0,0.0,0.0,0.0,0.0,0.0,0.0,0.0,0.0,0.0,0.0,0.0,0.0,0.0,0.0,0.0,0.0,0.0,0.0,0.0,0.0,0.0,0.0,0.0,0.0,0.0,0.0,0.0,0.0,0.0,0.0,0.0,0.0,0.0,0.0,0.0,0.0,0.0,0.0,0.0,0.0,0.0,0.0,0.0,0.0,0.0,0.0,0.0,0.0,0.0,0.0,0.0,0.0,0.0,0.0,0.0,0.0,0.0,0.0,0.0,0.0,0.0,0.0,0.0,0.0,0.0,0.0,0.0,0.0,0.0,0.0,0.0,0.0,0.0,-1.1848,-1.1722,-1.1403,-1.1365,-1.1329,-1.1143,-1.0584,-1.005,-0.9605,0.0,0.0,0.0,0.0,0.0,0.0,0.0,0.0,0.0,0.0,0.0,0.0,0.0,0.0,0.0,0.0,0.0,0.0,0.0,0.0,0.0,0.0,0.0,0.0,0.0,0.0,0.0,0.0,0.0,0.0,0.0,0.0,0.0,0.0,0.0,0.0,0.0,0.0,-0.6214,-0.7349,0.0,0.0,0.0,0.0,0.0,0.0,0.0,0.0,-1.0069,0.0,0.0,0.0,0.0,0.0,0.0,0.0,0.0,0.0,0.0,0.0,0.0,0.0,0.0,0.0,0.0,0.0,0.0,0.0,0.0,0.0,0.0,0.0,0.0,0.0,0.0,0.0,0.0,0.0,0.0,0.0,0.0,0.0,0.0,0.0,0.0,0.0,0.0,0.0,0.0,0.0,0.0,0.0,0.0,0.0,0.0,0.0,0.0,0.0,0.0,0.0,0.0,0.0,0.0,0.0,0.0,-1.1443,-1.1751,-1.176,-1.1476,-1.1242,-1.1202,-1.123,-1.0491,-0.9932,-0.9654,0.0,0.0,0.0,0.0,0.0,0.0,0.0,0.0,0.0,0.0,0.0,0.0,0.0,0.0,0.0,0.0,0.0,0.0,0.0,0.0,0.0,0.0,0.0,0.0,0.0,0.0,0.0,0.0,0.0,0.0,0.0,0.0,0.0,0.0,0.0,0.0,0.0,0.0,0.0,-0.7364,-0.785,0.0,0.0,0.0,0.0,0.0,0.0,0.0,0.0,-0.9463,0.0,0.0,0.0,0.0,0.0,0.0,0.0,0.0,0.0,0.0,0.0,0.0,0.0,0.0,0.0,0.0,0.0,0.0,0.0,0.0,0.0,0.0,0.0,0.0,0.0,0.0,0.0,0.0,0.0,0.0,0.0,0.0,0.0,0.0,0.0,0.0,0.0,0.0,0.0,0.0,0.0,0.0,0.0,0.0,0.0,0.0,0.0,0.0,0.0,0.0,0.0,0.0,0.0,0.0,0.0,-1.2097,-1.2039,-1.1801,-1.1538,-1.1455,-1.1218,-1.1062,-1.065,-1.016,0.0,0.0,0.0,0.0,0.0,0.0,0.0,0.0,0.0,0.0,0.0,0.0,0.0,0.0,0.0,0.0,0.0,0.0,0.0,0.0,0.0,0.0,0.0,0.0,0.0,0.0,0.0,0.0,0.0,0.0,0.0,0.0,0.0,0.0,0.0,0.0,0.0,0.0,0.0,0.0,-0.7629,-0.8098,-0.8657,0.0,0.0,0.0,0.0,0.0,0.0,-1.0012,-0.9841,0.0,0.0,0.0,0.0,0.0,0.0,0.0,0.0,0.0,0.0,0.0,0.0,0.0,0.0,0.0,0.0,0.0,0.0,0.0,0.0,0.0,0.0,0.0,0.0,0.0,0.0,0.0,0.0,0.0,0.0,0.0,0.0,0.0,0.0,0.0,0.0,0.0,0.0,0.0,0.0,0.0,0.0,0.0,0.0,0.0,0.0,0.0,0.0,0.0,0.0,0.0,0.0,0.0,0.0,0.0,-1.2817,-1.236,-1.1966,-1.1661,-1.1511,-1.1204,-1.0739,-1.056,-1.0179,0.0,0.0,0.0,0.0,0.0,0.0,0.0,0.0,0.0,0.0,0.0,0.0,0.0,0.0,0.0,0.0,0.0,0.0,0.0,0.0,0.0,0.0,0.0,0.0,0.0,0.0,0.0,0.0,0.0,0.0,0.0,0.0,0.0,0.0,0.0,0.0,0.0,0.0,0.0,0.0,0.0,-0.8469,-0.8323,-0.9182,0.0,0.0,0.0,0.0,-0.9769,-1.0007,0.0,0.0,0.0,0.0,0.0,0.0,0.0,0.0,0.0,0.0,0.0,0.0,0.0,0.0,0.0,0.0,0.0,0.0,0.0,0.0,0.0,0.0,0.0,0.0,0.0,0.0,0.0,0.0,0.0,0.0,0.0,0.0,0.0,0.0,0.0,0.0,0.0,0.0,0.0,0.0,0.0,0.0,0.0,0.0,0.0,0.0,0.0,0.0,0.0,0.0,0.0,0.0,0.0,0.0,0.0,0.0,-1.2876,-1.2671,-1.2285,-1.1829,-1.1131,-1.0724,-1.0637,-0.9625,-0.929,0.0,0.0,0.0,0.0,0.0,0.0,0.0,0.0,0.0,0.0,0.0,0.0,0.0,0.0,0.0,0.0,0.0,0.0,0.0,0.0,0.0,0.0,0.0,0.0,0.0,0.0,0.0,0.0,0.0,0.0,0.0,0.0,0.0,0.0,0.0,0.0,0.0,0.0,0.0,0.0,0.0,-0.8239,-0.9415,-0.9409,-0.9308,0.0,0.0,-1.0007,-0.9077,-0.9263,0.0,0.0,0.0,0.0,0.0,0.0,0.0,0.0,0.0,0.0,0.0,0.0,0.0,0.0,0.0,0.0,0.0,0.0,0.0,0.0,0.0,0.0,0.0,0.0,0.0,0.0,0.0,0.0,0.0,0.0,0.0,0.0,0.0,0.0,0.0,0.0,0.0,0.0,0.0,0.0,0.0,0.0,0.0,0.0,0.0,0.0,0.0,0.0,0.0,0.0,0.0,0.0,0.0,0.0,0.0,-1.2491,-1.2677,-1.2695,-1.2435,-1.1916,-1.1522,-1.1016,-1.0409,-0.9552,-0.9259,0.0,0.0,0.0,0.0,0.0,0.0,0.0,0.0,0.0,0.0,0.0,0.0,0.0,0.0,0.0,0.0,0.0,0.0,0.0,0.0,0.0,0.0,0.0,0.0,0.0,0.0,0.0,0.0,0.0,0.0,0.0,0.0,0.0,0.0,0.0,0.0,0.0,0.0,0.0,0.0,0.0,0.0,-0.9171,-0.9752,0.0,0.0,0.0,-1.0135,-0.9049,0.0,0.0,0.0,0.0,0.0,0.0,0.0,0.0,0.0,0.0,0.0,0.0,0.0,0.0,0.0,0.0,0.0,0.0,0.0,0.0,0.0,0.0,0.0,0.0,0.0,0.0,0.0,0.0,0.0,0.0,0.0,0.0,0.0,0.0,0.0,0.0,0.0,0.0,0.0,0.0,0.0,0.0,0.0,0.0,0.0,0.0,0.0,0.0,0.0,0.0,0.0,0.0,0.0,0.0,0.0,0.0,0.0,-1.2372,-1.2454,-1.2194,-1.1673,-1.1598,-1.1071,-1.0114,-0.9507,0.0,0.0,0.0,0.0,0.0,0.0,0.0,0.0,0.0,0.0,0.0,0.0,0.0,0.0,0.0,0.0,0.0,0.0,0.0,0.0,0.0,0.0,0.0,0.0,0.0,0.0,0.0,-0.4275,0.0,0.0,0.0,0.0,0.0,0.0,0.0,0.0,0.0,0.0,0.0,0.0,0.0,0.0,-0.9052,-0.8861,-0.969,-1.0092,0.0,0.0,-1.0024,-0.9093,-0.9511,-0.9947,0.0,0.0,0.0,0.0,0.0,0.0,0.0,0.0,0.0,0.0,0.0,0.0,0.0,0.0,0.0,0.0,0.0,0.0,0.0,0.0,0.0,0.0,0.0,0.0,0.0,0.0,0.0,0.0,0.0,0.0,0.0,0.0,0.0,0.0,0.0,0.0,0.0,0.0,0.0,0.0,0.0,0.0,0.0,0.0,0.0,0.0,0.0,0.0,0.0,0.0,0.0,0.0,0.0,0.0,-1.1302,-1.2004,-1.1774,-1.1431,-1.0939,-1.0899,-1.0452,-0.9543,-0.9155,-0.9283,0.0,0.0,0.0,0.0,0.0,0.0,0.0,0.0,0.0,0.0,0.0,0.0,0.0,0.0,0.0,0.0,0.0,0.0,0.0,0.0,0.0,0.0,0.0,0.0,0.0,0.0,0.0,0.0,0.0,0.0,0.0,0.0,0.0,0.0,0.0,0.0,0.0,0.0,0.0,0.0,0.0,-0.9378,-0.8991,-0.9124,-0.9195,0.0,-0.912,-0.9261,-0.9015,-0.9414,-0.9974,-1.0716,0.0,0.0,0.0,0.0,0.0,0.0,0.0,0.0,0.0,0.0,0.0,0.0,0.0,0.0,0.0,0.0,0.0,0.0,0.0,0.0,0.0,0.0,0.0,0.0,0.0,0.0,0.0,0.0,0.0,0.0,0.0,0.0,0.0,0.0,0.0,0.0,0.0,0.0,0.0,0.0,0.0,0.0,0.0,0.0,0.0,0.0,0.0,0.0,0.0,0.0,0.0,0.0,0.0,-1.0949,-1.1654,-1.1404,-1.1237,-1.1086,-1.0817,-1.025,-0.9435,-0.896,-0.8905,0.0,0.0,0.0,0.0,0.0,0.0,0.0,0.0,0.0,0.0,0.0,0.0,0.0,0.0,0.0,0.0,0.0,0.0,0.0,0.0,0.0,0.0,0.0,0.0,0.0,0.0,0.0,0.0,-0.5852,-0.6052,-0.6226,0.0,0.0,0.0,0.0,0.0,0.0,0.0,0.0,0.0,0.0,-0.8785,-0.8998,-0.9509,0.0,0.0,-0.9567,-0.9795,-0.8922,-1.0001,-1.0939,-1.0621,-1.1267,0.0,0.0,0.0,0.0,0.0,0.0,0.0,0.0,0.0,0.0,0.0,0.0,0.0,0.0,0.0,0.0,0.0,0.0,0.0,0.0,0.0,0.0,0.0,0.0,0.0,0.0,0.0,0.0,0.0,0.0,0.0,0.0,0.0,0.0,0.0,0.0,0.0,0.0,0.0,0.0,0.0,0.0,0.0,0.0,0.0,0.0,0.0,0.0,0.0,0.0,0.0,0.0,-1.0545,-1.1089,-1.0995,-1.089,-1.077,-1.0752,-1.0263,-0.9227,-0.8707,-0.8517,0.0,0.0,0.0,0.0,0.0,0.0,0.0,0.0,0.0,0.0,0.0,0.0,0.0,0.0,0.0,0.0,0.0,0.0,0.0,0.0,0.0,0.0,0.0,0.0,0.0,0.0,0.0,0.0,-0.6573,-0.6841,-0.7094,0.0,0.0,0.0,0.0,0.0,0.0,0.0,0.0,0.0,0.0,-0.8346,-0.8517,-0.9404,-0.9942,-0.9508,-1.0355,-1.0794,-1.009,-1.0836,-1.1415,-1.1283,0.0,0.0,0.0,0.0,0.0,0.0,0.0,0.0,0.0,0.0,0.0,0.0,0.0,0.0,0.0,0.0,0.0,0.0,0.0,0.0,0.0,0.0,0.0,0.0,0.0,0.0,0.0,-0.8177,0.0,0.0,-0.7323,0.0,0.0,0.0,0.0,0.0,0.0,0.0,0.0,0.0,0.0,0.0,0.0,0.0,0.0,0.0,0.0,0.0,0.0,0.0,0.0,0.0,0.0,-0.9992,-1.0465,-1.0405,-1.0297,-0.9993,-1.0724,-1.0431,-0.8847,-0.8315,-0.8402,-0.9016,0.0,0.0,0.0,0.0,0.0,0.0,0.0,0.0,0.0,0.0,0.0,0.0,0.0,0.0,0.0,0.0,0.0,0.0,0.0,0.0,0.0,0.0,0.0,0.0,0.0,0.0,-0.7001,-0.7548,-0.7989,0.0,0.0,0.0,0.0,0.0,0.0,0.0,0.0,0.0,-0.7496,-0.8027,-0.8216,-0.7476,-0.8734,-0.9901,-1.0454,-1.1285,-1.2071,-1.2835,-1.1771,-1.1292,0.0,0.0,0.0,0.0,0.0,0.0,0.0,0.0,0.0,0.0,0.0,0.0,0.0,0.0,0.0,0.0,0.0,0.0,0.0,0.0,0.0,0.0,0.0,0.0,0.0,0.0,0.0,-0.6867,-0.7212,0.0,0.0,0.0,0.0,0.0,0.0,0.0,0.0,0.0,0.0,0.0,-0.7189,-0.7367,0.0,0.0,0.0,0.0,0.0,0.0,0.0,0.0,0.0,0.0,0.0,0.0,-1.0455,-1.0895,-1.0482,-1.0087,-0.9887,-0.9998,-0.976,-0.8859,-0.8547,-0.863,-0.9109,0.0,0.0,0.0,0.0,0.0,0.0,0.0,0.0,0.0,0.0,0.0,0.0,0.0,0.0,0.0,0.0,0.0,0.0,0.0,0.0,0.0,0.0,0.0,0.0,0.0,-0.7577,0.0,0.0,0.0,0.0,0.0,0.0,0.0,0.0,0.0,0.0,0.0,-0.7851,-0.8199,-0.7894,-0.7727,-0.7724,-0.8477,-0.9192,0.0,0.0,0.0,0.0,0.0,0.0,0.0,0.0,0.0,0.0,0.0,0.0,0.0,0.0,-0.7786,-0.8916,-0.9364,-0.9634,-0.9794,0.0,0.0,0.0,0.0,0.0,0.0,0.0,0.0,0.0,0.0,0.0,0.0,0.0,0.0,-0.6904,0.0,-0.72,0.0,0.0,0.0,0.0,0.0,0.0,0.0,0.0,-0.7488,-0.7339,-0.7423,-0.7341,-0.755,0.0,-0.7331,-0.6648,0.0,0.0,0.0,0.0,0.0,0.0,0.0,0.0,-1.0616,-1.0553,-1.0193,-0.9778,-0.9442,-0.9369,-0.9111,-0.856,-0.8474,-0.86,-0.8901,-0.8442,-0.8014,0.0,0.0,0.0,0.0,0.0,0.0,0.0,0.0,0.0,0.0,0.0,0.0,0.0,0.0,0.0,0.0,0.0,0.0,0.0,0.0,0.0,0.0,0.0,-0.8546,0.0,0.0,0.0,0.0,0.0,0.0,0.0,0.0,0.0,-0.9519,-0.8471,-0.7837,-0.8205,-0.7756,-0.756,-0.793,0.0,0.0,0.0,0.0,0.0,0.0,0.0,-1.1873,-1.0446,-1.1115,-1.1752,-1.1071,-0.9855,-0.91,-0.9357,0.0,0.0,-0.8778,-0.9252,-0.9636,-0.9796,-0.9687,-0.9497,-0.964,-0.9101,-0.8835,0.0,0.0,0.0,0.0,0.0,0.0,0.0,0.0,-0.7181,-0.7207,0.0,-0.6903,0.0,0.0,0.0,0.0,-0.9902,-0.9619,0.0,0.0,-0.8608,-0.805,-0.7591,-0.7258,-0.7081,-0.7081,-0.6903,-0.6523,-0.6367,-0.9015,0.0,0.0,0.0,0.0,0.0,0.0,-1.0379,-0.9427,-0.9469,-0.9203,-0.8682,-0.8824,-0.8501,-0.784,-0.8014,-0.8214,-0.8357,-0.8055,-0.8033,-0.8247,-0.7788,0.0,0.0,0.0,0.0,0.0,0.0,0.0,0.0,0.0,0.0,0.0,0.0,0.0,0.0,0.0,0.0,0.0,0.0,0.0,0.0,-0.9021,0.0,0.0,0.0,0.0,0.0,0.0,0.0,0.0,0.0,-0.8854,-0.9346,-0.8622,-0.7934,-0.7584,0.0,0.0,0.0,0.0,-0.9934,-1.0252,-1.13,-1.2074,-1.2074,-1.129,-1.0905,-1.1491,0.0,0.0,-1.065,-0.9338,-0.8535,-0.9715,-0.8924,-0.7868,-0.7299,-0.8036,-0.8725,-0.9061,-0.9016,-0.8987,-0.9148,-0.839,-0.7667,-0.4418,0.0,0.0,0.0,0.0,-0.5894,-0.6049,-0.6123,-0.6783,-0.7265,-0.7383,-0.708,0.0,0.0,0.0,0.0,0.0,0.0,-0.9616,-0.9569,-0.8769,-0.8117,-0.7574,-0.7292,-0.7202,-0.7202,-0.7305,-0.7298,-0.7183,-0.798,-0.8869,-0.9823,0.0,0.0,0.0,0.0,-0.949,-0.9339,-0.905,-0.8687,-0.8386,-0.7932,-0.7645,-0.7425,-0.7708,-0.7918,-0.7979,-0.7724,-0.7607,-0.7657,-0.7759,0.0,0.0,0.0,0.0,0.0,0.0,0.0,0.0,0.0,0.0,0.0,0.0,0.0,0.0,0.0,0.0,0.0,0.0,0.0,-0.8522,-0.8865,-0.9062,0.0,0.0,0.0,0.0,0.0,0.0,0.0,0.0,0.0,-0.9402,-0.8698,-0.8176,0.0,0.0,-0.8292,-0.8632,-0.883,-0.905,-0.9511,-0.9584,0.0,-1.0071,-1.0481,-1.0523,-0.9569,-0.9212,-0.9102,-0.945,-0.9212,-0.8984,-0.919,-0.888,-0.8508,-0.824,-0.8369,-0.8783,-0.9013,-0.9028,-0.8987,-0.9045,-0.8598,-0.8258,-0.3521,-0.4125,-0.4855,-0.5208,-0.5317,-0.5764,-0.6129,-0.6319,-0.6806,-0.7408,-0.7952,-0.7737,-0.7655,-0.7843,-0.833,0.0,0.0,0.0,-0.9614,-0.944,-0.887,-0.8188,-0.7477,-0.7394,-0.7298,-0.74,-0.7298,-0.74,-0.761,-0.7496,-0.7938,-0.8886,0.0,0.0,-0.9421,-0.9221,-0.8944,-0.8808,-0.8515,-0.8278,-0.8005,-0.7567,-0.729,-0.7285,-0.7673,-0.7919,-0.7919,-0.7793,-0.7552,-0.7409,-0.7536,-0.7372,0.0,0.0,0.0,0.0,0.0,0.0,0.0,0.0,0.0,0.0,0.0,-0.5935,-0.6125,0.0,0.0,0.0,-0.8293,-0.8583,-0.8599,-0.8709,0.0,0.0,0.0,0.0,0.0,0.0,0.0,-0.8759,-0.8893,-0.9084,-0.9003,-0.8696,-0.8528,-0.8729,-0.8618,-0.8604,-0.8855,0.0,-0.881,-0.9261,-0.9001,-0.8858,-0.9183,-0.996,-1.0139,-0.918,-0.9166,-0.9173,-0.9064,-0.9283,-0.9283,-0.9173,-0.9064,-0.9064,-0.8838,-0.8897,-0.8996,-0.8984,-0.9034,-0.8962,-0.8955,-0.8763,-0.8598,-0.2498,-0.3197,-0.435,-0.4932,-0.5277,-0.5746,-0.6385,-0.7,-0.7124,-0.768,-0.8481,-0.8466,-0.8165,-0.7624,-0.8122,0.0,-0.9598,-0.9535,-0.9372,-0.905,-0.8852,-0.8203,-0.7263,-0.7387,-0.7499,-0.7605,-0.7063,-0.7063,-0.7499,-0.7393,-0.722,-0.7197,-0.8661,-0.8589,-0.7021,-0.8294,-0.8659,-0.784,-0.7877,-0.7903,-0.78,-0.7575,-0.7513,-0.7502,-0.7863,-0.7979,-0.7967,-0.7937,-0.7756,-0.7389,-0.7123,-0.6804,-0.6329,0.0,0.0,0.0,0.0,0.0,0.0,0.0,0.0,0.0,0.0,0.0,0.0,0.0,0.0,-0.8298,-0.8521,0.0,-0.8495,-0.8657,0.0,0.0,0.0,-0.937,-0.8979,-0.8926,-0.8761,-0.7963,0.0,0.0,-0.8343,-0.8696,-0.8804,-0.8716,-0.8694,-0.8818,-0.8954,-0.8974,-0.9076,-0.9306,-0.9259,-0.9171,-0.9257,-0.9595,-0.9788,-0.9666,-0.9722,-0.9571,-0.9463,-0.9347,-0.9367,-0.934,-0.9374,-0.9361,-0.9374,-0.9327,-0.9325,-0.899,-0.8998,-0.8998,-0.8913,-0.8807,-0.8635,-0.1929,-0.2113,-0.3292,-0.42,-0.4878,-0.5664,-0.6242,-0.6603,-0.7238,-0.7717,-0.8137,-0.8119,-0.7885,-0.7543,-0.7889,-0.823,-0.8625,-0.8808,-0.9053,-0.9161,-0.806,-0.7561,-0.7442,-0.7453,-0.7459,-0.7464,-0.7231,-0.7231,-0.7345,-0.7345,-0.7312,-0.7247,-0.7633,-0.761,-0.7091,-0.7553,-0.7702,-0.7516,-0.7739,-0.7692,-0.7348,-0.7386,-0.7635,-0.7752,-0.7635,-0.7564,-0.7528,-0.7427,-0.7408,-0.7434,-0.7188,-0.6918,-0.6625,-0.6734,0.0,0.0,0.0,0.0,0.0,0.0,0.0,0.0,0.0,-0.6473,-0.6728,0.0,-0.7728,0.0,-0.8037,-0.8367,-0.8108,-0.8155,0.0,0.0,-0.8144,-0.8146,-0.814,-0.8153,-0.8265,-0.8203,-0.8434,-0.8689,-0.8913,-0.9035,-0.911,-0.9222,-0.9178,-0.9346,-0.9495,-0.9387,-0.93,-0.9374,-0.9374,-0.9327,-0.934,-0.947,-0.9511,-0.9497,-0.9504,-0.9497,-0.9381,-0.9381,-0.9381,-0.9381,-0.9381,-0.9381,-0.9395,-0.9381,-0.9347,-0.9319,-0.9284,-0.9284,-0.9284,-0.9157,-0.9171,-0.1575,-0.1897,-0.2787,-0.3636,-0.4543,-0.538,-0.6139,-0.6845,-0.7177,-0.7674,-0.8121,-0.8156,-0.8075,-0.7892,-0.8107,-0.8183,-0.8329,-0.8446,-0.8581,-0.8807,-0.799,-0.7564,-0.763,-0.7635,-0.7635,-0.7519,-0.7402,-0.728,-0.7397,-0.7519,-0.7602,-0.7536,-0.7415,-0.7345,-0.7326,-0.7382,-0.736,-0.736,-0.7545,-0.7613,-0.7546,-0.7557,-0.7823,-0.7999,-0.7823,-0.7644,-0.7573,-0.741,-0.7425,-0.7748,-0.7512,-0.7281,-0.7188,-0.7347,-0.7171,0.0,0.0,0.0,0.0,0.0,0.0,0.0,0.0,0.0,0.0,0.0,-0.741,-0.7265,-0.7764,-0.7924,-0.7672,-0.7704,-0.7628,-0.7608,-0.7608,-0.7617,-0.7799,-0.7979,-0.81,-0.8225,-0.8412,-0.8739,-0.901,-0.9142,-0.9365,-0.9571,-0.97,-0.9734,-0.9856,-0.9806,-0.9781,-0.9781,-0.9781,-0.9781,-0.9781,-0.9781,-0.9781,-0.9781,-0.9781,-0.9781,-0.9781,-0.9781,-0.9781,-0.9774,-0.9727,-0.968,-0.9673,-0.9618,-0.9578,-0.9578,-0.9578,-0.9523,-0.9408,-0.9381,-0.9381,-0.1414,-0.2003,-0.259,-0.3298,-0.4121,-0.4922,-0.5921,-0.7034,-0.7127,-0.7635,-0.8218,-0.8218,-0.8224,-0.8224,-0.8341,-0.8347,-0.8248,-0.8125,-0.8254,-0.8272,-0.8031,-0.7914,-0.7925,-0.792,-0.7802,-0.7562,-0.7562,-0.7562,-0.7562,-0.7802,-0.7914,-0.7903,-0.7663,-0.754,-0.754,-0.7437,-0.7377,-0.7361,-0.7481,-0.7649,-0.7867,-0.7872,-0.8044,-0.8149,-0.8049,-0.7867,-0.7845,-0.7638,-0.7685,-0.8016,-0.7899,-0.7725,-0.7522,-0.7726,-0.7425,0.0,-0.6918,0.0,0.0,0.0,0.0,0.0,0.0,0.0,0.0,-0.6672,-0.6905,-0.7083,-0.7418,-0.7443,-0.725,-0.7244,-0.7321,-0.7339,-0.744,-0.7559,-0.7689,-0.7903,-0.8064,-0.8093,-0.8317,-0.8512,-0.8927,-0.9125,-0.9509,-0.9774,-1.01,-1.0175,-0.9985,-1.01,-1.0236,-1.0276,-1.0276,-1.0209,-1.0222,-1.0249,-1.0249,-1.0263,-1.0236,-1.0276,-1.0243,-1.0249,-1.0263,-1.0249,-1.0141,-1.0066,-1.008,-0.9964,-0.9883,-0.9883,-0.9863,-0.9754,-0.953,-0.9462,-0.9435,-0.1414,-0.2003,-0.259,-0.3085,-0.3597,-0.4529,-0.5318,-0.6089,-0.7046,-0.7646,-0.7991,-0.7752,-0.7635,-0.7635,-0.7635,-0.769,-0.7784,-0.7784,-0.7834,-0.8049,-0.7922,-0.7928,-0.7928,-0.7928,-0.7928,-0.7807,-0.7801,-0.7807,-0.7801,-0.7928,-0.7878,-0.7914,-0.779,-0.7671,-0.779,0.0,0.0,0.0,-0.76,-0.7731,-0.7867,-0.7872,-0.7883,-0.7905,-0.7883,0.0,-0.7736,-0.7595,-0.7529,-0.7663,-0.7431,0.0,0.0,0.0,0.0,0.0,0.0,0.0,0.0,0.0,0.0,0.0,-0.5363,-0.5712,-0.6064,-0.6344,-0.6697,-0.685,-0.6899,-0.6942,-0.7008,-0.7035,-0.7089,-0.7187,-0.722,-0.7279,-0.7164,-0.7343,-0.7668,-0.7987,-0.8159,-0.8494,-0.905,-0.9393,-0.9671,-0.9677,-1.021,-1.0426,-1.0378,-1.0324,-1.0283,-1.0283,-1.0317,-1.0297,-1.0276,-1.0304,-1.0337,-1.0276,-1.0276,-1.0297,-1.031,-1.0297,-1.029,-1.0297,-1.0256,-1.0236,-1.0236,-1.0209,-1.0175,-1.0188,-1.0093,-0.9951,-0.9774,-0.9741,-0.9741,-0.1447,-0.2051,-0.2652,-0.3149,0.0,-0.4267,-0.4972,-0.5658,-0.6377,-0.722,-0.7823,-0.7578,-0.7573,-0.7693,-0.7693,-0.7725,-0.7785,-0.7785,-0.7812,-0.7872,-0.7872,-0.7872,-0.7872,-0.7872,-0.7872,-0.7872,-0.7872,-0.7899,-0.7959,-0.7964,-0.7964,-0.7964,-0.7841,-0.7964,-0.8094,-0.7964,-0.7905,-0.778,-0.7845,-0.7932,-0.7916,-0.7992,-0.7992,-0.7916,-0.7932,0.0,0.0,0.0,0.0,0.0,0.0,0.0,0.0,0.0,0.0,-0.5322,-0.4871,-0.4709,-0.4856,-0.4856,-0.475,-0.4533,-0.4457,-0.4833,-0.5575,-0.5799,-0.606,-0.6214,-0.6233,-0.6252,-0.6298,-0.6303,-0.6327,-0.6383,-0.6476,-0.656,-0.6731,-0.6831,-0.7178,-0.7521,-0.7676,-0.7975,-0.8597,-0.8922,-0.9343,-0.9748,-1.0182,-1.0578,-1.0704,-1.0588,-1.0521,-1.0595,-1.0677,-1.0717,-1.0717,-1.0717,-1.0711,-1.0717,-1.0717,-1.0717,-1.0717,-1.0656,-1.0616,-1.0602,-1.0493,-1.0385,-1.0378,-1.0331,-1.0276,-1.0276,-1.0215,-1.0148,-1.0053,-0.993,-0.9842,-0.1236,-0.21,-0.259,-0.296,-0.3332,-0.4069,-0.4807,-0.5544,-0.5912,0.0,0.0,-0.751,-0.7505,-0.775,-0.7872,-0.7872,-0.7872,-0.7872,-0.7872,-0.7872,-0.7872,-0.7872,-0.7872,-0.7872,-0.7872,-0.7872,-0.7894,-0.7954,-0.7921,-0.8198,-0.8138,-0.8098,-0.8103,-0.8103,-0.8236,-0.8258,-0.822,-0.8122,-0.8095,-0.8007,-0.797,-0.8012,-0.8007,-0.797,-0.7916,-0.7986,-0.7953,-0.7505,-0.749,-0.7817,-0.7202,-0.6657,-0.6443,-0.5738,-0.5174,-0.4763,-0.3992,-0.363,-0.3911,-0.3914,-0.3801,-0.3577,-0.3577,-0.3995,-0.487,-0.5032,-0.5114,-0.5326,-0.5333,-0.5349,-0.5376,-0.5379,-0.5383,-0.5383,-0.5632,-0.5838,-0.6093,-0.6214,-0.643,-0.6846,-0.6974,-0.7255,-0.7951,-0.829,-0.8744,-0.9582,-1.0155,-1.0567,-1.0833,-1.0873,-1.0833,-1.0941,-1.1023,-1.1131,-1.1151,-1.1131,-1.1165,-1.1111,-1.1131,-1.1165,-1.1145,-1.1063,-1.0995,-1.0962,-1.0751,-1.0609,-1.0568,-1.0473,-1.0365,-1.0358,-1.0331,-1.0317,-1.029,-1.01,-0.9958,-0.0864,-0.1975,-0.2097,-0.2342,-0.2714,-0.3576,-0.4687,-0.5802,-0.6162,-0.6276,-0.6276,-0.7016,-0.7388,-0.751,-0.775,-0.7872,-0.7872,-0.7872,-0.7872,-0.7872,-0.7872,-0.7872,-0.7872,-0.7872,-0.7872,-0.7877,-0.7851,-0.791,-0.7937,-0.8292,-0.8481,-0.8497,-0.8236,-0.8236,-0.8375,-0.8339,-0.8383,-0.8367,-0.8263,-0.8214,-0.8103,-0.822,-0.8214,-0.8103,-0.8204,-0.8066,-0.7827,-0.7577,-0.719,-0.6792,-0.65,-0.5978,-0.4976,-0.4614,-0.4198,-0.3494,-0.3328,-0.318,-0.294,-0.2942,-0.2958,-0.287,-0.2874,-0.3191,-0.3878,-0.3983,-0.4038,-0.4148,-0.4163,-0.4209,-0.4184,-0.4573,-0.4693,-0.4703,-0.4979,-0.5248,-0.5245,-0.5269,-0.5573,-0.59,-0.6296,-0.663,-0.7296,-0.8018,-0.8742,-0.9114,-0.9985,-1.0718,-1.1007,-1.1118,-1.1111,-1.1131,-1.1151,-1.1165,-1.1192,-1.1172,-1.1192,-1.1165,-1.1185,-1.1199,-1.1199,-1.1165,-1.1138,-1.1131,-1.0982,-1.0887,-1.0867,-1.0758,-1.0663,-1.0636,-1.0555,-1.0466,-1.046,-1.0324,-1.0222,-0.0741,-0.1977,-0.1974,-0.2096,-0.2342,-0.333,-0.4091,-0.487,-0.5243,-0.5586,-0.5912,-0.6526,-0.7016,-0.7383,-0.7505,-0.775,-0.7872,-0.7872,-0.7872,-0.7872,-0.7872,-0.7872,-0.7872,-0.7872,-0.7905,-0.7846,-0.79,-0.7865,-0.7986,-0.8441,-0.8632,-0.8557,-0.8426,-0.8426,-0.8432,-0.8481,-0.8508,-0.8508,-0.8454,-0.8426,-0.8426,-0.8367,-0.8334,-0.8463,-0.8146,-0.7858,-0.7724,-0.7037,-0.6651,-0.6306,-0.5597,-0.4829,-0.4374,-0.3819,-0.3297,-0.2937,-0.2284,-0.1895,-0.1895,-0.1769,-0.1774,-0.1787,-0.1788,-0.1899,-0.2233,-0.2849,-0.3364,-0.3408,-0.3286,-0.3304,-0.3348,-0.3613,-0.3742,-0.3742,-0.3894,-0.4042,-0.4308,-0.4601,-0.4775,-0.5238,-0.5655,-0.6107,-0.6777,-0.7346,-0.805,-0.8809,-0.9974,-1.0747,-1.1107,-1.1261,-1.1375,-1.1314,-1.1355,-1.1409,-1.1409,-1.1409,-1.1409,-1.1409,-1.1409,-1.1409,-1.1402,-1.1355,-1.1287,-1.128,-1.1165,-1.1077,-1.1063,-1.0948,-1.0867,-1.0833,-1.0717,-1.0629,-1.0602,-1.0561,-1.0493,-0.0617,-0.1606,-0.1858,-0.1988,-0.2118,-0.2866,-0.3387,-0.3675,-0.4184,-0.4784,-0.5481,-0.6077,-0.668,-0.7296,-0.7398,-0.7627,-0.7872,-0.7872,-0.7888,-0.791,-0.791,-0.7926,-0.7954,-0.7954,-0.8002,-0.7964,-0.7991,-0.7975,-0.8133,-0.8443,-0.8635,-0.8579,-0.859,-0.859,-0.859,-0.859,-0.859,-0.859,-0.8617,-0.8628,-0.8628,-0.8568,-0.8541,-0.8403,-0.806,-0.7747,-0.7616,-0.6697,-0.6161,-0.5881,-0.4838,-0.405,-0.3779,-0.3128,-0.2737,-0.2475,-0.1824,-0.1172,-0.0781,-0.0781,-0.0781,-0.0781,-0.0911,-0.1042,-0.1042,-0.1953,-0.2602,-0.2595,-0.2462,-0.2465,-0.2607,-0.2869,-0.2867,-0.2869,-0.3037,-0.3328,-0.3597,-0.3907,-0.4226,-0.4544,-0.4968,-0.5543,-0.6163,-0.6605,-0.7463,-0.8765,-0.9818,-1.0488,-1.0875,-1.1181,-1.1422,-1.1362,-1.1402,-1.1592,-1.1619,-1.1606,-1.1599,-1.1619,-1.1606,-1.1592,-1.1579,-1.1504,-1.1457,-1.143,-1.1321,-1.1233,-1.1199,-1.1097,-1.0995,-1.0941,-1.0839,-1.0765,-1.0711,-1.0704,-1.0683,0.0,-0.0371,-0.1504,-0.2033,-0.2052,-0.2054,-0.2569,-0.3091,-0.386,-0.4246,-0.4619,-0.5564,-0.6411,-0.7022,-0.7311,-0.7521,-0.7883,-0.7872,-0.7932,-0.79,-0.791,-0.7964,-0.8182,-0.8193,-0.8076,-0.797,-0.8059,-0.8253,-0.8432,-0.8524,-0.8573,-0.859,-0.859,-0.859,-0.859,-0.859,-0.859,-0.859,-0.8698,-0.8753,-0.8622,-0.8713,-0.849,-0.7931,-0.8198,-0.806,-0.7341,-0.6949,-0.6214,-0.5195,-0.4638,-0.3934,-0.3092,-0.2952,-0.2684,-0.2281,-0.2146,-0.1475,0.0,-0.0134,0.0,-0.0134,-0.067,-0.0939,-0.0939,-0.1073,-0.12,-0.119,-0.1185,-0.1456,-0.2142,-0.2281,-0.228,-0.2415,-0.2848,-0.3285,-0.3285,-0.3324,-0.3355,-0.3497,-0.4055,-0.4636,-0.4976,-0.5987,-0.7442,-0.8791,-0.9247,-0.9701,-1.0305,-1.075,-1.1038,-1.1018,-1.1325,-1.1613,-1.1619,-1.1619,-1.1619,-1.1619,-1.1619,-1.1619,-1.1606,-1.1606,-1.1599,-1.1538,-1.147,-1.1375,-1.1341,-1.1246,-1.1104,-1.1029,-1.0955,-1.088,-1.0765,-1.0717,-1.0704,0.0,0.0,-0.0638,-0.1027,-0.1418,-0.1935,-0.2205,-0.2482,-0.2744,-0.3413,-0.4224,-0.4819,-0.5533,-0.6502,-0.6846,-0.7335,-0.7713,-0.7838,-0.7859,-0.7901,-0.8033,-0.8187,-0.8364,-0.8497,-0.8269,-0.8081,-0.8133,-0.8317,-0.8513,-0.8568,-0.859,-0.859,-0.859,-0.859,-0.859,-0.859,-0.859,-0.859,-0.8439,-0.8397,-0.8464,-0.8511,-0.8398,-0.8114,-0.7841,-0.7557,-0.7,-0.6159,-0.5308,-0.4727,-0.3892,-0.3328,-0.2898,-0.2622,-0.2346,-0.2208,-0.138,-0.069,0.0,0.0,0.0,0.0,-0.0276,-0.0414,-0.0414,-0.0414,-0.0413,-0.0411,0.0,-0.0544,0.0,-0.1242,-0.1657,-0.2072,-0.2497,-0.2643,-0.2643,-0.2934,-0.3092,-0.3115,-0.3546,-0.399,-0.4323,-0.5489,-0.6661,-0.7851,-0.829,-0.8874,-0.9596,-1.0173,-1.0455,-1.0599,-1.0894,-1.1181,-1.1476,-1.1619,-1.1619,-1.1619,-1.1619,-1.1619,-1.1619,-1.1619,-1.1619,-1.1619,-1.1558,-1.1518,-1.1525,-1.1409,-1.1267,-1.1172,-1.1016,-1.09,-1.0751,-1.0724,-1.0717,0.0,0.0,0.0,-0.026,-0.0783,-0.1305,-0.1707,-0.212,-0.2121,-0.2802,-0.3763,-0.4129,-0.4741,-0.5602,-0.6206,-0.6956,-0.7468,-0.7596,-0.774,-0.8017,-0.8156,-0.8301,-0.8593,-0.8593,-0.8513,-0.8317,-0.8333,-0.8371,-0.8579,-0.859,-0.859,-0.859,-0.859,-0.859,-0.8584,-0.8456,-0.8456,-0.8467,-0.8168,-0.8143,-0.8104,-0.8009,-0.8033,-0.7917,-0.7499,-0.7076,-0.6653,-0.5524,-0.4667,-0.4366,-0.3381,-0.2813,-0.2384,-0.2244,-0.1965,-0.1544,-0.0561,0.0,0.0,0.0,0.0,0.0,0.0,0.0,0.0,0.0,0.0,0.0,0.0,0.0,0.0,-0.0421,-0.0982,-0.1544,-0.1829,-0.2258,-0.2258,-0.2546,-0.2707,-0.2728,-0.2876,-0.3317,-0.4068,-0.4953,-0.5829,-0.6586,-0.7319,-0.7911,-0.8664,-0.9264,-0.9551,-0.9983,-1.028,-1.0686,-1.1208,-1.1332,-1.1476,-1.1476,-1.1476,-1.1619,-1.1619,-1.1619,-1.1619,-1.1619,-1.1619,-1.1613,-1.1586,-1.1497,-1.1416,-1.1341,-1.1172,-1.0941,-1.0826,-1.0765,-1.0724,0.0,0.0,0.0,0.0,0.0,0.0,-0.094,-0.2014,-0.2151,-0.2289,-0.2559,-0.3631,-0.43,-0.4551,-0.5613,-0.6443,-0.7084,-0.7222,-0.7537,-0.8138,-0.8149,-0.8333,-0.8568,-0.8573,-0.8568,-0.8568,-0.8562,-0.8573,-0.859,-0.859,-0.859,-0.859,-0.859,-0.859,-0.8456,-0.8189,-0.8056,-0.8071,-0.7887,-0.7722,-0.7687,-0.7222,-0.7015,-0.7081,-0.697,-0.6821,-0.6246,-0.538,-0.4482,-0.3999,-0.3428,-0.2558,-0.1406,-0.1827,-0.1547,-0.0422,0.0,0.0,0.0,0.0,0.0,0.0,0.0,0.0,0.0,0.0,0.0,0.0,0.0,0.0,0.0,0.0,0.0,0.0,-0.1421,-0.2001,-0.2146,-0.2165,-0.2328,-0.2331,-0.2331,-0.2919,-0.3939,-0.4519,-0.4994,-0.5769,-0.6226,-0.6837,-0.7647,-0.8127,-0.8566,-0.9014,-0.9601,-1.031,-1.0529,-1.0957,-1.1089,-1.1102,-1.1279,-1.1509,-1.1626,-1.1619,-1.1633,-1.1489,-1.1502,-1.1509,-1.1482,-1.1579,-1.1368,-1.1255,-1.106,-1.0873,-1.0812,-1.0812,-1.0772,0.0,0.0,0.0,0.0,0.0,0.0,-0.0269,-0.0808,-0.1885,-0.2155,-0.229,-0.2963,-0.3499,-0.4037,-0.466,-0.5562,-0.6617,-0.6753,-0.7167,-0.7735,-0.827,-0.8296,-0.7917,-0.8328,-0.8595,-0.8595,-0.859,-0.859,-0.859,-0.859,-0.859,-0.8462,-0.8184,-0.7917,-0.7922,-0.7794,-0.766,-0.7665,-0.7161,-0.6953,-0.6915,-0.6442,-0.5962,-0.5894,-0.6091,-0.5974,-0.5392,-0.4662,-0.4071,-0.3473,-0.2898,-0.2313,-0.1873,-0.1151,-0.0576,0.0,0.0,0.0,0.0,0.0,0.0,0.0,0.0,0.0,0.0,0.0,0.0,0.0,0.0,0.0,0.0,0.0,0.0,0.0,0.0,-0.1015,-0.145,-0.1601,-0.1606,-0.1608,-0.1909,-0.2516,-0.2828,-0.3136,-0.3592,-0.4654,-0.5112,-0.5725,-0.6491,-0.6954,-0.7415,-0.8013,-0.8459,-0.8735,-0.9117,-1.0275,-1.0872,-1.0872,-1.1026,-1.102,-1.1001,-1.0982,-1.0995,-1.0963,-1.1078,-1.1015,-1.1008,-1.0913,-1.0849,-1.087,-1.0676,-1.0737,-1.0692,-1.0717,-1.0792,0.0,0.0,0.0,0.0,0.0,0.0,0.0,0.0,-0.1077,-0.175,-0.2155,-0.2425,-0.2828,-0.3365,-0.3768,-0.4574,-0.5647,-0.5915,-0.6451,-0.7125,-0.7665,-0.7665,-0.7254,-0.766,-0.8061,-0.8333,-0.86,-0.8462,-0.8189,-0.8051,-0.8189,-0.8472,-0.7789,-0.725,-0.7254,-0.7121,-0.7125,-0.7125,-0.6455,-0.6103,-0.6073,-0.5573,-0.5085,-0.4884,-0.4933,-0.4956,-0.4519,-0.408,-0.3644,-0.3063,-0.2627,-0.2043,-0.146,-0.0584,0.0,0.0,0.0,0.0,0.0,0.0,0.0,0.0,0.0,0.0,0.0,0.0,0.0,0.0,0.0,0.0,0.0,0.0,0.0,0.0,0.0,0.0,-0.0735,-0.0885,-0.0887,-0.0889,-0.1191,-0.1651,-0.1964,-0.227,-0.2881,-0.3653,-0.396,-0.4571,-0.5352,-0.5663,-0.6121,-0.6888,-0.7201,-0.7511,-0.7951,-0.8863,-0.9677,-0.9805,-1.0248,-1.0272,-1.0289,-1.0283,-1.0427,-1.0404,-1.0351,-1.0281,-1.0346,-1.039,-1.0293,-1.0197,-1.0395,-1.0448,-1.0537,-1.0631,-1.056,0.0,0.0,0.0,0.0,0.0,0.0,0.0,0.0,0.0,-0.0943,-0.1885,-0.2155,-0.2289,-0.2423,-0.2961,-0.3499,-0.4037,-0.4842,-0.5781,-0.6455,-0.6589,-0.6585,-0.6447,-0.6711,-0.7121,-0.7932,-0.8344,-0.8205,-0.7526,-0.6982,-0.7254,-0.8205,-0.7526,-0.6849,-0.6447,-0.6451,-0.6455,-0.6321,-0.5789,-0.5318,-0.5026,-0.4625,-0.4256,-0.4059,-0.3787,-0.3791,-0.408,-0.3498,-0.3209,-0.3063,-0.2627,-0.1606,0.0,0.0,0.0,0.0,0.0,0.0,0.0,0.0,0.0,0.0,0.0,0.0,0.0,0.0,0.0,0.0,0.0,0.0,0.0,0.0,0.0,0.0,0.0,0.0,0.0,0.0,0.0,0.0,0.0,0.0,-0.1061,-0.1673,-0.2139,-0.2463,-0.2932,-0.3556,-0.4206,-0.4525,-0.4857,-0.5483,-0.5926,-0.6372,-0.6715,-0.7201,-0.8017,-0.8536,-0.9122,-0.9429,-0.9299,-0.9304,-0.9314,-0.9299,-0.9413,-0.9495,-0.9634,-0.9545,-0.978,-0.9695,-1.0054,-1.0001,-1.0113,-1.0211,-1.0271,0.0,0.0,0.0,0.0,0.0,0.0,0.0,0.0,0.0,0.0,-0.0673,-0.1212,-0.175,-0.2154,-0.2423,-0.2558,-0.2692,-0.3497,-0.4571,-0.5647,-0.6191,-0.6187,-0.5915,-0.6317,-0.6853,-0.7526,-0.7799,-0.7526,-0.6853,-0.6581,-0.6987,-0.7531,-0.6719,-0.6046,-0.5781,-0.5781,-0.5647,-0.5248,-0.4885,-0.4524,-0.4154,-0.3942,-0.3569,-0.3307,-0.3194,-0.3063,-0.2917,-0.3063,-0.2917,-0.2627,-0.2335,-0.1606,0.0,0.0,0.0,0.0,0.0,0.0,0.0,0.0,0.0,0.0,0.0,0.0,0.0,0.0,0.0,0.0,0.0,0.0,0.0,0.0,0.0,0.0,0.0,0.0,0.0,0.0,0.0,0.0,0.0,0.0,0.0,0.0,-0.1087,-0.1713,-0.2185,-0.2817,-0.3137,-0.3454,-0.3768,-0.4081,-0.4552,-0.5179,-0.5492,-0.5805,-0.6227,-0.6949,-0.7548,-0.7991,-0.8157,-0.8166,-0.8171,-0.831,-0.8283,-0.8507,-0.8666,-0.8856,-0.8946,-0.8899,-0.8981,-0.9104,-0.9534,-0.9627,-0.9547,0.0,0.0,0.0,0.0,0.0,0.0,0.0,0.0,0.0,0.0,0.0,-0.0544,-0.095,-0.1355,-0.162,-0.2021,-0.229,-0.2692,-0.3365,-0.4305,-0.5248,-0.5383,-0.5111,-0.5781,-0.6455,-0.6996,-0.713,-0.6723,-0.618,-0.618,-0.6455,-0.6862,-0.5915,-0.5108,-0.4708,-0.4732,-0.4609,-0.4482,-0.4121,-0.3885,-0.3494,-0.3402,-0.3154,-0.2739,-0.247,-0.2334,-0.2337,-0.2627,-0.2627,-0.2191,-0.1752,-0.1022,0.0,0.0,0.0,0.0,0.0,0.0,0.0,0.0,0.0,0.0,0.0,0.0,0.0,0.0,0.0,0.0,0.0,0.0,0.0,0.0,0.0,0.0,0.0,0.0,0.0,0.0,0.0,0.0,0.0,0.0,0.0,0.0,0.0,-0.0785,-0.1256,-0.1728,-0.2043,-0.2356,-0.2669,-0.2983,-0.3454,-0.3925,-0.4238,-0.4393,-0.4552,-0.5167,-0.5783,-0.6237,-0.6548,-0.6544,-0.6548,-0.6836,-0.6965,-0.7374,-0.7565,-0.7599,-0.7677,-0.7783,-0.7888,-0.8145,-0.841,-0.8703,-0.8658,0.0,0.0,0.0,0.0,0.0,0.0,0.0,0.0,0.0,0.0,0.0,0.0,0.0,0.0,-0.0817,-0.1354,-0.2023,-0.2026,-0.2293,-0.2694,-0.3633,-0.4171,-0.4303,-0.4973,-0.5651,-0.6325,-0.6464,-0.5919,-0.5242,-0.5108,-0.5651,-0.6195,-0.5245,-0.4171,-0.351,-0.3548,-0.3844,-0.3719,-0.3484,-0.3246,-0.2995,-0.2864,-0.2737,-0.2331,-0.1751,-0.1752,-0.2191,-0.2189,-0.2043,-0.1898,0.0,0.0,0.0,0.0,0.0,0.0,0.0,0.0,0.0,0.0,0.0,0.0,0.0,0.0,0.0,0.0,0.0,0.0,0.0,0.0,0.0,0.0,0.0,0.0,0.0,0.0,0.0,0.0,0.0,0.0,0.0,0.0,0.0,0.0,0.0,0.0,0.0,-0.0628,-0.0942,-0.1413,-0.157,-0.1885,-0.2356,-0.2669,-0.314,-0.3611,-0.3611,-0.3768,-0.4395,-0.4709,-0.5179,-0.5179,-0.5335,-0.563,-0.577,-0.6189,-0.6441,-0.6495,-0.6559,-0.6658,-0.6767,-0.7011,-0.7276,-0.7566,-0.7851,0.0,0.0,0.0,0.0,0.0,0.0,0.0,0.0,0.0,0.0,0.0,0.0,0.0,0.0,0.0,-0.0414,-0.0685,-0.123,-0.1766,-0.2157,-0.2558,-0.3096,-0.3497,-0.4034,-0.4708,-0.5517,-0.5517,-0.4977,-0.3895,-0.3897,-0.4437,-0.5658,-0.458,-0.3517,-0.2728,-0.3291,-0.3454,-0.3209,-0.3248,-0.2991,-0.2435,-0.2023,-0.189,-0.2334,-0.2043,-0.2043,-0.2189,-0.1168,-0.0584,-0.0584,0.0,0.0,0.0,0.0,0.0,0.0,0.0,0.0,0.0,0.0,0.0,0.0,0.0,0.0,0.0,0.0,0.0,0.0,0.0,0.0,0.0,0.0,0.0,0.0,0.0,0.0,0.0,0.0,0.0,0.0,0.0,0.0,0.0,0.0,0.0,0.0,0.0,0.0,0.0,0.0,0.0,0.0,-0.1099,-0.1413,-0.1885,-0.2514,-0.2671,-0.2828,-0.3142,-0.3454,-0.3925,-0.4238,-0.4395,-0.4706,-0.4855,-0.5139,-0.5257,-0.5355,-0.5446,-0.5525,-0.5632,-0.5886,-0.6279,-0.6551,-0.6841,0.0591,0.0441,0.0147,0.0,0.0,0.0,0.0,0.0,0.0,0.0,0.0,0.0,0.0,0.0,0.0,0.0,0.0,-0.1109,-0.1789,-0.204,-0.2296,-0.2425,-0.2827,-0.3228,-0.3765,-0.444,-0.444,-0.39,-0.3224,-0.2956,-0.3495,-0.4179,-0.3927,-0.3137,-0.2335,-0.2645,-0.2805,-0.2266,-0.2292,-0.2308,-0.2168,-0.189,-0.1458,-0.146,-0.1314,-0.1314,-0.1168,-0.0438,0.0,0.0,0.0,0.0,0.0,0.0,0.0,0.0,0.0,0.0,0.0,0.0,0.0,0.0,0.0,0.0,0.0,0.0,0.0,0.0,0.0,0.0,0.0,0.0,0.0,0.0,0.0,0.0,0.0,0.0,0.0,0.0,0.0,0.0,0.0,0.0,0.0,0.0,0.0,0.0,0.0,0.0,0.0,0.0,0.0,0.0,0.0,-0.157,-0.2043,-0.2043,-0.22,-0.2514,-0.2826,-0.3297,-0.3454,-0.3613,-0.377,-0.3918,-0.4204,-0.4323,-0.4426,-0.4525,-0.4486,-0.4736,-0.4985,-0.5389,-0.568,0.1354,0.1191,0.0596,0.0148,0.0,0.0,0.0,0.0,0.0,0.0,0.0,0.0,0.0,0.0,0.0,0.0,0.0,-0.1125,-0.1673,-0.1792,-0.1773,-0.1763,-0.1893,-0.229,-0.2827,-0.3228,-0.3094,-0.3094,-0.269,-0.242,-0.2559,-0.2976,-0.3008,-0.2617,-0.1946,-0.212,-0.1859,-0.1579,-0.1303,-0.1455,-0.1748,-0.1605,-0.1168,0.0,0.0,0.0,0.0,0.0,0.0,0.0,0.0,0.0,0.0,0.0,0.0,0.0,0.0,0.0,0.0,0.0,0.0,0.0,0.0,0.0,0.0,0.0,0.0,0.0,0.0,0.0,0.0,0.0,0.0,0.0,0.0,0.0,0.0,0.0,0.0,0.0,0.0,0.0,0.0,0.0,0.0,0.0,0.0,0.0,0.0,0.0,0.0,0.0,0.0,0.0,0.0,-0.0628,-0.1099,-0.1413,-0.157,-0.1728,-0.2043,-0.2356,-0.2357,-0.2514,-0.2669,-0.2983,-0.3448,-0.3417,-0.3536,-0.3501,-0.3621,-0.3718,-0.3816,-0.409,-0.4517,0.2269,0.2262,0.1961,0.1507,0.09,0.0,0.0,0.0,0.0,0.0,0.0,0.0,0.0,0.0,0.0,0.0,0.0,0.0,-0.0424,-0.0419,-0.0418,0.0,0.0,-0.122,-0.1751,-0.2289,-0.2423,-0.2423,-0.229,-0.2159,-0.2302,-0.2326,-0.1928,-0.1251,-0.0708,-0.1568,-0.216,-0.1886,-0.0875,0.0,0.0,0.0,0.0,0.0,0.0,0.0,0.0,0.0,0.0,0.0,0.0,0.0,0.0,0.0,0.0,0.0,0.0,0.0,0.0,0.0,0.0,0.0,0.0,0.0,0.0,0.0,0.0,0.0,0.0,0.0,0.0,0.0,0.0,0.0,0.0,0.0,0.0,0.0,0.0,0.0,0.0,0.0,0.0,0.0,0.0,0.0,0.0,0.0,0.0,0.0,0.0,0.0,0.0,0.0,0.0,0.0,-0.0631,-0.0945,-0.0944,-0.1099,-0.1413,-0.157,-0.157,-0.157,-0.157,-0.1885,-0.2356,-0.2667,-0.2797,-0.2768,-0.2736,-0.2701,-0.2817,-0.3088,-0.3354,0.2917,0.2751,0.2597,0.2284,0.1816,0.1354,0.075,0.0,0.0,0.0,0.0,0.0,0.0,0.0,0.0,0.0,0.0,0.0,0.0,0.0,0.0,0.0,0.0,-0.0413,-0.082,-0.1216,-0.1885,-0.2026,-0.1765,-0.1361,-0.1507,-0.2082,-0.1117,-0.0564,-0.0143,-0.072,-0.1015,-0.1019,0.0,0.0,0.0,0.0,0.0,0.0,0.0,0.0,0.0,0.0,0.0,0.0,0.0,0.0,0.0,0.0,0.0,0.0,0.0,0.0,0.0,0.0,0.0,0.0,0.0,0.0,0.0,0.0,0.0,0.0,0.0,0.0,0.0,0.0,0.0,0.0,0.0,0.0,0.0,0.0,0.0,0.0,0.0,0.0,0.0,0.0,0.0,0.0,0.0,0.0,0.0,0.0,0.0,0.0,0.0,0.0,0.0,0.0,0.0,-0.0317,-0.0473,-0.0472,-0.0628,-0.0628,-0.0628,0.0,0.0,0.0,-0.1099,-0.157,-0.1878,-0.1856,-0.1833,-0.1814,-0.1796,-0.2074,-0.2349,0.3747,0.3249,0.294,0.2614,0.2591,0.2433,0.167,0.0606,0.045,0.0,0.0,0.0,0.0,0.0,0.0,0.0,0.0,0.0,0.0,0.0,0.0,0.0,0.0,0.0281,0.0417,0.0136,-0.0951,-0.1367,-0.0825,-0.0276,-0.0417,-0.1266,-0.0569,0.0286,0.0288,0.0145,0.0146,0.0146,0.0,0.0,0.0,0.0,0.0,0.0,0.0,0.0,0.0,0.0,0.0,0.0,0.0,0.0,0.0,0.0,0.0,0.0,0.0,0.0,0.0,0.0,0.0,0.0157,0.0,0.0,0.0,0.0,0.0,0.0,0.0,0.0,0.0,0.0,0.0,0.0,0.0,0.0,0.0,0.0,0.0,0.0,0.0,0.0,0.0,0.0,0.0,0.0,0.0,0.0,0.0,0.0,0.0,0.0,0.0,0.0,0.0,0.0,0.0,0.0,0.0,0.0,0.0,0.0,0.0,0.0,0.0,0.0,0.0,-0.0785,-0.1094,-0.1084,-0.1077,-0.1068,-0.1057,-0.1045,-0.148,0.4236,0.4073,0.3758,0.3439,0.2961,0.2626,0.2307,0.215,0.1974,0.1208,0.0,0.0,0.0,0.0,0.0,0.0,0.0,0.0,0.0,0.0,0.0,0.0,0.0,0.1141,0.1697,0.1539,0.0418,-0.0279,0.0,0.1119,0.0845,0.0142,0.0572,0.1151,0.145,0.1313,0.1022,0.1022,0.1022,0.1022,0.0876,0.0,0.0,0.0,0.0,0.0,0.0,0.0,0.0,0.0,0.0,0.0,0.0,0.0,0.0,0.0,0.1083,0.1566,0.1728,0.1413,0.1099,0.1099,0.1099,0.1099,0.1099,0.1099,0.0785,0.0,0.0,0.0,0.0,0.0,0.0,0.0,0.0,0.0,0.0,0.0,0.0,0.0,0.0,0.0,0.0,0.0,0.0,0.0,0.0,0.0,0.0,0.0,0.0,0.0,0.0,0.0,0.0,0.0,0.0,0.0,0.0,0.0,0.0,0.0,0.0,0.0,0.0,0.0,0.0,0.0,0.0,0.0,0.0,0.0,0.0,0.0,0.0,0.5495,0.5025,0.4552,0.4238,0.3766,0.3279,0.2957,0.2487,0.2461,0.1988,0.1524,0.136,0.1351,0.1199,0.0747,0.0593,0.0589,0.0,0.0,0.0,0.0,0.0582,0.1013,0.2026,0.2163,0.2151,0.1432,0.0713,0.0284,0.156,0.1713,0.1586,0.1591,0.2032,0.2187,0.1898,0.1752,0.1752,0.1752,0.1752,0.1752,0.1314,0.1168,0.1022,0.0,0.0,0.0,0.0876,0.0,0.0,0.0,0.0739,0.0746,0.0756,0.0917,0.1228,0.1711,0.22,0.2514,0.2357,0.2671,0.2671,0.2514,0.2356,0.2043,0.1886,0.157,0.0785,0.0,0.0,0.0,0.0,0.0,0.0,0.0,0.0,0.0,0.0,0.0,0.0,0.0,0.0,0.0,0.0,0.0,0.0,0.0,0.0,0.0,0.0,0.0,0.0,0.0,0.0,0.0,0.0,0.0,0.0,0.0,0.0,0.0,0.0,0.0,0.0,0.0,0.0,0.0,0.0,0.0,0.0,0.0,0.0,0.0,0.0,0.0,0.6744,0.6118,0.5648,0.5179,0.4709,0.4395,0.3609,0.282,0.2799,0.2787,0.2473,0.2447,0.2432,0.2279,0.1817,0.1505,0.1341,0.0738,0.0,0.0,0.0,0.1177,0.206,0.2354,0.2354,0.2353,0.2196,0.1601,0.1008,0.1724,0.2169,0.2179,0.2188,0.2335,0.2189,0.2189,0.2335,0.2335,0.2335,0.2335,0.2335,0.2335,0.2335,0.2335,0.1168,0.0,0.0,0.1172,0.1908,0.1913,0.1778,0.1643,0.1802,0.1831,0.2007,0.2635,0.2033,0.2197,0.2828,0.3299,0.3458,0.3458,0.377,0.3299,0.2985,0.2514,0.22,0.157,0.0,0.0,0.0,0.0,0.0,0.0,0.0,0.0,0.0,0.0,0.0,0.0,0.0,0.0,0.0,0.0,0.0,0.0,0.0,0.0,0.0,0.0,0.0,0.0,0.0,0.0,0.0,0.0,0.0,0.0,0.0,0.0,0.0,0.0,0.0,0.0,0.0,0.0,0.0,0.0,0.0,0.0,0.0,0.0,0.0,0.0,0.0,0.7833,0.7677,0.69,0.6434,0.6118,0.5648,0.4709,0.3768,0.3916,0.3447,0.2658,0.2477,0.2617,0.2458,0.2435,0.2272,0.2115,0.1956,0.1802,0.1801,0.1802,0.1953,0.2409,0.2413,0.2403,0.2398,0.2382,0.221,0.1898,0.2184,0.2327,0.2333,0.2334,0.2333,0.2334,0.2334,0.2333,0.2333,0.2333,0.2333,0.2333,0.2334,0.2334,0.2191,0.2046,0.1757,0.1321,0.1772,0.2077,0.2526,0.2402,0.2734,0.3222,0.3233,0.3417,0.3593,0.3611,0.3456,0.377,0.3927,0.4084,0.4084,0.4081,0.3768,0.3611,0.2985,0.2671,0.2514,0.22,0.157,0.0471,0.0,0.0,0.0,0.0,0.0,0.0,0.0,0.0,0.0,0.0,0.0,0.0,0.0,0.0,0.0,0.0,0.0,0.0,0.0,0.0,0.0,0.0,0.0,0.0,0.0,0.0,0.0,0.0,0.0,0.0,0.0,0.0,0.0,0.0,0.0,0.0,0.0,0.0,0.0,0.0,0.0,0.0,0.0,0.0,0.9547,0.8774,0.7994,0.7525,0.7369,0.6587,0.5962,0.5179,0.4865,0.4395,0.3922,0.3437,0.3116,0.2951,0.277,0.2756,0.2446,0.2433,0.2424,0.2427,0.2427,0.2425,0.2423,0.2424,0.2424,0.2424,0.2412,0.2402,0.2378,0.2349,0.2333,0.2335,0.2334,0.2333,0.2339,0.2334,0.2333,0.2333,0.2333,0.2333,0.2333,0.2334,0.2342,0.2357,0.2655,0.2516,0.2532,0.2695,0.3006,0.3313,0.3193,0.3372,0.3859,0.4035,0.4222,0.486,0.4868,0.4554,0.4397,0.4711,0.4711,0.4865,0.5022,0.5019,0.4552,0.3927,0.3299,0.2826,0.2671,0.2043,0.1413,0.0942,0.0785,0.0785,0.0785,0.0786,0.0,0.0,0.0,0.0,0.0,0.0,0.0,0.0,0.0,0.0,0.0,0.0,0.0,0.0,0.0,0.0,0.0,0.0,0.0,0.0,0.0,0.0,0.0,0.0,0.0,0.0,0.0,0.0,0.0,0.0,0.0,0.0,0.0,0.0,0.0,0.0,0.0,0.0,0.0,1.0952,1.0019,0.8925,0.8613,0.8618,0.7686,0.7056,0.6584,0.5962,0.5648,0.5338,0.4552,0.3925,0.3448,0.3269,0.3099,0.2788,0.2609,0.2447,0.2446,0.2446,0.2448,0.2453,0.245,0.245,0.2446,0.244,0.2433,0.2417,0.239,0.2363,0.2356,0.2364,0.2361,0.2357,0.2361,0.2364,0.2364,0.2363,0.2361,0.2509,0.2507,0.2667,0.283,0.314,0.33,0.3478,0.3803,0.4109,0.4271,0.4155,0.4338,0.4812,0.5014,0.5358,0.6007,0.6178,0.6194,0.5862,0.5843,0.5971,0.6118,0.6118,0.5962,0.5648,0.5025,0.4397,0.3766,0.314,0.2828,0.2357,0.1886,0.1728,0.157,0.1571,0.1574,0.0,0.0,0.0,0.0,0.0,0.0,0.0,0.0,0.0,0.0,0.0,0.0,0.0,0.0,0.0,0.0,0.0,0.0,0.0,0.0,0.0,0.0,0.0,0.0,0.0,0.0,0.0,0.0,0.0,0.0,0.0,0.0,0.0,0.0,0.0,0.0,0.0,0.0,0.0,1.1882,1.1572,1.033,0.9864,0.9708,0.909,0.815,0.7517,0.7365,0.7217,0.6908,0.5811,0.4868,0.4395,0.4075,0.3758,0.3605,0.2819,0.2654,0.2654,0.2504,0.2808,0.2805,0.2805,0.2654,0.2495,0.2478,0.2466,0.2459,0.2588,0.242,0.2265,0.2405,0.2412,0.241,0.2401,0.2403,0.2403,0.2554,0.2707,0.2859,0.3161,0.3317,0.3776,0.378,0.3782,0.4242,0.4441,0.4775,0.5083,0.5139,0.5483,0.6121,0.6339,0.6695,0.7342,0.7861,0.7886,0.7713,0.7156,0.7079,0.7221,0.7076,0.6938,0.663,0.5658,0.5022,0.4714,0.4088,0.3456,0.2985,0.2514,0.2514,0.2514,0.2517,0.2527,0.2544,0.0,0.0,0.0,0.1166,0.1173,0.1175,0.1005,0.0167,0.0,0.0,0.0,0.0,0.0,0.0,0.0,0.0,0.0,0.0,0.0,0.0,0.0,0.0,0.0,0.0,0.0,0.0,0.0,0.0,0.0,0.0,0.0,0.0,0.0,0.0,0.0,0.0,0.0,0.0,1.2192,1.2192,1.1417,1.0952,1.0796,0.9864,0.9397,0.8925,0.8462,0.7998,0.7529,0.6751,0.5965,0.5338,0.5025,0.4709,0.4395,0.3766,0.3452,0.3454,0.3768,0.3927,0.4084,0.3768,0.3609,0.2823,0.2499,0.2495,0.2492,0.3096,0.279,0.2625,0.2597,0.2425,0.2423,0.2581,0.258,0.273,0.288,0.3031,0.3179,0.3484,0.3799,0.4594,0.4591,0.4768,0.5106,0.5593,0.5916,0.6251,0.6462,0.6964,0.7461,0.7697,0.8059,0.8549,0.9083,0.9264,0.9259,0.8696,0.8331,0.8331,0.8331,0.8003,0.7668,0.6846,0.6188,0.5701,0.5204,0.4569,0.3929,0.3615,0.3613,0.3456,0.3308,0.3326,0.3358,0.3239,0.3277,0.2652,0.2337,0.2184,0.2018,0.2018,0.1009,0.0,0.0,0.0,0.0,0.0,0.0,0.0,0.0,0.0,0.0,0.0,0.0,0.0,0.0,0.0,0.0,0.0,0.0,0.0,0.0,0.0,0.0,0.0,0.0,0.0,0.0,0.0,0.0,0.0,0.0,1.2637,1.2637,1.2324,1.1959,1.1423,1.0641,1.033,1.0175,0.9397,0.8934,0.8154,0.7846,0.7217,0.6431,0.6118,0.5962,0.5492,0.4863,0.4395,0.4395,0.4552,0.5181,0.5184,0.4868,0.4081,0.3139,0.2982,0.298,0.345,0.3925,0.3762,0.3428,0.2938,0.2919,0.2914,0.2909,0.2909,0.3215,0.3368,0.3521,0.3829,0.3984,0.4453,0.5269,0.5578,0.5903,0.6257,0.6911,0.7409,0.7752,0.8115,0.8645,0.9012,0.9225,0.9607,0.9952,1.0297,1.0476,1.0308,0.9921,0.9577,0.9386,0.9225,0.8908,0.8585,0.8059,0.7385,0.6574,0.6214,0.5707,0.5071,0.4757,0.4589,0.4273,0.4273,0.4296,0.4183,0.4232,0.4279,0.3993,0.3681,0.3363,0.3029,0.2692,0.1515,0.0674,0.0,0.0,0.0,0.0,0.0,0.0,0.0,0.0,0.0,0.0,0.0,0.0,0.0,0.0,0.0,0.0,0.0,0.0,0.0,0.0,0.0,0.0,0.0,0.0,0.0,0.0,0.0,0.0,0.0,1.2935,1.2949,1.2935,1.2456,1.1921,1.1423,1.1107,1.0791,1.0175,0.9874,0.9724,0.8778,0.8145,0.7833,0.7525,0.7213,0.6744,0.6275,0.5802,0.5329,0.5332,0.5648,0.5808,0.5651,0.4865,0.4081,0.3768,0.4081,0.4711,0.4868,0.4868,0.4711,0.4061,0.3745,0.3762,0.3764,0.3764,0.3762,0.3756,0.422,0.4683,0.4989,0.5465,0.6091,0.6562,0.6885,0.7554,0.8076,0.8581,0.9258,0.9507,1.004,1.0545,1.0812,1.1201,1.1534,1.1806,1.186,1.1866,1.0998,1.06,1.0438,1.0297,0.9795,0.9597,0.9088,0.828,0.7625,0.744,0.6791,0.6294,0.5947,0.5759,0.5428,0.5428,0.5454,0.5515,0.5555,0.5616,0.5499,0.5025,0.4542,0.4206,0.3533,0.202,0.101,0.0337,0.0,0.0,0.0,0.0,0.0,0.0,0.0,0.0,0.0,0.0,0.0,0.0,0.0,0.0,0.0,0.0,0.0,0.0,0.0,0.0,0.0,0.0,0.0,0.0,0.0,0.0,0.0,0.0,1.2963,1.2963,1.2963,1.2901,1.2476,1.2069,1.166,1.1423,1.1107,1.0808,1.0653,0.9708,0.9241,0.8929,0.8618,0.831,0.8154,0.7365,0.6733,0.6736,0.6584,0.6747,0.6908,0.6591,0.5962,0.486,0.4703,0.4703,0.486,0.5648,0.5489,0.5019,0.5335,0.4863,0.4079,0.3768,0.3925,0.4238,0.4393,0.4863,0.5492,0.5962,0.6431,0.7056,0.7533,0.8028,0.8711,0.9253,0.9935,1.0479,1.0912,1.13,1.1649,1.1752,1.1983,1.2161,1.2229,1.2567,1.2395,1.18,1.1617,1.1435,1.1089,1.0755,1.0447,0.9876,0.9207,0.8852,0.8653,0.8148,0.7774,0.7609,0.7428,0.7102,0.711,0.7151,0.7207,0.7069,0.7121,0.7013,0.6721,0.5882,0.5211,0.4707,0.3532,0.2523,0.185,0.101,0.0,0.0,0.0,0.0,0.0,0.0,0.0,0.0,0.0,0.0,0.0,0.0,0.0,0.0,0.0,0.0,0.0,0.0,0.0,0.0,0.0,0.0,0.0,0.0,0.0,0.0,0.0,1.3112,1.3112,1.3112,1.3078,1.3017,1.2556,1.2272,1.2037,1.1673,1.1654,1.1498,1.0832,1.033,1.0019,0.9864,0.9553,0.9397,0.8769,0.7985,0.8141,0.8315,0.8159,0.8002,0.7846,0.7053,0.6108,0.5639,0.5639,0.6111,0.6744,0.6584,0.6115,0.6584,0.6275,0.5492,0.5179,0.4865,0.5179,0.5489,0.5805,0.6275,0.6904,0.7389,0.8037,0.8531,0.9194,0.9914,1.0462,1.0993,1.1583,1.1999,1.2257,1.2294,1.2497,1.2567,1.2733,1.2733,1.2906,1.2893,1.2727,1.2535,1.2542,1.2069,1.157,1.1231,1.0821,1.0463,1.0102,0.9871,0.9692,0.9351,0.9183,0.914,0.8811,0.8662,0.8707,0.8561,0.8596,0.8479,0.8378,0.7893,0.7052,0.6382,0.5879,0.5041,0.4201,0.353,0.269,0.2018,0.1346,0.0674,0.0,0.0,0.0,0.0,0.0,0.0,0.0,0.0,0.0,0.0,0.0,0.0,0.0,0.0,0.0,0.0,0.0,0.0,0.0,0.0,0.0,0.0,0.0,0.0,1.3397,1.3397,1.3397,1.3302,1.3173,1.3044,1.2809,1.2462,1.2166,1.2272,1.2437,1.1666,1.1155,1.128,1.128,1.0964,1.0486,1.0175,0.9547,0.908,0.9251,0.9251,0.9095,0.8778,0.815,0.7517,0.7049,0.7053,0.7525,0.8154,0.7842,0.7369,0.7998,0.7846,0.7373,0.6744,0.6431,0.6275,0.6427,0.6751,0.7236,0.7706,0.8225,0.8897,0.958,1.011,1.0844,1.1421,1.1981,1.2395,1.2643,1.3032,1.3224,1.3397,1.3397,1.3397,1.3403,1.3403,1.3238,1.3238,1.3238,1.3065,1.2567,1.2235,1.2063,1.1712,1.1363,1.1197,1.0997,1.0854,1.0699,1.0628,1.0558,1.0394,1.0066,1.0086,0.9932,0.9808,0.9697,0.9397,0.9063,0.8562,0.806,0.7391,0.6717,0.6214,0.5376,0.4369,0.353,0.2692,0.202,0.0,0.0,0.0,0.1178,0.0842,0.0,0.0,0.0,0.0,0.0,0.0,0.0,0.0,0.0,0.0,0.0,0.0,0.0,0.0,0.0,0.0,0.0,0.0,0.0,1.3397,1.3397,1.3397,1.3376,1.3336,1.3288,1.3159,1.2809,1.2749,1.2742,1.2735,1.2217,1.1956,1.1886,1.1566,1.1354,1.1143,1.0952,1.0474,1.0169,1.0019,1.0336,1.0186,1.003,0.9241,0.8613,0.8301,0.8306,0.909,0.9568,0.9251,0.8622,0.9251,0.9256,0.9095,0.8471,0.7846,0.7533,0.7533,0.7727,0.8238,0.8572,0.9268,0.9972,1.0484,1.1039,1.1794,1.2169,1.2729,1.2999,1.3204,1.3397,1.3397,1.3397,1.3397,1.3397,1.3397,1.3397,1.3397,1.3397,1.3397,1.3397,1.3065,1.2906,1.2567,1.2401,1.2069,1.2069,1.2069,1.1736,1.1736,1.1683,1.1641,1.1476,1.1311,1.1151,1.1163,1.1014,1.0904,1.0737,1.0398,0.9898,0.9402,0.8896,0.8223,0.7722,0.7219,0.6214,0.5043,0.4036,0.3365,0.2523,0.2187,0.2187,0.2187,0.202,0.1515,0.0,0.101,0.0673,0.0,0.0,0.0,0.0,0.0,0.0,0.0,0.0,0.0,0.0,0.0,0.0,0.0,0.0,0.0,1.3397,1.3397,1.3397,1.3397,1.3397,1.3397,1.3288,1.3139,1.3071,1.3044,1.3037,1.2655,1.2589,1.2516,1.2179,1.2114,1.1829,1.1823,1.1485,1.1256,1.0635,1.1113,1.1274,1.1125,1.0336,0.9703,0.9387,0.9387,1.0019,1.0019,0.9703,0.9392,1.0025,1.0347,1.0358,1.0074,0.963,0.9154,0.885,0.8739,0.9109,0.9631,1.018,1.0907,1.1421,1.1981,1.2572,1.2762,1.315,1.339,1.3397,1.3397,1.3397,1.3397,1.3397,1.3397,1.3397,1.3397,1.3397,1.3397,1.3397,1.3397,1.3397,1.3238,1.3072,1.2899,1.2733,1.2733,1.2567,1.2567,1.2567,1.2567,1.2567,1.2561,1.2395,1.2395,1.2229,1.2063,1.2069,1.1902,1.157,1.1237,1.0737,1.0065,0.9564,0.923,0.8729,0.7722,0.6382,0.5043,0.4374,0.3701,0.3197,0.2861,0.3029,0.2861,0.2356,0.202,0.202,0.1683,0.101,0.0,0.0,0.0,0.0,0.0,0.0,0.0,0.0,0.0337,0.0674,0.0,0.0,0.0,0.0,1.3444,1.3444,1.3437,1.3444,1.3424,1.3431,1.341,1.3383,1.3247,1.3356,1.3336,1.3064,1.301,1.2983,1.2809,1.2728,1.247,1.2272,1.2207,1.2387,1.1622,1.1778,1.2218,1.2373,1.1423,1.063,1.0158,1.0319,1.0314,1.0474,1.063,1.0153,1.082,1.1311,1.1498,1.1282,1.0861,1.0736,1.0105,0.9817,1.0356,1.0723,1.0924,1.1855,1.2219,1.2591,1.2853,1.3058,1.3397,1.3397,1.3397,1.3397,1.3397,1.3397,1.3397,1.3397,1.3397,1.3397,1.3397,1.3397,1.3397,1.3397,1.3397,1.3403,1.3238,1.3231,1.3065,1.3065,1.3065,1.3065,1.3065,1.3065,1.3065,1.3065,1.2899,1.2733,1.2733,1.2733,1.2567,1.2401,1.2235,1.1902,1.1736,1.1065,1.0732,1.0565,0.9898,0.9063,0.806,0.6553,0.5382,0.4878,0.4206,0.3701,0.3365,0.3197,0.2861,0.2692,0.2692,0.2524,0.1851,0.1515,0.0,0.0,0.0,0.0,0.0,0.0337,0.0674,0.1347,0.1684,0.2021,0.1684,0.101,0.0,1.3736,1.3736,1.3736,1.3675,1.358,1.3573,1.3512,1.3403,1.337,1.3349,1.3336,1.3302,1.322,1.3132,1.3125,1.3044,1.2929,1.2735,1.2648,1.2561,1.22,1.2161,1.2542,1.2556,1.2218,1.1889,1.1417,1.1256,1.1572,1.1727,1.1578,1.1119,1.1654,1.2037,1.2397,1.2045,1.1814,1.1869,1.1583,1.1103,1.1475,1.1667,1.1873,1.2301,1.2682,1.2847,1.3065,1.3231,1.3397,1.3397,1.3397,1.3397,1.3397,1.3397,1.3397,1.3397,1.3397,1.3397,1.3397,1.3397,1.3397,1.3397,1.3397,1.3397,1.3397,1.3397,1.3397,1.3397,1.3397,1.3397,1.3397,1.3397,1.3397,1.3403,1.3238,1.3231,1.3231,1.3065,1.3065,1.2899,1.2733,1.2567,1.2567,1.2235,1.1902,1.1403,1.0904,1.0065,0.9731,0.8562,0.6888,0.6053,0.5384,0.4712,0.4206,0.3701,0.3365,0.3029,0.3029,0.2861,0.2692,0.2356,0.1851,0.1851,0.0,0.1346,0.1178,0.101,0.1515,0.2188,0.2525,0.2694,0.2692,0.2188,0.1683,1.3838,1.3838,1.3838,1.3797,1.3736,1.3722,1.3499,1.3432,1.3593,1.3559,1.3318,1.3431,1.3349,1.3275,1.3275,1.3193,1.3078,1.3057,1.2956,1.2708,1.2661,1.2628,1.2561,1.2637,1.2467,1.2291,1.2063,1.2044,1.2528,1.2367,1.2057,1.1972,1.2239,1.2635,1.302,1.2668,1.2443,1.2507,1.2408,1.2433,1.244,1.2453,1.2472,1.2893,1.3065,1.3238,1.3231,1.3397,1.3397,1.3397,1.3397,1.3397,1.3397,1.3397,1.3397,1.3397,1.3397,1.3397,1.3397,1.3397,1.3397,1.3397,1.3397,1.3397,1.3397,1.3397,1.3397,1.3397,1.3397,1.3397,1.3397,1.3397,1.3397,1.3397,1.3397,1.3397,1.3231,1.3231,1.3231,1.3231,1.3065,1.3072,1.3072,1.2906,1.2567,1.2235,1.157,1.107,1.057,1.0232,0.8729,0.7391,0.6724,0.572,0.488,0.4374,0.4038,0.3701,0.3365,0.3029,0.2861,0.2692,0.2524,0.2524,0.2524,0.2692,0.2524,0.2355,0.2524,0.3367,0.3535,0.3535,0.3365,0.3197,0.2859,1.3905,1.3899,1.3905,1.3885,1.3871,1.3871,1.368,1.3482,1.366,1.3763,1.3485,1.3526,1.3451,1.3403,1.3397,1.3302,1.3241,1.3207,1.3112,1.3017,1.2822,1.2929,1.2874,1.282,1.2621,1.2548,1.2467,1.242,1.2562,1.2569,1.2623,1.2554,1.2793,1.302,1.3318,1.3281,1.3057,1.309,1.3144,1.3211,1.3224,1.3065,1.3058,1.3231,1.3397,1.3397,1.3397,1.3397,1.3397,1.3397,1.3397,1.3397,1.3397,1.3397,1.3397,1.3397,1.3397,1.3397,1.3397,1.3397,1.3397,1.3397,1.3397,1.3397,1.3397,1.3397,1.3397,1.3397,1.3397,1.3397,1.3397,1.3397,1.3397,1.3397,1.3397,1.3397,1.3397,1.3397,1.3397,1.3397,1.3403,1.3403,1.3403,1.3403,1.3238,1.2899,1.2401,1.1902,1.1403,1.107,1.0065,0.9063,0.8395,0.7223,0.5885,0.5046,0.471,0.4206,0.387,0.3365,0.3029,0.3195,0.3195,0.3029,0.3197,0.3365,0.3701,0.3701,0.404,0.4376,0.4374,0.4374,0.4372,0.4204,0.4036,1.4211,1.4211,1.4211,1.4143,1.4041,1.4027,1.396,1.368,1.3851,1.3824,1.3974,1.3763,1.3648,1.3403,1.3397,1.3356,1.3336,1.3329,1.3418,1.3315,1.3139,1.3226,1.3164,1.3123,1.2929,1.2688,1.2594,1.2541,1.2684,1.2848,1.2705,1.2594,1.301,1.3253,1.3301,1.3418,1.3336,1.3349,1.3349,1.3397,1.3397,1.3231,1.3231,1.3397,1.3397,1.3397,1.3397,1.3397,1.3397,1.3397,1.3397,1.3397,1.3397,1.3397,1.3397,1.3397,1.3397,1.3397,1.3397,1.3397,1.3397,1.3397,1.3397,1.3397,1.3397,1.3397,1.3397,1.3397,1.3397,1.3397,1.3397,1.3397,1.3397,1.3397,1.3397,1.3397,1.3397,1.3397,1.3397,1.3397,1.3397,1.3403,1.3403,1.3403,1.3403,1.3065,1.2899,1.2401,1.2069,1.1736,1.1397,1.0565,0.9898,0.8729,0.7394,0.6053,0.5382,0.5046,0.4542,0.4038,0.3701,0.3868,0.37,0.3868,0.3868,0.4038,0.4374,0.4878,0.5046,0.5214,0.5211,0.5211,0.5211,0.5211,0.5379]}]]